GFSWCAN_850_thetae_000.txt.gz
Theta_e
301 301 301 301 302 302 302 301 301 300 301 301 301 300 301 302 302 301 302 301 301 302 304 305 305 307 307 306 308 308 310 316 318 324 324 324 323 326 330 329 331 332 337 337 332 334 336 329 331 331 331 329 331 331
302 302 302 302 302 302 302 301 301 301 300 301 300 299 301 301 301 301 302 302 301 302 304 305 305 305 306 307 307 307 307 307 317 317 319 321 327 325 327 336 330 335 335 336 332 332 328 327 327 329 330 328 327 326
300 300 301 301 302 302 301 301 301 302 301 301 301 301 301 301 302 302 302 302 300 301 303 304 302 304 306 309 307 306 307 311 311 309 314 318 327 324 329 331 332 333 328 333 332 329 328 323 325 327 327 327 328 331
300 301 302 301 302 301 300 300 300 302 301 301 300 301 301 300 300 300 302 302 300 302 304 304 303 305 308 308 309 307 307 308 309 310 313 316 322 320 325 328 330 329 331 331 330 327 324 321 322 322 322 324 324 326
300 300 300 302 302 300 300 301 301 301 301 300 301 300 300 302 301 302 302 299 299 301 304 304 303 307 310 310 310 310 309 308 308 311 313 316 317 318 319 324 327 320 328 330 329 326 327 322 321 322 322 322 323 323
300 301 301 302 300 300 301 301 301 301 300 300 300 300 301 301 301 300 303 304 299 300 305 304 306 306 310 311 310 310 310 309 311 311 309 313 314 320 325 327 320 321 326 326 322 321 321 320 319 319 320 320 320 321
302 302 302 302 301 301 302 302 302 301 300 300 300 300 302 301 301 301 303 304 303 304 304 305 305 311 311 310 310 311 310 311 312 310 310 312 312 318 320 322 318 318 320 320 319 320 318 319 317 318 319 318 319 319
302 302 302 302 301 301 301 302 302 301 301 301 300 301 301 301 301 299 301 305 305 303 304 304 306 308 311 310 310 312 311 311 311 310 310 311 317 319 320 317 317 317 318 319 319 319 319 318 318 317 316 316 315 316
303 301 302 301 301 301 301 301 301 301 301 300 300 301 300 300 302 305 307 307 306 304 306 307 310 311 311 309 310 313 312 309 311 312 317 318 318 321 318 316 318 317 317 317 317 317 317 317 317 317 316 316 316 317
301 301 301 301 301 301 301 300 300 301 300 301 300 302 303 305 305 306 306 304 304 304 304 304 307 307 308 311 310 311 310 310 310 312 320 322 322 319 319 320 320 319 318 317 316 317 318 318 318 318 318 319 319 319
301 302 301 301 301 301 301 300 300 300 301 302 303 304 305 306 306 306 307 307 308 307 308 307 308 307 309 312 312 312 309 308 315 316 321 324 323 319 320 319 320 320 319 319 319 319 319 318 319 318 318 318 318 318
301 302 301 301 300 301 301 301 301 302 302 303 303 304 306 306 307 306 304 305 308 310 309 308 308 308 311 311 311 312 312 310 313 314 321 324 321 319 319 319 319 318 318 318 317 317 317 319 319 318 317 317 317 317
301 301 301 301 301 301 301 302 302 302 302 303 303 303 304 305 304 309 310 311 309 309 311 310 307 311 312 311 311 312 314 313 315 322 322 321 319 320 317 317 318 316 316 316 317 317 317 316 316 316 316 317 318 319
300 300 300 301 301 301 302 302 302 303 303 303 304 305 306 306 310 310 310 310 311 311 310 310 311 310 311 311 310 315 312 317 320 323 320 319 319 318 317 317 316 316 316 316 316 316 316 315 315 316 317 317 318 317
300 300 301 301 301 301 302 302 303 304 304 305 305 307 306 307 309 310 310 310 311 311 310 311 311 312 311 312 311 314 317 320 321 323 320 319 319 318 317 316 316 316 315 315 314 314 314 314 314 315 317 318 318 317
301 301 301 301 301 302 303 304 304 305 305 305 307 309 308 308 309 310 310 310 311 311 311 310 309 310 310 311 317 318 319 320 320 318 318 318 318 317 317 316 316 316 316 315 315 315 314 314 314 315 316 318 319 318
301 301 301 302 303 303 304 305 305 305 306 307 307 308 308 308 308 309 310 309 311 311 309 310 312 312 309 315 317 317 318 317 316 317 317 317 318 317 316 316 316 316 316 316 315 315 314 314 314 315 315 315 317 319
301 302 303 304 304 303 305 305 306 307 307 307 308 308 308 309 308 309 310 309 310 311 311 311 311 314 315 316 316 314 313 314 315 315 317 317 317 316 316 316 316 316 316 316 315 315 314 314 314 315 314 314 314 316
302 303 304 304 304 304 305 306 306 306 307 307 307 308 309 309 309 309 309 309 310 310 311 311 311 313 313 311 311 313 314 315 315 315 316 317 316 315 315 316 316 315 315 316 316 315 315 315 314 314 313 313 312 313
302 302 303 304 305 304 305 306 307 307 306 307 307 307 309 309 309 309 308 309 309 310 310 310 310 312 313 313 314 314 314 315 315 315 314 315 316 316 317 316 316 316 316 315 315 315 314 313 312 312 312 313 313 312
303 303 304 304 305 305 305 306 306 306 306 306 306 308 308 309 309 308 308 309 309 306 309 313 313 313 313 312 311 312 311 313 314 315 316 316 316 315 314 314 314 314 314 314 313 313 312 310 311 312 313 312 311 311
304 304 305 304 304 304 305 305 305 307 306 306 307 308 307 306 306 307 308 309 309 311 311 311 311 311 312 312 312 313 314 315 315 315 316 315 315 313 312 310 310 310 310 309 309 309 309 308 309 309 310 311 311 312
306 305 304 304 304 304 305 305 306 306 303 306 306 305 305 306 307 308 307 309 310 312 314 315 315 315 315 315 315 315 315 316 316 316 316 315 314 310 309 308 308 308 307 306 305 305 305 305 305 305 305 305 306 306
306 306 306 304 304 304 306 306 306 306 306 306 306 305 306 306 308 310 311 312 314 314 315 314 314 315 315 315 315 314 314 314 313 313 314 314 312 308 308 307 306 305 304 304 304 304 303 301 301 302 303 303 303 304
306 306 306 303 305 303 305 305 307 307 308 308 306 306 307 308 310 312 313 314 314 314 314 314 315 314 315 314 313 313 314 313 311 311 310 311 311 309 307 305 304 303 303 303 303 300 300 301 302 302 301 302 303 305
305 307 305 307 305 304 306 309 307 307 308 309 309 310 309 310 315 315 313 314 315 315 315 313 312 311 309 309 308 309 308 308 308 307 307 307 306 305 305 304 303 303 302 301 300 299 301 301 301 300 300 301 303 301
308 311 310 309 308 308 309 310 311 308 310 312 309 311 311 314 315 314 314 314 313 314 314 311 310 310 309 308 307 307 306 306 305 306 306 306 305 304 303 302 301 300 300 299 299 300 301 301 300 300 299 299 299 299
310 311 311 312 309 311 311 312 313 313 312 314 313 313 314 314 313 314 314 313 313 314 312 309 308 307 307 306 306 305 305 304 304 304 305 304 304 302 302 301 300 299 299 299 300 301 301 301 301 300 300 299 299 299
313 316 314 312 312 314 313 310 310 311 312 313 312 312 313 314 312 311 310 310 309 309 308 307 307 306 306 305 304 304 303 302 302 302 302 301 301 300 300 299 299 299 300 299 300 300 300 300 299 299 299 299 299 299
315 315 315 315 313 314 315 314 314 314 315 314 312 310 308 307 308 308 308 308 308 306 305 305 305 305 305 305 303 302 301 301 300 300 300 299 299 299 299 299 300 300 299 299 299 299 298 298 297 296 296 295 294 295
317 316 316 316 314 315 316 316 315 314 314 313 312 310 309 309 311 310 309 308 306 305 305 304 304 304 303 302 301 300 299 299 299 298 298 297 297 297 298 298 298 297 297 296 295 295 293 292 291 291 290 290 289 289
317 316 316 315 316 316 317 317 315 314 314 314 315 313 313 311 309 308 308 307 307 305 302 302 303 301 300 299 299 298 297 297 297 296 296 296 296 296 295 295 294 294 293 292 291 290 290 289 288 288 288 288 287 287
317 317 317 317 316 317 317 316 316 316 316 315 313 313 312 310 310 309 310 307 302 301 302 301 299 298 297 296 296 295 295 294 294 294 294 293 293 292 292 291 291 290 290 289 289 288 287 287 287 287 287 287 287 287

GFSWCAN_850_thetae_003.txt.gz
Theta_e
300 300 300 301 301 302 302 302 302 301 301 301 301 301 300 301 302 302 302 301 302 302 301 301 303 305 307 307 308 307 308 313 321 329 329 329 328 330 333 334 335 335 337 340 340 341 338 331 335 338 336 332 333 333
300 300 300 300 300 301 301 302 301 301 301 302 301 302 301 301 301 301 301 301 302 302 301 302 301 303 304 305 306 306 307 306 311 318 323 325 333 332 336 334 332 336 334 337 337 339 331 328 331 333 333 332 333 334
300 300 300 300 301 301 301 302 301 301 301 302 301 301 301 301 301 302 302 301 301 301 301 301 301 302 302 302 301 305 305 308 314 310 316 322 331 330 338 337 332 334 333 335 336 335 329 328 329 330 332 332 334 335
301 300 300 301 300 301 302 300 300 301 301 301 301 300 301 301 301 301 301 300 301 301 302 302 302 301 302 305 306 305 306 307 306 309 315 320 327 324 331 334 336 330 331 335 336 332 327 326 327 327 328 328 328 329
300 301 302 302 301 302 300 300 302 301 301 301 300 301 299 300 302 301 301 302 302 300 302 301 300 307 306 306 306 306 306 306 306 313 316 319 320 322 326 330 327 322 328 336 334 329 329 327 325 325 323 323 324 325
300 302 302 302 302 301 300 302 302 302 302 300 300 300 301 302 301 301 299 303 301 298 301 304 304 305 309 309 309 309 308 306 308 312 315 315 315 322 332 329 320 322 323 327 326 325 322 321 320 320 320 320 320 321
301 302 302 302 301 301 301 302 301 302 301 300 301 300 301 301 301 301 301 302 298 299 302 306 307 308 309 309 309 308 307 308 311 312 312 317 317 324 323 323 319 320 321 320 319 318 319 318 318 318 318 318 319 319
302 301 301 301 301 301 302 302 301 301 301 301 300 300 300 301 300 299 300 301 302 302 302 306 308 310 309 311 312 310 310 310 311 312 314 320 319 322 322 319 319 319 320 319 319 318 318 317 316 315 316 316 316 317
301 301 301 301 301 300 301 300 300 300 301 300 300 300 300 301 302 305 305 305 304 303 305 308 311 315 311 309 309 311 311 313 311 321 322 321 322 322 320 319 319 317 317 318 319 320 324 319 317 317 318 320 319 319
301 301 301 300 300 300 300 300 300 300 301 300 301 302 303 305 305 306 307 304 303 304 304 306 306 311 309 313 313 314 313 316 323 322 321 323 321 319 319 319 319 318 317 317 318 319 318 319 319 319 320 320 320 319
301 301 301 301 301 301 301 300 300 301 302 303 303 304 305 306 305 305 307 308 308 310 308 308 309 311 309 316 316 313 314 315 322 323 323 324 322 320 318 319 319 319 319 319 320 320 320 320 320 320 319 320 319 319
300 300 300 301 301 301 302 301 302 302 302 303 303 304 305 306 306 307 308 308 310 312 311 312 311 309 309 311 315 315 316 315 321 321 324 323 321 320 319 318 317 318 319 320 320 318 317 317 318 318 318 318 318 319
300 300 301 301 301 301 302 302 302 303 303 303 303 303 304 305 310 310 314 313 314 313 312 312 313 311 312 310 314 317 318 321 319 323 322 322 320 319 318 317 316 316 317 317 316 316 315 315 315 316 317 317 317 317
300 301 301 301 301 301 302 302 303 304 303 304 305 308 308 310 310 311 312 312 312 312 312 311 312 314 313 314 316 317 317 320 323 322 319 320 319 318 318 317 316 316 315 314 314 314 314 315 315 315 317 318 317 316
301 301 302 302 302 302 303 304 304 305 305 304 302 306 305 306 309 311 311 311 312 311 311 313 313 314 316 317 318 317 320 322 322 320 318 319 319 318 318 317 317 316 315 314 314 314 314 314 315 315 316 318 318 318
301 302 303 303 303 304 305 305 305 305 305 307 308 309 309 310 311 310 311 311 311 312 312 311 313 314 313 318 319 320 320 318 320 320 319 318 318 318 317 316 316 316 316 316 315 314 314 314 315 315 315 317 319 318
301 303 303 304 304 304 306 306 306 307 308 308 309 309 309 309 309 310 309 310 310 312 314 314 316 314 314 317 319 319 314 315 317 318 317 318 318 318 317 317 317 316 316 316 315 314 314 314 314 315 314 314 315 317
301 302 303 304 304 304 306 306 307 308 308 308 309 308 308 308 309 309 308 309 310 312 313 315 314 316 317 317 317 316 316 316 316 317 318 317 316 316 316 317 317 316 316 316 316 315 315 315 314 313 314 313 313 313
302 302 303 304 304 305 306 306 307 307 307 307 307 306 308 309 309 308 309 309 311 311 312 314 315 315 315 315 316 316 317 317 317 316 316 316 317 317 317 317 316 316 316 316 315 315 315 315 312 313 313 313 312 313
303 303 304 304 304 304 305 306 307 306 307 307 306 307 308 309 309 308 309 310 311 312 314 314 314 314 315 314 314 314 313 315 316 316 316 317 316 316 316 316 316 316 315 314 313 312 310 310 311 311 312 313 312 311
304 305 306 305 304 305 305 305 306 306 307 307 306 308 308 308 308 308 309 310 312 310 314 313 313 312 311 311 311 311 312 314 316 316 316 316 314 312 313 313 311 311 311 309 308 308 308 308 309 310 310 311 311 311
306 306 305 304 304 305 305 305 305 306 305 306 307 307 308 308 309 309 309 310 311 311 311 312 313 314 315 315 315 315 315 316 316 316 316 315 313 312 311 308 308 308 307 306 306 305 305 305 305 305 305 305 305 306
307 306 305 305 305 306 305 306 306 306 307 307 307 308 308 309 310 310 311 311 312 314 315 315 315 315 316 316 316 316 316 316 315 315 315 314 314 310 307 307 306 305 305 305 305 304 303 302 301 302 303 304 304 305
307 307 307 306 306 306 307 307 307 307 307 308 307 307 308 308 311 312 313 314 314 314 314 314 315 315 316 315 315 315 314 311 310 312 313 314 309 307 307 305 305 304 304 304 303 302 301 302 302 302 302 304 306 307
308 307 307 305 305 306 308 308 308 309 311 310 311 313 312 310 315 316 316 315 315 315 315 315 313 311 310 310 309 309 309 309 308 309 308 309 308 307 305 304 303 303 302 302 301 301 301 302 302 301 301 303 304 303
306 308 306 308 308 308 310 312 312 311 311 312 313 312 311 314 315 316 316 314 314 314 312 311 309 309 308 307 307 307 306 306 305 307 307 306 306 305 305 304 303 302 301 300 299 300 301 301 301 301 301 301 301 301
311 314 311 311 308 308 310 311 311 311 314 315 314 315 315 316 315 315 314 312 313 310 309 308 308 307 307 306 306 305 304 303 304 305 305 305 305 304 302 302 301 300 299 299 300 300 301 301 301 301 301 301 301 300
311 311 314 314 310 309 313 315 315 316 315 314 314 316 316 316 314 311 308 307 307 307 306 306 306 306 306 305 304 303 302 302 302 303 303 302 301 301 301 300 299 299 300 300 300 300 300 300 300 300 300 300 300 300
312 314 313 315 312 313 314 314 312 311 312 313 315 314 313 308 306 306 306 306 307 307 306 305 305 305 304 302 302 301 301 301 300 301 300 300 300 299 298 298 298 299 299 298 298 298 298 297 297 296 295 295 295 296
315 314 315 315 315 317 316 314 313 313 313 312 309 309 310 310 309 307 306 308 306 304 304 303 303 302 301 300 300 300 299 299 298 298 298 298 297 297 297 297 296 296 295 294 294 293 293 292 292 292 292 291 291 291
317 316 316 316 317 314 315 316 313 313 312 311 311 311 311 311 308 308 309 308 307 306 305 303 301 300 298 297 297 297 297 296 296 296 296 296 296 295 294 293 292 292 291 291 290 290 290 290 290 289 289 289 289 289
315 317 318 318 318 317 317 315 314 315 316 312 310 309 309 308 309 308 309 305 301 301 300 299 299 298 296 295 295 294 294 294 294 295 294 293 292 291 291 290 290 289 289 289 288 288 288 288 288 288 288 288 288 288
315 316 317 317 318 318 316 316 317 316 315 313 312 312 310 311 311 310 308 303 300 300 299 297 296 295 294 293 292 293 293 292 292 291 291 290 290 289 288 288 288 288 288 287 287 287 287 287 288 287 288 288 288 288

GFSWCAN_850_thetae_006.txt.gz
Theta_e
300 300 300 301 300 300 301 302 302 302 301 301 301 301 302 301 300 302 302 302 302 301 302 303 304 304 305 308 311 310 309 313 316 325 326 324 327 327 327 332 337 337 337 334 337 339 338 334 337 341 341 339 339 338
300 300 300 301 301 300 301 301 301 302 301 301 302 302 301 301 301 301 302 303 303 302 302 303 304 304 304 303 305 307 308 309 310 320 326 328 334 332 329 330 334 335 333 334 336 335 336 333 334 336 337 339 339 339
300 300 300 302 302 301 301 301 302 301 301 302 302 301 301 302 301 302 302 303 302 303 302 304 305 304 304 303 305 307 307 307 312 312 315 323 331 332 336 335 333 334 334 337 338 336 334 333 333 334 336 337 337 337
301 300 302 302 302 302 302 301 300 300 302 301 301 301 301 301 301 302 302 302 302 303 304 305 304 305 304 305 304 305 306 308 309 311 317 321 329 327 334 337 339 334 335 337 336 335 332 331 332 332 332 335 335 336
300 301 302 301 302 302 301 301 302 302 302 301 301 301 300 300 301 302 302 303 302 303 304 303 303 307 307 304 306 305 305 305 307 312 319 321 321 324 330 333 330 325 333 337 335 333 332 326 326 327 328 329 331 331
301 301 302 301 301 301 301 302 302 302 301 300 300 301 301 302 302 303 303 303 302 303 301 306 306 308 310 308 306 307 308 308 309 312 318 315 317 324 332 329 322 323 327 330 333 330 324 323 322 323 323 324 325 326
301 301 301 301 301 301 302 302 302 301 300 300 301 301 301 301 301 303 303 302 300 302 302 306 311 311 311 310 310 310 309 310 310 315 315 316 322 325 323 325 322 323 325 325 324 321 322 321 320 321 322 321 320 321
301 301 301 301 300 300 300 300 300 301 301 301 300 300 300 301 300 302 303 301 300 303 303 307 311 314 311 312 312 311 311 310 313 314 314 320 322 322 323 321 322 321 321 320 320 321 320 319 319 321 321 321 320 320
301 301 301 300 300 300 300 300 300 300 300 301 300 300 301 303 303 305 305 306 303 302 305 308 312 315 313 313 314 313 312 314 314 319 324 322 322 323 321 320 320 321 321 321 320 321 319 321 321 319 318 321 321 322
300 301 301 301 301 301 301 301 301 301 302 303 304 305 306 306 305 306 306 306 306 305 305 309 309 313 312 315 315 315 315 315 319 323 321 321 321 319 318 319 316 317 320 319 318 317 316 320 320 320 316 319 322 322
300 300 300 301 301 301 302 302 303 303 303 305 305 307 306 306 307 308 308 309 309 311 310 311 312 314 313 318 319 317 319 319 320 324 324 322 319 319 318 317 316 316 316 321 320 316 315 321 321 321 321 322 322 323
300 301 301 301 302 302 302 302 303 303 303 303 303 304 305 308 309 310 312 311 311 314 314 315 314 313 312 314 318 319 319 320 322 323 324 320 317 316 318 319 317 317 317 319 319 319 319 320 320 320 320 321 321 322
301 301 301 301 302 302 303 303 304 304 304 304 306 307 308 309 312 313 314 315 315 314 315 315 316 314 317 316 318 320 320 323 321 323 323 321 319 317 317 318 319 319 319 318 318 318 318 318 319 320 321 321 321 321
302 302 303 304 304 304 305 304 305 305 305 306 306 308 307 309 312 313 314 315 314 315 315 316 316 317 317 318 318 320 321 321 323 322 323 320 319 319 317 319 318 318 317 317 317 317 317 318 318 320 321 321 321 322
301 302 303 304 304 304 305 305 306 305 306 305 302 306 308 307 311 313 314 314 314 314 315 316 315 315 318 319 319 320 321 322 321 320 321 320 319 320 319 319 319 319 318 319 318 318 318 318 318 318 321 322 322 323
301 302 303 303 303 304 306 307 308 308 308 309 310 311 311 312 312 312 313 314 314 314 316 315 315 316 319 320 320 321 321 319 320 317 319 320 320 320 318 320 320 320 320 318 318 318 317 317 318 319 319 319 320 322
301 304 302 303 303 304 306 307 309 310 310 310 311 311 311 311 312 311 312 312 313 316 317 316 318 319 318 319 318 314 312 310 318 319 320 321 319 317 317 320 320 320 320 320 319 319 320 319 317 317 318 318 317 318
303 302 303 304 303 304 307 308 310 310 310 310 310 309 310 311 311 311 312 312 313 315 316 317 316 316 317 317 317 317 316 317 319 320 320 320 318 318 319 317 319 320 320 320 320 319 319 319 315 315 316 316 316 315
303 303 304 305 304 304 308 308 309 310 309 309 308 309 310 310 311 312 312 312 313 314 315 314 316 317 317 316 317 318 318 319 319 319 319 317 317 317 317 317 319 319 319 316 314 315 316 316 315 315 314 315 315 315
305 306 307 305 304 308 309 309 308 309 309 309 309 310 311 311 311 312 312 313 314 314 314 314 315 314 315 315 315 316 317 318 319 319 319 317 318 318 317 316 315 313 313 312 311 311 312 312 312 312 312 313 314 314
308 308 307 304 306 307 308 308 310 309 309 310 309 310 311 312 312 312 312 312 312 313 313 313 313 313 315 315 315 315 317 318 318 318 317 314 312 312 311 311 311 310 310 310 310 310 309 309 308 308 309 309 309 310
308 307 306 306 307 308 309 308 308 309 310 311 311 311 312 313 314 314 314 314 315 315 315 316 317 317 316 317 317 317 316 315 315 315 315 315 314 313 312 310 310 309 308 308 307 307 307 306 305 305 306 306 306 308
308 308 307 308 309 309 310 309 311 310 312 312 312 313 312 312 312 313 313 313 314 314 315 315 315 315 315 315 314 314 314 314 315 314 314 314 313 310 309 308 308 308 307 307 306 306 305 304 304 303 304 304 306 307
308 308 308 309 309 312 311 313 312 313 313 313 311 312 313 313 313 314 316 315 314 315 315 315 313 313 313 311 311 310 310 310 310 312 312 310 310 310 309 308 307 306 306 306 305 305 304 304 303 303 303 303 305 306
310 309 310 309 310 313 315 316 315 315 317 316 317 317 317 315 317 317 317 316 315 315 313 312 311 310 310 310 309 308 308 307 307 308 309 309 309 309 309 308 307 305 304 304 303 303 302 302 303 303 303 303 303 302
310 313 312 315 316 316 317 318 318 317 317 318 317 317 317 317 316 316 316 315 314 313 311 310 309 309 308 307 307 306 305 304 306 306 307 306 306 307 307 306 306 305 302 302 302 302 302 302 302 303 302 302 302 302
317 319 317 313 313 313 317 316 316 317 318 318 318 318 316 316 316 314 311 310 308 308 308 308 307 307 306 305 304 303 302 302 304 304 304 304 303 302 302 302 302 301 301 301 300 301 301 301 301 301 301 301 301 301
317 317 319 318 316 315 317 317 317 317 316 317 316 317 317 316 313 310 308 308 308 307 306 306 305 305 305 304 303 302 301 300 301 301 302 303 302 301 300 300 300 299 299 299 298 298 297 298 298 298 298 297 297 297
318 318 317 320 318 317 318 317 316 315 314 316 317 316 311 308 307 306 305 305 306 306 307 306 304 304 303 302 301 300 300 299 299 299 299 300 299 299 298 297 297 296 296 295 295 294 293 292 293 293 293 294 294 294
319 318 319 319 319 319 319 318 316 314 312 312 311 309 308 307 307 307 307 306 305 305 304 303 302 301 301 300 298 298 298 298 298 297 298 297 297 296 295 294 293 293 293 293 293 292 292 291 292 292 292 292 292 291
319 319 319 319 318 318 318 315 314 314 313 311 309 309 309 309 307 307 306 304 303 303 303 302 301 300 298 297 297 296 296 296 295 294 293 294 293 293 292 292 292 291 291 291 291 291 291 291 291 291 291 291 290 290
319 319 319 318 318 319 318 317 317 314 312 310 310 311 311 311 311 310 305 304 303 303 301 300 299 297 296 295 295 295 293 293 291 291 290 290 290 289 290 290 290 290 290 290 290 290 290 290 290 289 289 289 289 289
318 316 316 316 315 315 318 318 318 317 315 314 314 313 313 312 311 309 304 302 301 300 299 298 297 295 294 294 293 293 293 292 291 290 289 288 287 287 288 288 288 289 289 289 289 289 289 289 289 289 289 289 288 289

GFSWCAN_850_thetae_009.txt.gz
Theta_e
301 301 301 300 301 302 302 302 301 302 302 302 301 302 302 302 302 302 303 303 302 302 303 304 304 305 305 307 309 310 312 311 313 317 319 319 319 321 324 327 329 329 332 332 334 335 336 338 338 339 344 341 341 342
301 301 300 301 302 302 303 301 301 302 302 301 302 302 302 301 302 301 302 302 302 300 303 305 305 305 306 306 307 308 310 310 313 319 322 323 329 331 328 329 328 332 331 333 333 336 342 339 338 338 338 340 341 341
300 301 302 302 302 303 302 302 302 301 300 301 302 302 302 301 301 302 303 304 302 304 304 305 306 307 306 305 305 306 308 310 311 313 314 319 327 332 336 331 330 333 332 336 340 341 340 338 337 338 339 340 340 341
300 301 302 302 301 301 301 301 302 302 302 302 302 301 301 302 302 302 303 302 302 303 306 306 306 306 306 306 306 305 308 310 311 311 314 321 324 325 332 334 341 332 332 338 342 340 338 336 336 337 339 339 340 341
301 301 301 301 301 301 301 301 302 302 302 301 300 300 301 300 301 303 302 303 304 303 306 306 305 307 306 305 307 306 306 308 309 312 315 322 321 323 329 334 328 327 330 342 342 338 336 333 332 334 334 334 336 338
301 301 301 301 300 301 301 301 301 301 301 300 300 302 301 302 302 304 305 303 304 304 305 307 308 310 312 307 309 308 308 309 310 311 314 319 320 322 330 331 326 327 329 334 336 333 327 325 325 326 327 329 330 331
301 301 300 300 301 300 300 300 301 301 301 301 301 301 300 300 302 304 305 304 302 304 304 307 311 312 314 310 310 311 311 311 311 311 315 319 319 319 325 327 326 326 328 328 329 328 326 324 323 323 323 322 322 323
300 301 301 301 301 300 301 301 301 300 300 301 301 300 300 300 301 304 305 304 302 304 304 307 311 315 313 314 314 313 312 311 313 312 318 318 318 323 324 322 322 323 324 324 324 326 325 324 323 321 321 322 322 322
300 300 301 301 301 301 301 302 302 302 302 302 302 302 303 305 305 307 305 306 303 303 305 307 311 315 314 314 313 312 312 315 315 317 321 320 319 323 321 320 322 322 321 323 322 321 321 320 318 320 320 319 323 323
300 301 301 301 302 302 302 302 303 304 304 305 306 307 308 308 304 306 307 306 304 306 304 309 312 315 315 315 314 314 314 315 319 320 317 320 319 318 319 319 320 318 318 319 320 321 320 319 317 321 318 316 320 322
301 301 301 302 302 303 303 303 303 304 306 307 308 308 308 308 309 310 310 311 311 312 311 314 315 318 316 319 318 317 320 318 321 320 323 318 318 319 317 317 318 322 320 317 316 317 317 317 318 315 318 323 318 324
302 302 303 304 304 304 304 305 304 305 307 305 305 305 308 310 311 312 313 313 314 313 315 316 317 315 315 316 320 320 321 320 323 321 319 319 317 318 318 316 316 316 318 319 319 321 321 321 321 322 322 322 323 323
302 302 302 303 304 304 305 305 305 305 305 307 308 309 309 311 314 313 315 316 317 316 317 316 319 317 318 318 319 322 321 322 321 322 319 318 316 319 317 318 319 319 318 316 318 319 319 320 321 322 322 322 322 323
301 302 303 303 303 304 306 306 307 306 309 309 308 311 309 313 313 315 316 317 316 316 317 318 318 320 319 319 322 320 322 321 322 322 322 319 318 318 320 319 318 318 319 318 318 318 318 319 321 323 323 323 323 324
301 302 303 303 304 304 306 307 309 309 309 307 306 308 311 312 313 314 314 315 315 315 317 317 318 317 319 320 321 321 321 321 319 322 320 318 318 318 319 319 319 318 318 318 318 318 318 318 319 320 322 323 323 324
301 306 306 303 303 303 306 309 311 312 312 311 311 313 313 314 314 314 314 315 315 317 317 317 318 319 320 319 320 318 320 318 316 320 319 318 317 318 319 319 320 319 318 318 318 317 318 318 319 319 318 319 320 321
303 307 303 303 303 304 308 311 312 312 312 311 312 310 311 312 314 314 315 315 316 317 319 318 320 320 318 319 318 313 314 313 316 316 319 319 318 318 318 318 320 319 320 319 319 319 320 318 318 318 318 317 318 318
304 305 305 305 304 307 311 310 312 310 310 310 311 311 312 312 314 314 315 315 317 317 317 319 317 319 320 319 318 318 317 319 318 318 320 320 320 318 318 320 318 320 320 319 319 319 319 318 316 316 316 317 317 316
305 307 307 306 304 310 310 310 311 311 311 310 311 312 312 313 314 314 315 315 316 315 316 317 317 318 320 318 319 319 320 321 321 321 321 321 319 321 321 321 320 318 316 316 316 316 316 316 315 315 315 315 315 316
308 309 307 306 308 312 311 311 311 311 311 312 312 312 313 313 314 314 314 314 314 314 315 315 316 316 316 317 318 319 320 321 321 320 318 318 317 316 316 316 316 316 315 314 313 312 313 313 312 311 311 312 313 313
311 309 308 310 311 311 312 311 312 311 312 313 312 313 313 314 315 315 316 315 315 316 317 317 318 318 318 319 319 319 319 319 319 319 317 315 315 314 314 314 313 313 313 312 312 311 310 309 308 308 308 309 309 309
310 310 311 311 313 313 314 313 312 312 313 313 315 314 314 315 315 315 316 316 316 317 317 317 317 318 317 317 316 316 316 318 318 318 318 317 315 315 314 312 312 312 311 310 309 308 308 307 306 306 306 306 307 308
311 310 313 313 314 314 315 315 315 315 316 315 315 316 315 316 314 314 314 315 315 314 315 314 315 315 314 313 312 312 311 312 313 314 314 313 313 312 312 311 310 309 309 308 308 307 307 305 306 305 306 305 306 307
311 311 313 314 316 317 317 318 317 317 316 317 318 318 318 318 317 317 317 316 315 314 315 314 313 313 312 311 311 310 309 309 310 311 311 310 311 312 311 310 310 309 307 307 306 306 305 305 304 305 305 305 305 305
313 313 316 316 318 319 318 318 318 317 318 318 319 319 318 318 317 317 317 316 315 313 312 312 312 311 310 309 309 307 306 306 308 308 308 308 308 309 309 309 308 307 306 305 305 304 304 304 304 304 304 305 304 304
317 319 316 318 318 319 318 318 318 318 318 318 318 317 318 318 317 317 314 312 311 311 311 310 310 310 309 307 306 305 304 304 306 307 306 305 305 305 305 305 306 305 303 303 302 302 302 302 302 303 303 303 303 302
319 319 320 319 318 318 319 319 318 318 318 318 318 318 317 318 316 311 310 309 309 309 308 308 308 308 307 307 305 304 303 303 303 303 304 305 304 303 302 302 302 300 300 300 299 299 299 298 298 299 299 299 299 299
320 320 321 320 320 319 319 318 317 317 317 317 317 318 317 315 312 308 309 309 309 309 308 308 307 305 305 304 303 302 302 302 301 302 302 303 302 301 300 299 298 297 297 296 296 296 295 294 294 295 295 296 296 296
320 320 321 320 320 319 319 319 317 317 316 316 318 315 311 310 309 308 308 308 307 307 306 305 305 304 303 301 301 300 300 300 299 299 300 300 299 298 297 296 296 295 295 295 295 294 293 293 293 293 294 294 295 295
319 319 320 319 320 320 318 317 317 316 314 313 310 309 308 308 308 308 308 309 308 306 306 305 304 302 300 299 299 299 298 297 296 296 295 296 295 295 294 294 294 294 294 294 294 294 293 293 293 294 293 293 293 292
318 317 318 319 319 318 317 317 316 315 313 312 312 310 310 310 311 310 307 307 306 305 304 302 301 299 298 298 298 297 296 296 294 293 291 292 292 292 292 293 292 293 293 293 293 293 293 293 292 292 292 291 291 291
317 317 317 318 319 319 318 318 317 316 315 314 313 313 312 312 312 308 306 304 304 303 301 301 299 298 297 296 296 296 294 295 294 292 290 289 289 290 291 291 291 291 292 292 292 292 292 292 291 291 291 291 290 290
317 316 316 316 316 315 318 319 319 317 315 314 315 314 313 312 311 308 306 304 302 301 300 299 298 297 296 295 295 294 294 294 293 291 290 289 289 289 290 290 290 291 291 292 292 291 291 291 290 290 290 290 290 290

GFSWCAN_850_thetae_012.txt.gz
Theta_e
301 301 302 302 302 302 303 302 302 301 302 302 302 301 302 302 303 302 303 304 304 302 303 304 305 306 306 306 308 309 308 314 312 312 315 316 319 321 323 327 329 329 328 333 338 340 342 338 337 339 344 341 340 339
301 301 301 302 302 301 301 301 301 301 301 301 301 302 302 302 302 302 303 304 304 305 303 304 305 306 306 306 307 307 309 309 313 315 318 320 321 324 325 325 325 327 327 328 332 334 339 341 343 341 340 340 340 339
301 301 301 301 301 302 301 301 302 302 302 302 302 302 302 302 301 302 303 303 304 302 304 305 307 307 308 308 306 307 307 309 311 313 316 319 323 327 329 327 333 329 331 331 331 336 341 339 338 339 339 341 341 346
301 301 301 301 301 301 301 302 302 302 302 302 301 301 301 301 301 301 303 303 304 303 305 305 307 308 308 308 308 307 306 308 311 313 313 317 323 321 323 324 331 333 333 338 335 344 341 341 341 341 340 344 346 345
301 301 301 301 301 301 300 300 301 301 301 300 300 301 302 302 303 302 303 303 304 303 305 305 306 308 309 307 308 308 307 307 309 311 315 318 320 321 324 325 325 327 332 335 345 334 342 338 338 338 338 339 339 339
301 301 301 301 301 300 301 301 301 301 301 301 301 301 301 301 301 304 305 304 304 305 305 307 307 309 311 309 307 308 308 308 309 312 314 312 318 320 324 328 327 328 330 334 329 327 328 328 328 333 333 332 333 333
300 300 301 301 301 301 301 302 302 302 302 301 301 301 300 300 300 304 305 305 303 303 306 307 310 312 313 308 309 310 309 310 312 313 313 313 319 319 324 326 325 326 327 327 326 326 325 324 326 325 325 326 326 327
301 301 301 302 302 302 302 302 302 303 303 302 301 301 301 301 302 305 306 305 304 304 304 308 310 312 314 312 313 313 312 312 314 314 313 320 320 320 324 323 324 323 326 327 327 325 325 324 324 323 324 325 325 325
301 302 302 302 303 304 304 304 304 304 304 304 305 305 306 306 306 308 306 305 305 304 306 308 310 316 311 314 315 313 313 313 316 316 319 318 316 321 321 323 322 322 324 324 324 323 323 321 321 321 321 323 324 323
302 302 303 304 304 304 304 305 305 304 305 308 308 309 310 310 308 307 306 306 305 305 305 308 310 313 313 314 315 314 314 317 319 319 317 318 318 317 319 318 319 320 321 322 320 319 319 319 321 320 318 320 320 321
302 302 302 303 304 304 304 305 306 306 308 309 309 310 309 309 310 310 311 311 310 311 310 312 315 318 316 319 320 318 320 321 320 317 320 317 316 318 318 320 318 318 318 319 320 321 319 319 319 319 319 318 321 324
301 301 302 303 303 304 304 307 306 307 308 306 307 308 310 312 312 311 311 309 309 309 310 316 317 317 316 317 318 318 321 320 319 319 318 315 316 317 317 318 319 318 319 320 321 321 322 323 321 319 318 319 322 324
301 301 302 303 303 304 304 307 308 307 308 310 310 312 312 313 314 315 317 317 318 315 318 318 319 315 317 316 319 318 320 322 319 320 318 315 314 317 318 317 316 318 318 319 319 320 321 322 322 323 323 322 323 324
301 301 303 304 303 304 304 308 310 310 310 311 311 314 312 314 313 315 317 319 317 314 315 318 320 317 317 320 320 319 320 322 323 322 319 318 318 319 320 319 319 319 319 319 319 320 321 323 323 323 323 324 324 325
301 303 307 306 304 304 306 310 312 312 312 312 312 316 316 314 315 316 316 316 317 317 319 319 319 318 320 321 321 320 322 321 319 322 319 317 317 321 320 319 319 319 318 318 318 319 319 320 319 322 322 322 323 323
302 305 309 306 304 305 310 313 314 315 315 315 314 314 313 314 315 316 316 317 318 319 318 318 319 319 319 319 318 316 319 317 315 318 317 317 319 318 318 320 319 318 319 319 319 319 319 319 319 318 318 319 320 322
304 309 307 307 305 308 311 313 314 313 312 312 312 312 314 315 316 316 316 317 317 318 321 319 320 320 318 316 315 314 315 315 317 317 318 318 317 317 318 320 320 320 320 319 320 319 319 319 319 318 319 318 319 321
307 308 308 307 306 312 312 312 314 312 312 312 313 314 314 315 316 316 316 316 317 318 318 319 317 318 319 319 318 318 318 316 318 318 317 317 317 317 317 317 320 319 318 319 317 318 317 316 316 315 316 316 317 317
309 309 308 307 311 313 312 312 313 312 313 313 313 314 315 316 316 317 316 316 316 316 317 317 318 319 320 320 321 320 321 321 320 320 319 318 319 319 320 320 318 316 315 315 315 316 315 314 313 313 313 314 314 314
311 310 308 312 312 314 313 313 313 313 313 314 314 315 316 316 317 316 316 317 316 317 318 319 321 319 319 319 319 320 320 318 317 317 317 317 317 316 316 316 316 315 315 314 313 312 312 311 310 310 310 310 311 311
314 312 313 314 315 314 314 313 314 313 314 315 316 316 316 316 316 317 317 317 317 318 319 318 318 316 315 315 316 317 317 318 317 318 317 317 316 315 315 314 314 314 313 312 311 310 310 309 308 308 308 308 308 310
313 312 315 316 317 316 316 316 315 315 316 317 316 317 316 316 316 315 315 315 314 314 315 315 315 314 313 312 310 311 313 316 317 315 316 316 315 314 313 312 312 312 311 310 310 309 308 307 306 307 308 307 307 309
313 314 317 317 317 317 318 318 318 317 317 317 318 318 317 317 317 315 313 314 315 315 315 314 315 313 313 311 309 308 309 310 312 313 312 311 313 313 312 312 312 311 310 309 308 308 307 306 306 306 307 307 307 307
313 315 317 319 319 319 319 318 318 318 319 319 319 319 319 319 318 317 318 315 314 313 312 312 312 312 311 310 309 308 307 308 310 310 309 309 310 310 311 311 310 308 308 308 308 307 306 305 305 306 306 306 306 306
317 317 320 318 321 319 319 319 318 318 319 318 319 320 320 319 318 317 316 313 312 311 311 311 311 311 310 310 309 307 306 306 306 308 308 307 307 307 307 307 307 305 304 305 304 303 303 303 303 303 304 304 303 303
316 321 318 318 319 319 319 318 319 319 319 318 319 318 317 320 317 316 313 312 311 311 311 311 310 310 309 308 306 305 305 305 305 305 305 306 306 305 304 304 303 301 301 302 300 299 300 300 298 298 299 300 300 300
319 320 321 321 320 320 320 320 318 318 319 319 320 319 319 318 315 310 310 311 311 311 311 310 308 307 306 305 304 304 304 303 303 303 304 305 303 302 301 301 299 298 298 298 297 297 297 297 296 296 297 297 298 298
322 323 319 313 320 318 317 319 319 319 318 318 319 319 317 315 311 310 310 310 310 309 309 308 307 306 304 303 302 302 302 301 300 300 302 302 301 299 298 298 297 296 297 296 296 296 295 295 295 295 296 296 296 296
322 320 321 321 319 319 318 318 317 316 315 317 319 316 313 311 310 310 310 310 310 310 308 306 305 304 302 301 301 300 300 299 297 297 297 297 297 296 296 296 296 296 296 296 295 295 294 294 294 295 295 294 294 294
319 319 320 318 319 320 318 317 316 315 314 313 311 311 311 311 311 311 311 309 308 307 306 305 303 301 300 300 299 299 298 297 296 295 294 294 294 294 294 295 294 294 294 295 295 295 294 294 294 294 294 293 293 292
318 318 319 319 319 318 317 317 316 315 314 313 313 312 312 312 312 309 308 306 305 304 303 302 301 300 299 299 298 298 297 297 296 294 292 292 292 293 293 293 293 294 294 294 294 294 294 294 293 293 293 292 292 292
318 317 317 318 320 319 319 319 318 317 316 315 314 313 313 313 313 310 308 306 304 303 301 301 300 300 299 298 297 297 295 296 294 292 291 291 291 291 292 292 293 293 293 294 293 293 293 292 292 292 292 292 291 291
317 317 317 317 317 318 320 321 320 318 316 315 315 315 314 313 311 308 307 306 303 302 300 299 299 299 298 297 296 296 296 295 294 293 292 291 291 291 291 291 291 292 292 292 292 292 291 292 292 291 291 291 291 291

GFSWCAN_850_thetae_015.txt.gz
Theta_e
301 301 301 301 301 301 301 301 302 302 302 302 301 301 301 302 302 303 303 303 304 303 303 303 304 305 306 306 308 308 308 308 310 314 314 315 316 318 322 322 324 326 330 330 333 333 335 339 337 338 339 343 340 339
301 301 301 301 301 301 301 301 302 302 302 302 302 302 302 302 302 302 302 303 304 305 304 303 304 306 305 305 307 307 308 308 308 315 315 317 317 320 323 327 324 327 330 334 330 337 340 332 330 337 335 340 342 347
301 301 301 301 301 301 300 300 300 301 301 301 301 301 301 301 301 302 302 303 303 303 304 304 305 306 306 307 307 307 306 308 308 312 315 317 320 321 324 326 329 327 329 336 337 330 336 335 330 340 347 344 347 348
301 301 301 301 301 301 301 301 301 301 301 301 300 300 301 302 302 303 302 303 304 303 304 304 305 305 307 307 307 308 307 306 307 307 312 315 318 320 325 323 326 329 328 332 335 331 333 340 341 343 343 338 341 342
301 301 301 301 301 302 302 302 302 302 302 302 301 301 301 301 301 301 302 304 304 304 304 304 305 308 308 309 307 308 308 307 307 310 313 316 317 319 322 324 326 326 330 333 336 327 329 327 333 337 336 337 335 337
301 301 302 302 302 302 302 303 304 303 303 303 303 302 301 301 300 302 305 304 304 304 304 307 306 308 311 312 308 309 309 308 307 310 314 315 314 318 323 321 322 326 329 332 330 327 325 324 325 328 329 330 331 329
302 302 303 303 304 304 304 304 305 305 304 304 303 302 302 301 301 302 304 305 304 303 304 307 307 310 311 312 308 308 309 308 309 311 314 315 315 318 323 322 320 326 327 326 326 326 326 324 324 325 326 325 326 328
302 303 303 303 303 303 304 304 305 305 305 305 305 304 305 304 304 305 307 306 305 305 305 307 308 311 311 313 311 310 310 312 313 314 313 314 315 318 323 323 323 324 326 326 325 324 324 325 326 325 325 324 325 326
302 302 302 302 302 303 304 304 305 306 307 306 308 308 307 307 307 308 308 307 306 305 306 307 309 312 310 312 313 314 313 313 314 315 313 315 316 321 321 320 322 323 322 323 322 322 322 322 322 322 323 324 324 324
302 301 301 301 302 303 304 304 306 307 307 309 309 310 310 310 309 308 308 307 306 305 304 307 307 311 311 314 315 315 315 316 318 316 316 316 317 317 318 320 321 321 321 320 320 320 321 320 320 322 323 323 323 322
301 301 301 301 302 304 304 305 307 308 308 309 309 310 310 310 310 309 308 308 309 309 308 309 312 314 312 315 317 316 318 319 315 317 318 314 316 315 318 319 321 321 319 319 318 319 319 320 320 319 319 320 319 320
301 300 301 302 304 304 304 305 309 308 307 307 309 309 311 313 312 311 311 307 306 311 311 313 314 315 317 316 316 316 319 317 317 318 316 315 316 316 317 318 319 319 320 321 321 322 321 320 321 320 321 322 322 323
300 301 302 303 306 305 305 306 311 310 310 311 312 313 312 312 312 314 311 314 311 313 316 317 317 313 315 316 317 315 317 321 319 318 313 314 314 315 318 319 319 319 319 320 321 322 322 323 324 324 323 323 324 326
302 302 302 305 306 306 305 309 313 312 312 312 312 310 315 316 314 315 316 316 314 315 316 317 319 317 315 319 318 320 321 321 321 318 316 317 318 319 318 316 319 320 320 321 322 321 322 322 320 322 324 324 324 325
304 304 304 308 307 306 309 312 314 315 314 315 314 310 317 316 316 317 318 318 318 319 320 320 320 318 320 321 319 319 320 319 318 318 318 318 318 319 319 319 318 316 318 320 320 319 320 321 320 319 321 323 322 322
307 307 309 309 307 308 312 313 315 316 315 314 314 316 316 317 317 317 318 317 318 318 319 319 320 319 318 315 316 316 317 316 316 318 318 317 317 319 319 320 320 320 320 319 319 319 318 318 318 319 320 320 321 322
309 309 309 308 306 310 312 312 315 314 312 314 315 315 316 315 317 318 318 318 318 318 318 319 319 320 315 315 316 316 317 317 317 317 317 317 317 316 319 319 319 320 319 318 316 319 315 315 317 315 316 317 319 320
310 309 308 311 311 313 313 313 314 313 314 315 316 317 317 317 318 318 318 318 317 318 318 318 317 318 319 320 319 317 316 318 317 317 316 317 317 317 319 317 317 317 315 317 314 313 313 313 311 311 312 313 313 315
311 310 312 313 314 314 315 313 314 314 315 315 316 317 317 317 317 318 318 318 317 317 317 318 319 319 320 318 318 317 317 317 317 317 318 318 317 317 318 316 315 314 313 312 311 311 310 309 309 309 309 310 310 311
313 313 314 314 314 315 315 314 314 314 315 315 316 316 317 316 316 315 315 316 316 316 315 316 317 316 316 316 316 317 317 317 317 316 315 316 316 316 315 314 314 313 311 310 310 309 309 308 308 308 308 308 309 310
314 314 315 316 316 316 315 315 315 315 316 317 317 317 317 315 315 315 314 314 315 316 316 315 314 311 309 308 309 310 313 317 317 314 315 316 316 314 313 313 312 311 311 310 309 307 307 306 306 307 308 307 308 308
313 316 317 318 318 318 318 318 317 318 317 318 317 317 317 316 315 314 315 315 315 314 314 314 314 313 309 308 308 308 309 312 312 311 310 313 313 312 311 312 311 310 309 309 308 307 306 306 306 306 307 307 307 307
314 316 319 319 319 319 318 319 319 319 319 319 318 318 318 318 317 315 315 314 314 314 313 313 313 311 310 309 308 307 307 307 310 309 308 309 310 311 309 308 307 306 307 306 305 305 305 305 305 305 305 306 306 306
314 315 319 320 322 318 320 320 320 320 319 320 321 320 320 318 316 315 315 313 312 312 312 312 311 310 309 309 307 306 305 305 306 308 307 308 308 308 307 307 305 303 303 303 303 302 302 302 302 303 301 301 303 304
318 318 320 319 320 321 319 319 319 319 320 320 320 319 315 316 317 315 314 312 312 312 311 311 309 309 308 306 305 305 304 304 304 305 306 307 306 305 304 302 301 300 300 300 299 299 299 299 298 298 298 298 299 300
312 322 320 320 317 321 322 321 321 320 320 320 321 318 317 318 316 314 313 312 312 312 311 310 309 307 305 304 304 304 303 302 303 302 304 304 302 301 300 299 298 298 298 298 297 297 297 296 296 297 297 298 298 298
321 319 316 316 317 316 318 319 320 318 319 319 320 319 319 315 313 312 312 312 311 310 310 309 308 305 303 302 302 302 301 300 300 300 301 300 299 298 298 297 297 296 297 297 296 296 295 295 296 296 296 296 296 296
317 314 319 318 317 318 320 319 317 317 316 317 318 317 316 313 312 311 311 311 310 310 309 307 304 303 301 301 301 300 299 298 298 297 297 296 296 296 296 296 296 296 296 296 295 295 294 295 295 295 295 295 294 294
321 318 319 321 320 318 318 317 316 314 314 315 316 314 312 312 312 311 311 311 309 308 305 304 302 301 300 300 300 299 298 297 296 295 294 294 294 294 295 295 295 295 295 295 295 295 294 294 294 294 294 294 293 293
320 320 320 320 318 319 317 317 315 314 313 311 311 312 312 312 311 311 308 306 305 304 303 302 302 301 300 299 299 298 297 296 294 294 293 293 293 294 294 294 294 294 294 295 295 295 294 294 294 293 293 293 292 292
318 317 319 320 320 318 318 317 316 315 315 314 313 313 313 313 312 309 308 306 305 303 302 301 301 300 300 299 298 297 297 295 294 294 292 292 292 293 293 293 293 293 293 294 294 293 293 293 293 292 292 292 292 292
319 317 317 319 321 320 320 319 318 317 317 316 315 315 314 314 313 310 308 307 304 303 301 300 300 300 299 298 297 297 296 296 294 293 293 292 292 292 292 292 292 292 292 293 293 292 292 292 292 292 292 292 292 292
317 318 318 317 319 320 321 321 320 318 317 316 316 315 314 313 311 309 306 304 303 302 300 299 299 299 298 297 296 296 296 295 294 294 293 293 292 292 292 292 292 292 292 292 292 292 292 292 292 292 292 292 292 292

GFSWCAN_850_thetae_018.txt.gz
Theta_e
301 301 301 300 301 301 300 301 300 300 301 301 301 301 301 301 302 302 302 302 303 303 303 303 303 303 303 304 304 305 307 306 306 310 314 312 312 315 319 322 324 325 329 331 331 326 331 332 333 329 329 341 339 338
301 301 301 301 301 301 301 301 301 301 301 301 301 300 300 300 301 302 302 302 303 304 304 303 303 303 304 303 304 305 306 307 307 308 311 314 314 316 317 323 324 328 328 329 332 331 330 333 331 341 346 346 346 346
301 301 301 301 302 302 302 302 302 302 302 302 302 301 301 301 302 302 302 302 302 303 303 303 304 304 304 304 305 304 304 305 307 307 308 309 315 317 316 324 326 326 326 332 329 331 331 329 337 341 341 341 342 345
301 302 302 303 303 303 304 304 304 304 304 304 303 303 302 301 301 301 301 301 303 303 302 303 303 303 304 304 305 305 307 307 306 308 307 308 313 314 319 322 324 326 327 331 332 329 329 328 332 335 337 337 340 342
302 303 303 303 303 303 303 303 303 304 304 305 304 304 304 302 301 301 300 303 304 303 304 303 303 307 306 309 310 306 306 306 306 307 308 310 313 315 319 321 325 325 328 332 332 326 326 326 330 329 329 330 330 334
303 303 302 302 302 302 302 303 304 304 305 305 305 304 303 302 301 301 303 304 304 304 303 303 303 306 309 311 312 311 307 306 307 306 308 313 313 313 318 321 319 321 328 329 327 326 325 324 324 326 328 329 329 328
302 302 302 301 301 301 302 304 304 305 306 307 306 305 305 304 304 303 302 304 304 304 303 305 304 306 310 312 310 309 308 308 308 308 312 313 314 314 319 320 319 324 326 326 326 326 325 324 323 324 326 328 329 330
302 302 301 301 301 301 302 304 305 305 308 308 307 306 307 307 306 307 307 307 303 303 304 306 306 308 310 312 312 311 308 309 312 312 313 313 313 317 322 320 321 323 325 323 325 326 324 324 325 325 325 326 328 330
302 301 301 301 301 302 303 305 305 308 309 308 309 310 309 308 308 308 308 308 306 305 305 306 309 311 310 311 311 311 311 313 312 313 313 313 316 320 318 320 322 321 323 322 322 323 324 324 324 325 325 323 326 328
301 301 300 301 301 302 305 306 306 310 309 308 310 310 310 310 309 309 308 307 306 305 304 305 306 309 309 313 313 314 313 313 314 314 314 313 316 315 319 320 321 321 321 321 321 320 321 322 323 324 323 323 322 325
300 300 300 301 302 303 306 305 307 311 310 309 310 309 309 310 309 309 307 306 307 308 305 305 307 309 309 314 315 314 316 315 313 316 314 313 315 316 318 320 318 319 319 319 319 319 320 320 321 319 319 320 321 319
301 301 302 302 303 305 307 305 309 312 312 310 310 310 312 312 311 309 306 304 304 308 310 311 312 312 314 314 315 315 314 313 318 316 315 313 312 315 317 319 319 319 320 321 320 320 322 322 320 322 323 325 324 321
305 304 304 304 305 306 306 307 311 313 313 312 312 313 312 312 314 307 311 312 312 310 311 314 317 313 314 314 314 313 320 320 317 313 311 310 312 317 318 319 319 320 320 322 322 323 323 323 324 324 325 324 325 325
308 308 307 306 307 306 307 310 313 314 314 314 313 309 312 314 315 316 318 318 318 316 315 315 317 316 315 318 318 322 319 317 318 316 314 317 316 317 318 319 320 321 318 321 320 319 322 323 323 323 323 323 323 322
310 310 308 308 307 307 312 312 313 315 316 315 313 314 315 315 315 317 317 317 317 317 319 318 317 317 315 316 314 317 317 316 315 318 319 318 318 319 319 319 317 318 319 319 320 320 319 320 320 320 321 321 320 321
310 309 308 308 306 310 312 314 314 315 315 314 315 316 316 316 317 318 318 318 317 317 317 317 317 317 316 315 316 316 316 315 317 318 317 318 318 318 319 318 317 317 315 314 316 315 313 313 314 316 319 321 321 318
310 309 309 311 308 312 312 313 314 315 313 314 315 316 317 317 317 316 315 316 317 317 317 317 318 316 315 316 316 315 318 317 317 317 317 317 318 318 318 317 317 314 311 311 311 311 311 311 312 313 312 315 315 314
311 310 312 313 312 312 313 313 314 314 315 315 316 317 316 315 315 315 314 314 315 316 317 318 317 317 315 317 317 316 317 317 317 318 318 318 318 317 315 313 313 311 311 311 310 309 309 309 308 309 309 310 311 310
313 314 314 314 314 315 315 314 314 315 315 316 315 315 314 314 314 314 314 313 312 312 313 315 315 314 316 316 317 316 316 317 317 317 316 315 315 316 315 311 310 310 309 309 309 308 307 308 307 307 308 310 309 310
314 315 315 316 315 315 315 314 315 314 315 316 315 315 315 315 315 314 314 314 314 312 310 311 311 311 309 307 309 315 315 311 313 314 315 315 315 315 314 312 310 309 308 307 307 307 307 306 307 307 307 308 308 308
314 315 317 318 318 316 316 315 316 316 316 317 316 315 314 313 313 314 314 314 313 313 314 312 309 308 307 307 308 310 309 309 310 312 313 310 311 313 310 309 308 308 307 306 306 306 306 306 307 307 307 306 307 306
314 316 318 318 319 318 318 318 318 318 317 317 317 316 316 315 314 314 312 312 312 312 312 311 311 310 306 306 305 306 308 308 307 309 311 310 308 308 306 306 306 304 304 303 303 303 303 303 305 305 305 306 306 306
313 315 318 319 319 318 318 319 319 319 317 318 317 317 316 316 314 313 313 313 312 311 310 309 309 307 307 305 305 305 305 305 306 308 308 307 307 305 304 304 304 303 302 300 301 302 302 302 301 302 302 301 301 305
314 315 317 318 320 319 320 320 319 319 319 318 316 317 316 316 314 313 312 312 312 310 309 308 308 306 305 304 303 303 303 303 304 305 306 304 303 302 301 300 299 299 299 299 298 298 299 299 298 298 298 298 299 300
317 318 320 318 318 318 320 318 318 318 318 317 317 316 313 315 312 311 312 312 311 310 309 309 307 303 304 304 303 302 302 302 304 301 301 301 300 299 299 299 298 297 297 297 297 297 297 296 296 297 297 297 297 296
313 319 319 317 316 317 318 318 318 320 318 318 317 316 316 315 313 311 311 312 311 310 310 309 304 302 302 302 301 300 300 300 300 299 298 298 297 297 296 297 297 297 296 296 296 296 295 295 296 296 295 295 295 294
314 318 317 316 317 316 318 318 319 316 315 316 317 316 313 313 312 310 310 310 310 310 306 305 302 301 301 300 300 299 299 298 297 296 296 296 296 296 296 295 295 296 296 295 295 295 294 295 295 294 294 294 294 293
317 316 317 319 318 318 319 316 315 313 313 314 316 313 312 311 309 310 310 311 310 310 305 302 301 300 300 299 299 298 298 298 297 296 294 294 294 295 295 294 294 295 295 295 294 294 294 294 294 294 294 293 293 293
320 319 318 320 319 319 318 316 315 314 312 315 313 311 312 311 310 311 309 305 304 304 302 302 300 300 299 299 298 298 297 297 296 295 293 293 293 293 294 294 294 294 294 295 294 294 294 294 293 293 293 292 292 292
320 320 320 321 318 317 317 316 315 313 312 310 310 311 311 310 310 311 307 305 303 302 301 301 300 300 299 298 297 297 296 296 295 294 292 292 292 293 293 293 293 294 294 293 293 293 293 293 292 292 292 292 292 292
319 320 320 320 319 318 317 316 315 314 313 313 313 312 312 312 312 309 307 305 303 303 302 300 300 299 298 298 297 297 296 295 294 294 292 292 292 292 292 292 292 293 293 292 293 292 292 292 292 292 292 292 292 291
319 317 318 320 320 318 317 316 315 315 314 314 314 314 313 314 312 311 307 306 305 303 300 299 299 298 298 297 297 296 296 295 294 294 293 293 292 292 292 292 292 292 292 292 292 292 292 292 292 292 292 292 292 291
317 318 318 320 320 320 320 319 319 317 317 316 315 315 314 312 310 307 305 304 303 302 300 299 299 298 298 297 296 295 296 295 294 294 294 293 293 293 293 292 292 291 291 291 292 292 292 292 292 291 291 292 292 292

GFSWCAN_850_thetae_021.txt.gz
Theta_e
301 301 301 302 302 302 303 303 303 303 303 303 302 302 301 300 300 301 302 302 302 302 302 302 302 302 302 302 303 302 304 304 304 306 308 309 310 310 312 315 318 321 322 321 318 322 324 332 335 339 334 337 336 336
301 302 303 303 303 303 303 303 303 303 303 303 303 304 303 301 301 302 303 302 302 302 302 302 303 303 303 303 303 303 303 304 306 306 307 307 312 311 311 315 315 319 322 323 324 324 331 331 331 335 337 337 339 342
302 302 303 303 303 302 302 301 301 302 304 304 304 304 304 304 303 301 301 301 302 302 302 303 303 303 303 303 303 303 304 304 305 305 306 307 308 312 315 314 315 319 323 323 328 330 332 332 331 333 333 335 340 341
303 303 303 302 301 301 301 300 301 303 305 305 305 305 305 304 304 303 302 301 301 301 303 303 303 304 304 303 303 304 304 305 305 306 307 307 309 309 309 314 318 319 322 325 329 329 332 331 329 330 330 334 335 339
303 303 302 302 301 301 300 300 302 304 306 305 306 306 305 304 305 303 303 302 301 301 303 303 304 305 305 306 307 307 304 303 306 306 308 308 309 308 309 314 319 321 322 325 330 327 328 327 325 325 328 330 331 331
302 302 302 301 301 301 300 301 303 306 306 306 308 307 306 305 305 304 302 304 304 304 303 305 303 306 306 307 310 310 307 303 304 305 305 307 308 310 308 315 320 318 319 324 327 326 325 324 324 324 327 328 329 331
302 302 301 301 301 300 301 302 305 306 306 310 308 307 306 305 306 305 305 304 305 304 303 304 304 305 307 311 308 309 307 305 305 306 306 309 311 312 311 318 319 315 320 326 325 325 324 327 324 327 328 329 331 331
301 301 301 300 300 301 301 303 306 306 310 311 308 308 309 308 307 307 308 307 305 303 302 306 305 306 309 311 311 311 307 306 308 310 311 312 311 313 316 318 317 323 325 325 325 325 324 324 324 326 326 328 329 330
300 300 300 300 301 301 302 304 307 307 312 312 309 310 309 309 308 309 309 307 307 303 303 305 307 310 308 309 311 309 309 310 310 312 312 311 311 315 316 318 320 321 323 323 323 323 324 324 324 324 326 327 325 326
304 303 302 302 302 302 304 305 307 309 313 312 309 309 310 310 309 309 307 307 304 304 302 303 304 308 307 311 311 310 309 311 310 310 310 310 312 315 319 320 320 320 322 322 322 322 323 323 322 321 320 321 325 327
308 307 305 304 304 305 305 306 307 312 313 313 311 309 311 311 310 309 307 304 305 304 302 303 304 307 308 311 314 313 313 311 312 316 314 313 313 314 317 318 320 320 320 319 320 321 321 321 321 321 321 320 322 321
309 309 308 308 307 305 306 307 311 312 312 312 311 311 312 311 310 308 308 305 302 307 306 309 310 311 313 312 314 312 312 313 315 314 313 312 312 316 319 320 319 321 321 322 322 322 323 324 325 325 324 323 323 321
310 310 310 309 307 306 309 312 313 313 314 313 312 312 311 312 316 308 311 314 316 310 309 310 315 314 315 313 313 313 319 320 315 312 310 310 311 318 318 319 318 319 321 322 322 322 324 324 324 323 323 323 323 325
310 310 309 308 306 308 311 313 313 313 315 314 312 311 313 314 316 316 318 317 316 316 316 316 317 316 315 316 317 319 316 314 316 315 314 317 318 318 318 319 319 319 319 320 321 322 322 322 321 321 320 320 322 323
310 309 308 308 307 312 312 313 313 313 314 314 314 313 314 315 315 314 315 315 316 316 317 317 316 315 313 314 315 315 316 315 315 317 319 318 318 317 315 314 312 311 312 312 315 316 317 320 321 318 317 319 320 320
310 309 310 308 311 312 313 313 313 314 314 315 315 315 315 315 314 313 313 314 315 316 317 316 314 315 316 315 315 315 315 316 317 317 317 317 316 312 311 309 309 310 310 310 310 311 312 311 312 312 313 315 317 318
311 312 312 311 313 313 313 313 313 314 315 316 315 314 314 314 313 313 311 311 315 316 316 315 316 317 315 316 317 317 318 317 316 317 317 317 315 313 310 310 309 310 309 309 308 308 308 310 311 311 311 312 313 314
312 313 314 312 312 313 313 314 314 315 315 315 314 314 313 313 312 313 312 310 310 311 315 316 313 314 317 318 318 316 316 316 316 316 316 315 312 313 310 309 308 307 308 308 308 307 307 308 309 309 311 312 312 312
315 315 314 313 313 314 314 314 314 315 315 315 314 313 313 313 313 312 311 310 309 309 309 309 309 310 311 309 312 311 310 312 314 312 313 314 312 309 308 307 307 307 307 306 307 307 307 307 307 307 308 310 311 310
315 317 317 316 314 313 314 315 315 315 316 315 313 313 313 312 311 312 312 311 311 310 307 306 309 307 306 306 306 307 310 311 312 312 309 309 308 308 306 306 305 305 306 306 305 306 307 307 307 307 306 306 306 308
314 316 317 317 317 317 316 316 316 316 316 315 315 314 313 312 312 311 310 310 310 310 310 308 305 304 304 305 305 306 309 310 308 307 306 305 305 305 305 305 305 304 304 303 303 302 302 302 306 307 306 306 306 306
313 315 317 318 318 318 317 318 318 318 317 316 316 316 315 314 314 313 312 311 311 310 309 308 304 304 304 304 303 304 306 308 307 307 306 307 306 304 303 302 303 303 303 301 301 301 300 300 300 301 303 305 304 304
313 315 317 318 319 318 318 319 318 318 317 317 315 315 315 314 314 312 311 311 310 310 308 306 305 304 303 303 303 303 303 306 305 304 303 303 302 302 302 302 302 301 300 298 298 298 297 297 298 299 299 303 302 300
314 316 318 318 320 319 320 319 319 318 315 314 313 316 315 316 314 312 309 311 310 310 307 304 304 303 303 302 301 302 302 302 304 303 301 300 300 298 298 298 298 298 297 297 296 296 296 296 297 298 298 298 297 296
318 319 319 317 316 316 317 316 316 316 315 314 315 314 313 314 309 309 309 311 310 310 309 304 303 303 302 300 300 299 300 300 300 300 298 298 298 297 297 297 296 296 296 295 295 295 295 296 296 295 295 295 294 294
312 317 317 316 316 315 315 316 316 316 314 316 316 314 315 311 310 309 308 310 310 307 305 306 305 302 301 300 299 298 298 298 298 297 296 296 296 296 296 296 296 295 295 295 295 294 295 295 294 294 294 294 293 293
311 316 316 316 317 317 316 316 316 313 313 314 315 313 310 311 310 308 309 309 309 308 305 302 301 301 300 299 298 297 297 296 296 295 295 295 294 294 294 294 294 294 295 295 294 294 294 294 294 294 293 293 293 292
317 317 316 318 318 318 317 313 312 311 311 312 313 312 311 309 306 308 309 305 305 305 302 301 300 300 299 298 298 297 297 296 296 295 294 293 294 294 294 294 294 294 294 294 294 294 294 293 293 293 293 292 292 292
319 318 318 318 318 318 317 314 313 312 311 314 311 309 310 310 309 309 308 306 302 302 302 300 300 299 299 298 297 297 296 296 295 294 292 292 292 293 293 293 293 293 294 293 293 293 293 293 292 292 292 292 291 291
321 320 318 319 317 316 316 315 312 312 311 311 310 310 310 309 309 310 310 305 303 304 302 300 300 299 299 298 297 297 296 295 294 293 292 292 292 292 292 292 292 293 293 293 292 292 292 292 292 292 292 292 291 291
320 319 320 319 317 318 317 317 315 313 313 312 312 312 311 311 310 310 306 305 305 303 302 302 300 299 298 298 297 296 296 295 294 294 293 292 292 292 292 291 292 292 292 292 292 292 292 292 292 292 291 291 291 291
319 318 319 317 318 318 317 316 315 314 313 313 313 312 313 313 312 309 305 304 304 303 302 301 299 299 298 297 297 296 295 295 294 294 294 293 293 293 292 292 291 291 292 292 292 292 292 292 292 291 291 292 292 292
317 318 318 320 318 316 316 316 315 316 314 314 314 314 314 313 312 308 306 304 304 303 302 300 299 298 297 297 295 295 295 295 294 294 293 293 293 293 293 292 292 292 291 291 291 292 291 291 291 291 291 292 291 291

GFSWCAN_850_thetae_024.txt.gz
Theta_e
301 302 302 303 303 302 302 301 301 300 301 302 303 304 304 304 304 302 301 302 302 302 302 301 302 302 301 301 302 302 303 303 306 307 306 308 306 307 308 307 311 310 312 312 312 316 318 328 334 342 334 335 335 337
302 302 302 303 303 302 301 301 300 300 301 302 304 305 305 305 305 304 302 302 302 302 302 302 302 302 302 302 302 302 303 303 304 305 304 305 307 308 309 310 310 312 314 315 313 314 317 332 332 334 333 332 334 336
302 302 302 302 302 301 301 301 300 300 301 304 305 306 305 306 306 305 305 305 304 301 301 301 303 303 303 303 302 302 303 303 303 304 305 307 308 307 309 313 312 312 312 315 317 320 320 331 331 331 335 330 332 336
302 302 302 302 302 301 301 301 300 300 302 306 307 306 307 307 306 305 305 305 304 302 301 301 303 304 304 304 303 303 302 304 304 304 305 305 309 307 310 310 310 309 309 314 316 317 327 329 328 330 335 331 332 334
301 302 301 301 301 301 300 300 300 301 304 307 306 308 308 307 307 306 305 305 304 303 301 302 303 305 304 305 303 303 303 302 303 305 307 309 307 308 308 307 308 308 311 314 320 319 326 327 326 329 334 331 331 332
300 300 300 300 300 300 300 300 301 303 307 307 308 310 308 307 307 306 304 303 303 302 302 305 304 305 305 305 306 305 303 302 302 304 305 305 306 306 307 311 310 316 316 317 319 319 324 327 325 327 330 330 331 333
301 301 300 301 301 301 301 302 303 305 306 310 312 311 308 307 306 305 306 306 304 303 302 304 305 305 307 310 308 306 303 303 303 304 305 306 307 307 308 309 309 311 314 316 316 321 324 326 326 328 330 330 331 334
304 304 303 304 303 304 303 304 305 305 308 311 312 309 310 309 307 306 307 306 305 303 302 304 306 305 308 309 310 308 305 304 304 305 307 309 309 310 308 308 308 311 312 316 322 325 326 325 327 329 329 330 332 335
308 309 309 308 307 306 306 306 305 308 311 312 312 309 309 309 308 308 307 306 305 304 301 303 307 309 307 308 310 309 308 310 309 310 310 309 306 308 310 312 319 320 319 323 323 324 323 323 325 326 328 330 331 330
309 310 310 310 309 308 307 306 309 312 312 313 311 309 310 310 309 308 307 306 304 304 302 303 303 307 306 309 311 309 309 311 311 308 309 306 308 309 316 320 320 321 322 323 322 322 322 322 323 324 325 326 327 327
310 310 310 310 310 307 306 309 312 313 314 313 312 310 311 311 310 309 306 304 302 303 300 302 303 305 307 310 313 309 312 310 311 314 312 311 313 315 318 321 321 320 320 321 322 322 323 322 321 322 322 324 325 326
311 310 310 309 307 306 310 312 313 313 314 313 312 311 312 311 311 309 309 304 303 307 306 307 309 307 310 310 312 312 311 312 314 312 311 311 316 318 318 319 321 322 322 323 323 324 325 324 324 324 323 322 322 322
310 310 309 307 306 308 312 312 313 313 313 313 313 312 313 313 314 315 314 317 318 312 311 311 313 314 314 313 313 314 317 316 313 311 309 314 317 315 313 316 319 320 321 323 323 322 321 320 322 324 325 325 325 326
310 309 308 308 309 312 312 313 314 314 314 314 313 312 314 313 314 315 315 315 315 315 315 316 317 314 313 312 315 318 315 313 315 313 315 316 314 312 310 311 316 315 315 317 318 316 316 318 318 322 323 323 321 319
311 309 310 311 312 313 313 314 314 314 314 315 315 312 314 313 312 312 311 311 313 316 316 315 314 314 313 315 315 314 316 314 312 316 315 313 312 311 308 308 309 312 312 312 312 312 317 318 317 318 320 321 318 318
309 310 311 312 313 313 314 314 314 315 315 314 313 313 312 312 311 310 309 309 311 315 316 315 314 315 316 315 316 315 313 316 318 316 315 311 310 308 307 307 307 308 310 312 314 314 313 314 314 315 316 316 317 317
311 312 311 312 313 314 314 314 314 315 315 314 313 312 312 311 311 310 309 308 310 313 314 315 316 316 314 316 317 316 318 316 314 311 312 310 307 306 307 307 307 307 308 308 309 310 311 312 312 312 313 312 312 313
314 313 312 312 312 313 314 314 314 314 314 313 312 312 311 310 310 310 310 307 308 308 311 311 310 311 312 313 312 310 310 312 309 311 308 306 306 306 306 307 307 307 307 307 307 307 308 309 311 310 310 310 311 310
316 315 315 313 313 314 314 314 314 314 313 313 312 311 310 310 309 309 309 308 306 307 308 308 307 308 308 307 307 306 310 309 306 305 306 305 305 305 305 305 305 306 306 306 306 306 306 306 307 307 307 307 307 308
314 316 317 316 315 313 314 315 315 314 314 313 312 311 311 311 310 309 309 309 307 306 306 304 306 304 304 304 305 306 306 307 306 305 304 304 303 304 304 304 303 303 304 304 304 305 306 306 306 306 306 306 306 306
313 315 316 317 317 316 316 316 316 316 315 314 314 313 312 313 312 310 309 309 309 309 308 304 303 303 303 303 303 306 306 307 306 305 303 303 303 303 305 305 306 306 304 301 301 301 301 301 305 305 305 305 304 304
312 314 316 317 318 317 317 318 317 316 316 315 316 316 313 312 312 311 310 310 310 308 307 303 303 303 302 302 302 302 304 304 304 303 303 302 302 301 300 299 299 299 298 297 297 297 297 298 299 303 303 301 301 300
313 315 317 318 318 317 317 318 318 316 314 316 314 314 313 313 312 310 310 310 310 306 304 303 302 302 302 301 301 301 302 302 302 301 300 300 299 299 298 298 297 297 296 295 295 296 297 297 300 301 299 299 298 297
314 317 318 318 317 317 318 318 318 316 314 312 312 314 313 315 312 310 307 310 310 308 306 303 303 302 301 301 300 300 300 300 300 300 298 298 298 298 297 297 297 296 295 295 295 296 296 297 297 297 296 295 295 295
318 318 318 316 315 316 315 314 314 314 314 312 314 312 312 313 308 307 307 309 310 307 305 305 304 302 300 299 299 298 298 297 297 297 297 297 296 296 296 296 296 295 295 294 294 295 295 294 294 294 294 293 293 293
309 316 316 315 314 314 313 314 313 314 313 315 314 313 313 309 308 308 307 309 309 309 308 305 303 302 300 299 298 298 297 296 295 296 295 295 295 295 295 295 295 295 295 294 294 294 294 294 294 293 293 293 292 292
312 315 316 316 316 316 315 314 314 311 312 314 312 311 309 309 307 306 308 308 306 305 305 305 301 300 300 299 298 297 296 296 295 294 293 293 294 294 293 293 294 294 294 294 294 294 294 293 293 293 292 292 292 291
317 317 315 317 318 317 316 311 310 310 310 312 311 311 310 308 305 307 306 308 307 304 303 302 301 300 299 298 297 297 296 296 295 293 293 293 293 293 293 293 293 293 294 293 293 293 293 293 292 292 292 292 291 291
318 318 317 317 317 317 317 313 311 311 310 313 310 307 309 308 308 308 307 308 309 304 302 302 301 300 299 298 297 296 296 295 294 293 292 292 292 292 292 292 292 293 293 293 292 292 292 292 292 292 292 291 291 291
321 320 317 318 316 315 316 316 312 311 311 311 310 310 310 309 309 308 308 309 308 304 302 302 301 300 299 297 297 296 295 294 294 293 292 292 292 292 292 291 292 292 292 292 292 292 292 292 292 292 291 291 291 292
320 319 319 318 318 318 317 316 314 312 312 311 311 311 311 311 310 309 309 309 306 304 303 302 300 299 299 297 297 296 295 294 294 294 293 292 292 292 292 291 291 291 292 292 292 292 292 292 292 291 291 291 291 292
319 318 318 316 317 317 317 315 314 314 314 313 312 312 312 312 312 312 312 309 305 303 303 301 300 300 298 297 296 295 295 294 294 294 293 293 293 293 292 292 292 291 291 291 292 292 292 291 291 291 291 292 291 291
316 316 316 318 317 316 315 315 315 314 314 313 312 313 313 313 312 311 309 307 305 303 302 301 301 299 298 297 296 295 295 294 294 294 293 293 293 293 293 292 292 292 291 291 291 291 291 291 291 291 291 291 291 292

GFSWCAN_850_thetae_027.txt.gz
Theta_e
301 301 302 302 303 302 301 301 301 301 300 300 300 302 304 305 305 305 306 304 302 302 302 302 302 302 302 302 303 302 303 304 306 308 307 307 309 308 310 308 309 312 313 312 312 311 311 315 322 322 331 336 337 339
301 301 302 302 302 302 301 301 301 300 300 300 302 304 306 306 306 306 305 305 304 302 302 302 302 302 302 302 302 302 302 304 305 306 306 307 309 309 309 310 310 311 311 314 314 313 314 316 321 330 335 336 337 337
301 301 301 301 301 301 300 300 300 300 301 302 304 307 307 307 307 307 306 305 304 302 303 302 303 302 303 303 302 301 302 302 303 303 305 306 307 308 310 311 311 312 312 314 312 311 314 313 315 317 329 334 336 336
299 299 299 300 300 300 300 300 301 301 302 304 307 307 307 308 308 308 307 306 305 304 302 303 302 303 303 303 303 302 302 303 303 303 302 306 309 308 310 310 311 311 312 312 314 314 314 314 314 316 322 333 334 335
302 303 303 303 302 302 303 302 303 304 304 305 307 308 308 308 308 308 307 306 305 304 303 302 304 304 304 304 304 303 302 302 302 305 306 307 307 307 308 309 309 309 310 312 313 312 314 317 315 319 327 331 334 333
306 306 306 306 306 306 306 305 305 306 305 307 309 310 310 308 308 307 305 304 305 304 303 306 304 305 305 307 305 304 303 302 302 302 304 304 305 307 309 311 309 309 308 309 311 311 312 318 320 324 329 332 333 333
308 308 309 308 308 309 309 307 307 306 307 310 311 311 309 309 308 307 306 306 306 303 302 304 304 306 306 308 308 304 303 302 302 303 304 305 306 306 306 309 309 309 309 309 312 312 314 317 321 325 327 330 331 331
309 310 310 309 309 310 310 308 306 308 311 312 312 309 309 310 308 307 307 307 305 303 302 305 305 307 307 309 311 306 304 303 303 304 304 306 306 306 307 308 308 309 309 309 309 310 318 320 323 325 327 330 331 331
310 310 310 310 309 309 307 306 309 311 313 313 311 309 309 309 308 308 307 306 304 304 302 303 307 310 306 308 309 309 305 308 306 305 307 307 304 307 308 310 312 320 312 312 312 313 317 323 322 325 327 328 329 329
311 310 310 310 308 307 306 309 312 313 314 312 311 309 310 310 308 308 307 305 304 304 302 302 303 306 305 309 312 310 309 309 310 308 308 305 306 310 315 318 322 318 317 319 320 320 322 322 325 326 326 328 327 327
311 310 310 308 306 306 309 312 313 314 313 312 312 311 311 310 309 309 306 305 302 304 302 302 303 305 306 309 312 310 311 308 311 312 311 309 311 313 314 314 315 321 322 322 317 322 323 324 326 327 326 326 325 326
311 310 308 307 308 311 312 313 314 314 313 313 313 313 312 312 312 312 311 306 304 310 307 306 309 307 309 309 312 313 313 313 316 313 311 311 313 311 313 314 314 313 317 318 319 321 322 321 322 322 321 323 326 326
311 309 308 310 312 312 313 314 314 314 314 314 314 314 314 311 312 313 312 313 316 316 314 314 315 315 315 315 314 316 317 316 314 313 309 311 311 310 310 312 314 315 315 316 315 315 315 318 320 320 320 322 324 323
308 308 311 312 313 313 313 313 314 314 315 315 314 312 311 311 312 312 312 312 312 312 314 316 317 315 314 316 316 317 315 314 317 314 312 313 312 309 307 308 310 309 313 315 317 317 319 318 317 317 318 317 319 321
308 310 312 313 313 313 314 313 313 313 313 313 313 313 314 312 311 310 309 310 310 312 315 315 315 315 316 317 315 313 316 315 312 313 313 313 309 305 306 307 309 312 311 311 312 310 315 316 315 314 316 316 316 318
309 312 312 313 314 313 313 312 312 313 313 313 312 313 312 311 310 310 309 309 309 314 316 315 316 317 317 316 316 315 315 315 315 313 312 307 305 305 306 307 308 310 311 311 311 310 310 310 311 311 314 316 316 317
310 310 312 312 313 313 313 313 314 313 313 312 312 310 310 310 310 309 308 308 310 312 315 314 312 315 313 313 311 308 310 312 309 307 305 304 305 305 306 306 307 307 307 309 309 310 309 309 310 310 311 312 313 314
314 313 313 311 312 313 314 313 314 313 313 312 312 310 310 309 309 309 308 306 308 309 310 311 309 309 311 311 312 309 308 308 304 304 303 303 303 305 306 306 306 306 306 306 306 306 306 307 307 307 307 307 308 310
315 315 315 314 313 314 314 314 313 314 313 311 310 310 310 309 308 308 306 305 305 306 308 308 308 308 308 307 307 307 306 307 307 304 303 302 303 303 304 305 306 305 305 305 306 306 306 306 306 306 306 306 306 305
313 315 316 317 315 314 314 315 314 313 314 312 311 312 312 310 308 308 308 306 306 306 305 306 306 305 306 305 304 303 303 304 305 305 303 302 302 304 307 307 305 302 301 301 301 302 303 304 305 305 305 305 304 302
312 314 315 316 317 316 316 315 316 315 313 313 314 315 313 312 311 309 308 307 307 307 306 305 304 303 303 302 302 302 303 303 303 302 302 302 301 300 299 299 299 299 298 297 297 297 298 301 303 302 302 302 300 298
313 312 315 317 317 317 318 317 317 316 315 315 316 314 314 314 312 311 309 309 309 308 304 302 302 302 302 301 301 301 301 301 301 301 300 300 299 299 299 298 297 297 296 296 296 297 297 300 300 299 298 298 298 297
313 315 317 318 318 317 317 318 317 315 316 316 314 315 315 315 312 309 311 310 309 306 304 302 301 301 301 300 300 299 299 299 299 299 298 298 297 297 297 296 296 296 296 296 296 297 299 298 297 297 296 296 295 295
315 317 318 318 315 316 317 317 317 316 315 315 316 316 316 316 311 312 311 310 309 307 305 304 303 302 300 299 299 298 298 297 297 297 297 297 297 297 296 296 296 295 294 295 296 296 296 296 295 295 295 294 294 294
317 316 317 315 314 316 317 317 316 316 318 316 317 316 315 312 313 312 311 310 309 308 308 306 304 303 300 299 298 297 297 296 296 296 295 295 295 296 296 296 295 295 295 295 295 295 295 295 294 294 294 293 293 293
312 315 315 315 315 317 317 317 317 317 316 318 317 314 312 312 309 309 309 309 307 305 305 305 303 301 300 299 298 297 296 296 295 295 294 294 294 294 294 294 295 295 294 294 294 295 294 294 294 294 293 293 292 292
314 316 316 316 316 316 316 314 314 313 315 316 317 315 313 310 309 308 306 306 306 305 304 303 302 301 300 299 298 297 296 295 294 293 293 293 293 293 293 293 293 294 294 294 294 294 294 294 293 293 292 292 292 292
316 316 319 317 317 317 318 314 314 312 312 313 313 314 312 310 309 306 306 307 307 307 305 302 301 301 300 298 297 297 296 295 294 292 292 292 292 292 292 292 292 293 293 293 293 293 293 293 292 292 292 292 292 292
318 317 316 318 318 317 319 317 312 311 310 313 314 311 311 308 308 308 308 307 307 308 306 302 301 300 299 298 297 296 296 295 294 294 293 293 293 292 292 291 292 292 292 292 292 292 292 292 292 292 292 292 292 292
320 319 318 318 318 319 317 316 314 312 310 311 311 310 310 310 310 310 309 308 308 309 304 302 301 300 299 298 297 296 295 294 294 293 293 293 292 292 292 291 292 292 292 292 292 292 292 292 292 292 292 292 293 293
319 319 319 318 320 318 317 316 315 313 311 311 311 311 311 312 311 312 313 311 309 308 303 302 301 300 298 297 297 296 295 295 294 294 293 293 293 292 292 292 292 292 292 292 292 292 292 292 292 292 292 292 292 292
319 319 320 320 319 317 317 315 314 313 313 313 313 312 311 312 312 312 313 312 309 304 303 302 300 299 298 297 296 295 295 295 294 294 294 293 293 293 293 292 292 292 292 292 292 292 292 292 292 292 292 292 292 292
316 316 316 317 318 317 316 315 315 315 314 313 313 312 312 313 314 312 311 309 306 302 302 301 300 299 298 297 296 295 295 295 294 294 294 293 293 293 293 292 292 292 292 292 292 292 292 292 292 292 292 291 292 292

GFSWCAN_850_thetae_030.txt.gz
Theta_e
301 301 301 301 301 300 300 300 300 300 300 301 302 303 304 307 307 306 304 306 304 302 304 304 304 304 304 303 304 304 304 305 305 308 307 308 308 309 309 309 310 313 312 312 313 314 314 315 317 320 328 330 332 334
299 299 299 299 300 301 301 301 301 302 303 303 304 305 306 307 308 307 306 307 305 303 303 305 305 305 304 304 303 303 303 304 306 308 309 309 311 311 311 312 311 311 312 313 313 313 314 314 314 317 319 320 323 331
300 301 303 304 305 304 303 304 304 305 305 305 306 306 308 308 309 308 308 308 306 303 303 304 307 306 305 305 304 303 304 303 303 304 307 308 310 309 311 311 311 311 312 314 313 313 314 314 315 315 315 317 320 321
304 306 306 307 307 308 308 308 308 307 307 306 306 308 309 308 309 309 308 308 307 304 303 306 305 305 306 305 304 305 304 304 304 305 306 308 309 308 312 311 311 312 312 314 315 315 313 311 311 312 314 315 315 317
307 307 308 308 308 309 309 309 309 308 307 306 308 310 311 309 308 309 308 307 307 306 306 305 305 306 305 305 305 305 304 304 304 305 306 307 306 308 309 310 312 311 313 314 314 313 314 314 313 313 313 316 317 322
308 309 310 310 310 310 309 309 309 307 307 310 311 312 310 309 309 307 308 306 307 305 304 307 307 306 306 306 306 305 305 304 303 302 303 303 305 306 309 312 311 310 310 310 314 311 312 313 314 314 317 319 321 325
310 311 311 310 310 310 309 307 306 309 311 312 312 310 311 310 308 307 308 307 306 305 303 305 307 308 307 307 307 305 304 303 302 301 301 303 304 305 306 308 308 308 308 309 311 311 311 313 312 315 316 320 324 328
311 311 310 310 310 308 307 306 310 312 313 313 310 310 311 310 309 308 307 306 305 304 303 306 308 309 308 309 310 306 304 301 301 301 301 303 302 302 307 307 308 308 307 307 308 309 310 311 315 317 320 322 327 331
311 311 310 309 308 306 308 311 313 314 314 312 310 310 310 310 309 308 307 306 305 304 303 303 308 310 307 307 309 307 304 305 303 304 302 303 305 308 304 311 316 318 319 309 308 308 310 312 313 316 323 326 327 328
311 311 309 307 308 311 312 313 314 314 313 312 310 312 313 310 308 308 306 305 305 304 303 303 302 306 305 309 310 310 309 308 310 308 308 305 306 308 309 313 315 316 316 315 314 314 314 315 317 322 323 325 327 330
311 310 308 311 312 312 313 314 314 314 313 312 314 313 312 310 310 309 308 306 305 306 304 304 304 307 307 309 312 311 311 309 317 316 314 312 311 311 309 312 312 313 315 317 321 319 319 317 323 324 323 328 327 329
309 308 311 312 313 313 314 314 313 314 314 314 314 313 313 314 315 315 313 311 310 314 314 309 313 309 310 310 312 316 317 317 319 316 314 312 312 310 309 311 312 314 315 314 314 318 321 323 324 322 324 323 322 321
308 310 312 313 313 313 313 313 313 314 314 314 314 314 314 312 313 312 312 314 315 316 317 316 319 318 317 316 319 320 319 319 316 315 311 314 312 310 309 310 311 312 315 316 315 315 315 317 319 319 318 318 318 318
308 312 313 313 313 313 312 312 312 313 315 314 314 315 315 313 312 313 314 314 314 314 316 318 318 318 317 318 317 318 317 317 317 314 314 314 310 309 309 309 310 311 312 313 316 317 316 316 317 317 317 316 316 317
309 312 313 313 313 313 312 311 311 313 315 314 314 317 315 313 314 313 313 314 314 314 318 319 319 317 318 318 317 316 318 318 315 315 315 311 310 309 308 308 310 310 310 310 311 312 313 316 315 316 316 317 318 317
309 311 312 313 313 313 313 311 311 315 315 313 313 314 313 313 313 312 312 313 313 316 319 318 318 318 316 315 314 312 315 314 315 312 309 309 309 308 308 308 308 309 309 310 310 310 310 310 311 311 315 315 314 313
312 312 311 312 312 313 312 312 315 314 313 313 313 312 312 312 312 311 310 311 313 314 317 315 313 314 313 313 313 310 311 309 309 308 307 307 307 307 307 307 308 308 308 309 309 309 309 309 309 310 310 309 312 312
315 315 315 313 313 313 313 316 315 313 313 313 314 313 311 310 310 310 309 309 311 312 311 312 310 311 311 310 312 311 310 311 311 307 306 306 306 307 307 307 306 305 306 306 308 308 308 307 307 307 308 308 307 306
313 315 316 316 314 314 317 316 315 315 314 314 315 314 312 310 309 309 309 309 308 308 309 309 310 309 309 307 307 308 308 308 310 308 305 305 305 306 305 304 304 303 303 303 302 305 306 306 305 305 306 305 304 304
312 314 315 316 316 317 318 317 315 315 316 315 314 315 314 312 309 309 308 308 307 308 308 308 308 307 306 304 304 304 305 306 307 307 306 304 304 304 303 303 302 301 301 300 300 299 302 303 303 302 302 302 302 301
312 312 313 316 317 317 318 318 318 317 316 316 317 317 316 314 311 310 309 308 308 308 308 307 307 305 305 305 303 303 302 302 303 303 303 304 303 303 302 301 301 300 300 299 300 300 301 302 301 301 301 301 300 300
313 312 316 317 319 318 320 318 320 318 319 318 318 318 316 314 313 310 310 310 309 309 308 307 306 305 304 303 303 302 302 301 301 301 300 301 301 301 300 300 299 299 299 299 300 301 300 300 300 300 300 299 299 297
313 316 317 318 320 318 320 319 321 320 319 318 318 317 317 317 315 311 310 310 310 308 307 306 306 303 303 303 303 301 300 300 300 299 299 300 300 300 299 299 298 298 298 298 299 299 299 298 298 298 298 297 297 297
316 318 320 320 319 319 320 321 321 321 320 319 319 318 318 317 314 312 310 309 309 309 308 308 306 304 303 303 302 301 300 299 299 299 298 298 298 299 298 298 298 297 297 297 297 297 297 297 296 296 296 296 296 295
318 316 318 315 319 320 319 319 319 318 320 320 320 318 318 316 315 312 310 308 308 308 308 308 306 304 303 302 301 300 299 298 298 298 298 296 297 297 298 297 297 297 296 297 297 297 297 296 296 296 296 295 295 295
317 319 318 319 319 319 318 316 316 317 317 318 319 318 317 315 311 310 309 308 308 308 308 306 305 304 303 301 300 300 298 297 297 297 297 295 296 296 296 296 296 297 295 296 296 296 296 296 296 295 295 295 294 294
319 320 320 317 320 320 319 317 316 315 316 316 316 317 315 312 310 310 309 309 308 308 307 305 304 304 303 301 299 298 297 297 296 295 295 295 295 294 294 294 295 295 295 296 296 296 296 296 295 295 295 295 294 294
320 321 321 321 321 320 321 319 316 314 314 315 315 316 314 312 313 311 310 310 310 309 307 304 302 302 301 300 299 298 297 297 296 295 295 295 295 294 294 294 294 293 294 294 294 295 295 295 294 294 294 294 294 294
323 321 320 321 321 321 321 320 317 315 314 314 316 316 314 313 312 311 310 310 308 307 306 303 301 301 300 299 298 297 297 297 297 297 296 296 296 295 294 294 294 294 294 294 294 293 293 293 293 293 294 294 294 294
323 321 322 321 321 321 320 320 319 317 315 315 315 313 313 313 313 311 311 311 312 308 307 304 302 301 302 301 300 298 297 296 296 296 296 296 295 294 294 294 294 294 294 294 294 294 293 293 294 294 294 294 294 294
323 322 322 322 321 321 321 320 318 316 316 315 315 314 316 316 314 312 312 312 312 308 304 303 302 302 301 300 299 298 298 297 296 295 295 295 295 295 294 294 294 294 294 294 294 294 294 293 293 293 293 293 293 293
323 323 323 322 320 321 319 319 319 319 319 318 318 316 316 316 317 316 312 312 308 306 303 303 303 302 300 299 297 297 295 296 296 296 295 295 295 295 294 294 293 294 294 294 294 293 293 293 293 293 293 293 293 293
320 320 320 320 320 321 320 319 320 320 319 318 318 317 317 317 317 314 310 308 304 304 304 303 301 300 299 298 297 297 296 296 295 294 294 294 294 293 293 294 293 293 293 293 293 293 293 293 293 292 292 292 292 292

GFSWCAN_850_thetae_033.txt.gz
Theta_e
299 299 299 301 303 305 305 305 305 305 306 306 306 305 305 305 307 308 308 308 305 303 304 305 306 307 306 306 308 306 307 307 307 310 310 311 311 310 310 312 313 317 315 316 318 319 322 321 321 326 329 330 330 333
300 301 304 306 307 307 308 308 307 308 308 308 307 307 306 308 308 308 308 308 307 305 305 307 307 307 307 307 306 305 306 306 308 310 311 311 312 311 312 313 312 312 314 317 316 317 318 318 319 319 319 321 322 323
303 307 308 308 308 309 309 309 309 309 309 308 308 307 307 309 309 309 309 308 307 305 304 305 308 308 308 307 307 306 306 305 305 306 307 310 311 311 312 311 312 313 314 314 315 316 316 315 315 316 317 318 318 319
308 308 309 309 310 310 310 309 309 309 309 308 307 309 310 309 310 310 309 309 308 305 304 307 308 307 306 308 307 306 305 306 306 305 307 309 310 310 312 312 313 313 314 314 315 315 315 314 314 314 315 315 315 316
309 310 310 310 311 310 310 309 308 307 307 309 311 312 310 310 309 309 309 307 307 307 308 308 308 308 307 307 307 307 306 306 306 306 307 307 307 308 309 311 312 312 313 314 315 315 315 315 315 315 315 314 314 315
310 311 311 311 310 310 309 307 306 308 311 312 313 310 310 309 309 310 310 307 307 306 306 309 309 308 308 308 307 306 305 306 305 303 304 304 305 306 308 311 310 310 310 311 314 312 313 313 314 315 315 314 315 317
311 311 311 311 309 307 306 307 311 312 313 313 311 311 310 310 311 310 310 308 307 305 304 307 310 310 309 308 308 306 305 304 303 300 300 302 303 304 307 310 309 307 307 308 308 310 312 313 313 314 315 315 316 316
312 311 311 309 307 308 311 312 313 314 314 312 310 311 311 310 309 309 307 305 305 305 304 307 309 310 309 308 309 306 303 302 301 301 300 301 301 301 306 307 306 309 315 315 308 308 310 312 313 314 314 315 315 318
312 310 309 309 312 312 313 313 314 314 313 311 310 311 312 311 310 309 307 306 305 305 304 304 308 311 307 309 309 306 304 306 303 304 303 302 304 307 304 310 314 316 318 315 314 309 309 310 312 313 313 314 318 321
311 308 310 313 313 313 313 314 314 314 313 312 313 313 315 311 310 309 308 307 306 306 304 304 304 309 307 310 311 312 309 311 310 312 308 308 305 310 310 312 314 315 319 315 311 311 310 310 311 312 314 316 317 323
310 309 313 313 313 313 314 312 314 314 314 316 317 317 313 312 312 312 317 311 310 313 313 311 307 310 310 312 314 313 315 312 318 315 313 314 312 311 311 312 313 314 314 315 316 317 316 317 317 317 317 320 323 325
309 311 313 313 313 313 312 311 314 315 316 316 316 316 315 315 317 318 317 314 316 321 319 319 318 312 314 311 314 319 320 318 317 314 315 313 313 311 311 312 312 313 313 314 314 314 315 316 317 317 317 318 318 320
309 312 313 314 313 313 312 311 313 314 316 316 316 317 316 315 321 319 316 316 317 317 318 317 323 320 320 317 321 320 319 319 315 316 311 314 312 311 311 311 312 312 313 314 315 315 314 314 313 316 315 316 316 316
309 312 313 313 313 313 312 311 315 316 317 316 316 318 318 318 317 317 317 317 317 317 318 319 321 321 319 320 319 319 319 317 318 316 316 316 312 311 311 311 311 311 311 311 312 313 312 312 313 313 314 315 316 315
309 311 313 313 313 313 312 312 315 317 316 316 316 321 318 315 315 315 315 316 317 317 319 320 320 318 319 317 316 316 318 317 316 315 313 310 311 311 311 311 310 311 311 311 311 311 312 312 311 310 311 310 311 311
312 313 311 312 312 312 313 316 316 316 315 315 314 315 314 314 314 313 313 313 314 316 319 319 319 319 317 316 315 314 315 314 312 312 310 309 311 311 311 310 309 309 310 311 310 310 310 310 312 310 309 309 308 307
315 318 315 312 312 314 314 318 317 315 315 315 315 313 312 312 312 312 312 312 314 315 318 317 316 316 314 314 315 314 316 314 312 312 308 309 311 311 310 308 308 307 307 307 309 309 309 309 309 309 309 308 306 305
314 315 316 316 314 316 319 318 316 316 316 316 316 315 313 311 311 311 311 311 312 314 313 314 312 313 312 311 311 310 309 310 311 310 308 309 309 309 307 307 306 305 305 305 304 307 307 307 308 308 307 307 307 306
312 315 315 316 315 319 319 318 318 317 317 316 317 315 315 312 311 311 310 310 311 311 312 312 312 312 311 308 308 307 307 307 308 309 308 308 308 307 306 305 304 304 303 303 303 304 306 305 305 305 306 306 305 304
313 312 314 315 317 321 320 320 319 317 317 316 317 317 316 315 312 312 311 310 310 310 310 311 310 308 308 306 305 305 305 304 305 306 307 306 306 305 305 304 303 302 302 302 303 303 304 304 304 304 303 303 303 302
313 313 313 316 323 321 320 320 320 318 318 318 317 317 316 315 313 312 313 311 311 310 310 309 308 307 307 306 305 304 304 303 304 303 303 303 302 304 303 303 302 302 302 302 303 303 303 303 303 302 302 301 301 300
317 313 319 322 322 322 322 320 320 320 319 318 318 317 316 316 314 312 312 313 311 310 309 308 307 305 305 306 305 305 303 303 303 303 302 302 303 303 302 302 301 301 301 301 302 302 301 300 300 301 300 300 300 299
314 317 323 322 322 321 321 321 321 320 320 318 318 317 317 316 315 314 312 312 311 310 309 309 308 308 307 305 305 304 303 302 302 302 302 301 301 302 302 301 301 301 300 300 300 300 300 299 299 299 299 299 299 299
316 323 324 321 320 320 321 321 320 320 320 319 318 318 318 316 316 314 313 311 311 311 310 309 308 307 306 307 305 304 303 301 301 301 301 300 300 300 301 301 300 300 299 300 300 300 299 299 299 299 299 298 298 298
321 318 321 315 320 320 319 318 318 318 319 319 319 318 318 317 317 314 313 311 311 310 310 310 308 307 306 305 303 303 303 301 300 300 301 299 299 299 300 300 300 300 299 299 299 299 299 299 299 298 298 297 296 297
316 319 318 318 319 320 318 318 317 317 317 318 319 318 318 317 315 314 313 311 311 310 310 309 308 307 306 305 303 302 301 300 299 299 299 298 298 298 298 298 299 299 297 298 298 298 299 298 298 297 298 297 296 297
318 320 320 320 320 321 321 319 318 318 317 318 318 317 317 316 315 314 313 312 312 311 311 309 308 307 307 305 304 302 300 299 298 298 298 297 297 297 297 297 297 297 296 297 298 298 298 297 297 297 297 297 297 297
321 321 322 321 321 321 321 321 319 318 317 316 317 317 318 316 316 315 314 313 312 312 311 309 307 306 305 304 303 301 300 299 299 299 299 298 298 298 297 297 297 295 295 296 295 296 297 297 297 296 296 296 297 296
323 321 320 320 321 321 321 320 320 318 317 316 317 317 317 317 316 315 314 314 313 313 310 308 306 305 303 303 302 301 300 299 299 299 299 299 299 298 297 297 297 297 296 296 295 295 294 294 294 295 296 296 296 295
322 321 320 320 321 321 320 321 318 317 317 317 317 317 317 317 317 316 315 314 313 312 311 310 308 305 305 304 302 301 300 299 299 298 298 298 298 297 297 297 296 296 296 296 296 296 295 295 295 295 296 295 295 295
320 320 321 320 320 319 320 318 318 319 320 318 317 317 316 318 318 316 315 315 314 313 310 308 307 306 304 303 301 300 299 300 299 298 297 297 298 297 297 296 296 296 296 295 295 295 295 295 295 295 295 295 295 294
321 321 321 320 319 320 319 319 317 317 318 318 318 318 318 319 317 318 312 311 310 309 307 306 306 305 303 301 300 299 297 298 299 298 298 297 296 296 296 296 296 295 295 295 295 295 295 295 295 294 294 294 294 294
320 319 318 319 319 319 320 318 318 319 318 318 318 319 318 318 317 314 309 308 307 307 306 305 303 302 301 299 299 299 298 298 297 296 295 295 294 294 294 295 295 295 295 295 295 295 295 295 295 294 294 294 294 294

GFSWCAN_850_thetae_036.txt.gz
Theta_e
305 303 302 306 308 308 308 308 309 309 309 308 308 308 307 307 307 308 308 308 307 304 305 306 306 307 308 308 309 308 308 309 311 312 311 314 315 314 314 314 315 316 316 317 319 322 325 324 324 330 333 328 327 328
304 306 308 308 308 309 309 310 310 309 309 309 309 308 308 307 308 309 308 309 308 306 306 307 307 307 307 308 308 308 308 307 308 311 312 311 312 312 313 314 314 314 315 317 318 320 324 320 320 320 320 321 322 322
308 308 309 310 310 310 310 310 310 309 309 308 307 308 309 309 309 309 309 309 308 306 306 306 308 309 308 307 308 308 307 307 307 307 307 310 312 312 314 314 314 314 314 316 316 317 318 317 317 317 317 318 319 319
309 309 310 310 311 311 310 310 309 307 307 308 311 312 311 309 310 309 310 309 309 307 305 309 310 309 309 308 308 308 308 307 306 307 308 309 310 310 312 312 313 312 313 314 315 316 317 315 315 316 316 316 316 316
310 310 311 311 311 310 309 307 306 308 311 312 313 311 310 309 310 310 309 308 307 308 308 308 309 309 308 308 308 309 308 307 307 306 307 308 307 308 309 310 312 312 313 314 317 315 317 318 316 316 316 316 317 317
310 311 311 311 310 307 307 309 312 312 313 314 312 311 310 310 311 311 310 309 308 307 306 309 309 309 309 308 307 306 306 305 305 303 302 304 305 305 309 309 309 309 309 309 311 311 312 313 314 315 316 316 317 318
312 312 311 309 309 312 312 313 313 313 314 312 311 311 310 310 311 311 310 309 307 306 306 308 311 311 310 309 308 307 305 305 303 301 299 300 301 303 305 307 306 306 306 306 306 307 309 310 312 314 315 315 316 317
312 311 309 311 313 313 313 314 314 314 313 311 311 312 311 311 311 311 308 307 306 306 305 310 312 313 311 311 311 306 305 303 302 302 301 300 301 301 306 306 311 316 318 317 316 313 310 312 311 313 315 316 316 316
312 309 310 313 313 313 313 313 313 313 313 311 311 313 313 313 313 310 309 309 307 308 308 308 311 317 310 311 310 308 306 308 305 305 303 302 303 307 308 312 311 313 316 317 313 313 316 312 312 312 314 315 316 316
312 308 312 313 313 313 313 312 314 314 315 315 315 315 316 314 312 311 311 311 310 309 309 313 309 313 311 312 312 312 309 314 316 315 306 309 310 310 311 311 310 312 314 315 316 313 310 311 311 313 314 314 315 315
312 308 313 314 313 313 312 312 315 318 318 318 318 318 315 314 314 315 318 317 318 320 317 318 316 317 314 315 316 315 318 316 320 315 315 313 312 312 311 312 311 309 311 311 314 314 314 314 313 313 314 314 314 317
311 310 313 313 313 313 312 313 314 316 317 316 317 318 317 317 318 319 318 318 320 321 320 321 321 317 318 315 315 319 321 318 316 315 314 311 314 312 312 312 313 311 309 310 311 312 312 313 313 315 317 317 316 317
311 311 313 313 313 313 313 316 316 315 318 319 319 320 319 318 319 319 321 320 321 319 319 319 322 321 322 321 322 321 318 319 315 316 313 314 313 313 312 311 312 312 311 310 311 309 310 311 311 312 312 313 313 313
312 310 312 313 313 312 314 316 316 317 319 318 318 316 319 319 318 318 318 319 317 317 319 320 321 320 319 320 318 320 319 316 316 315 316 314 313 312 312 310 310 310 311 311 310 311 310 309 310 311 311 311 312 311
313 311 311 312 313 312 313 316 317 318 319 318 318 319 317 315 315 314 314 314 315 317 319 320 321 319 318 317 316 316 317 315 315 315 314 311 312 312 310 310 309 308 308 310 310 310 311 309 307 309 310 310 310 310
315 319 316 315 312 313 315 318 318 318 317 316 315 316 314 314 314 314 313 313 314 316 318 318 318 318 316 316 316 316 315 316 314 314 312 311 312 310 309 309 308 307 307 306 309 309 310 309 308 306 306 305 305 307
316 321 316 316 315 315 318 320 319 317 317 317 317 316 314 314 314 313 313 312 313 315 317 316 316 315 314 315 315 314 314 314 313 312 311 310 311 308 308 308 307 306 305 305 305 308 308 308 309 307 306 306 305 304
317 317 315 316 315 320 321 319 318 318 318 318 318 317 316 314 314 313 312 312 313 314 314 315 313 313 312 311 311 310 309 309 311 311 310 310 310 309 309 306 305 305 305 305 304 307 307 307 307 307 306 306 306 305
312 312 314 315 317 320 321 319 320 319 318 317 317 318 317 316 314 314 313 312 312 312 312 312 313 312 312 309 308 307 308 307 306 307 309 309 309 307 307 306 304 304 304 305 305 306 306 306 305 305 304 304 303 302
312 313 312 313 318 325 321 321 321 319 318 317 319 318 317 317 314 314 314 313 312 312 311 312 311 310 309 308 307 306 306 305 306 306 306 305 305 305 305 305 304 303 304 305 305 304 305 305 304 304 303 302 302 301
317 318 313 317 326 323 320 319 321 319 319 319 319 319 318 317 316 314 314 314 313 312 312 310 309 308 309 308 307 307 306 305 305 305 304 304 303 305 305 304 303 303 303 303 304 304 302 302 302 302 302 302 301 300
322 314 319 324 323 322 322 319 320 320 320 320 318 317 318 317 317 315 314 314 314 312 311 311 310 309 308 308 307 307 306 305 304 304 304 303 303 304 304 303 303 303 302 302 302 302 301 300 300 301 301 301 300 299
317 319 325 324 323 322 320 321 321 320 319 319 318 318 317 317 317 316 316 314 314 313 312 312 311 311 311 309 308 308 306 305 303 303 303 303 302 303 303 303 303 302 302 302 302 302 301 300 300 301 300 300 300 300
320 325 325 323 321 320 321 322 320 320 320 320 320 319 319 318 317 317 316 314 313 312 313 312 311 310 310 309 307 306 305 304 303 302 303 302 301 302 302 302 302 302 301 301 301 301 301 301 300 300 299 298 299 300
324 319 322 317 320 320 321 319 318 318 319 319 319 320 319 318 318 317 316 314 313 313 312 311 310 309 309 308 307 305 304 302 302 302 302 301 300 300 301 301 301 301 300 300 300 300 301 300 300 299 299 298 298 299
315 320 318 320 320 320 320 319 319 319 318 318 318 319 319 320 319 317 316 314 314 313 312 312 311 310 309 308 307 305 303 302 301 301 300 300 300 300 299 300 300 300 299 299 300 300 300 299 299 299 299 299 298 299
316 321 321 319 319 320 321 320 320 320 319 318 318 318 320 317 318 318 316 315 315 314 313 312 311 310 309 308 307 304 303 302 301 300 300 300 299 299 299 299 299 297 297 298 298 298 298 299 299 298 298 299 298 298
322 321 321 321 322 320 322 321 319 321 319 317 318 319 320 320 319 317 316 315 315 314 313 312 311 309 307 306 305 303 302 301 301 301 301 301 300 300 299 299 298 298 297 297 297 297 297 297 297 297 298 298 298 297
322 322 322 321 322 322 321 319 316 321 320 319 319 319 317 317 315 314 316 315 315 314 313 313 311 309 307 306 306 304 303 302 301 301 301 301 300 299 299 298 298 298 298 298 297 296 295 295 296 296 297 297 297 297
323 323 323 320 321 322 322 322 322 319 319 318 317 318 319 318 318 316 316 316 315 313 313 311 310 308 307 306 304 303 302 302 301 300 300 300 299 299 299 298 298 298 297 297 297 297 296 296 297 297 297 296 296 296
322 322 321 321 321 321 321 321 319 318 319 319 318 317 317 318 314 315 315 314 312 312 311 309 309 308 306 304 302 301 300 300 301 300 299 299 299 298 298 298 298 297 297 297 297 297 297 296 296 296 296 296 296 295
322 322 321 320 319 319 321 322 321 318 319 318 319 319 319 320 320 317 312 311 310 309 309 308 306 305 304 302 301 300 299 300 299 299 298 297 297 296 296 297 297 297 297 296 296 296 296 296 296 296 295 295 295 295
322 321 321 320 321 320 319 320 318 319 320 320 317 317 318 319 317 314 311 309 308 307 306 305 304 303 302 301 300 300 300 299 298 297 296 295 293 293 295 295 295 295 295 296 296 296 296 296 296 296 296 295 295 295

GFSWCAN_850_thetae_039.txt.gz
Theta_e
306 305 308 308 308 309 309 310 310 310 310 309 308 308 308 307 308 307 308 309 308 306 307 307 307 306 306 306 309 308 309 309 310 311 312 312 314 314 313 313 315 315 317 317 318 322 328 318 321 324 329 323 322 321
306 308 308 309 309 310 310 310 310 309 309 308 307 308 309 309 308 309 309 309 309 308 308 308 308 308 308 307 307 308 308 308 308 309 310 309 310 312 312 315 313 316 314 316 316 318 316 316 316 318 318 318 318 318
309 309 309 310 311 311 311 309 308 307 307 308 311 312 311 309 309 309 309 309 309 307 307 307 309 309 308 308 307 308 308 308 307 307 307 309 311 311 312 313 311 312 312 312 313 314 314 315 316 317 317 318 316 316
309 309 310 311 311 310 307 307 308 311 312 312 313 312 310 310 309 309 310 310 308 308 306 309 309 308 309 308 308 308 308 307 307 306 307 309 309 308 309 309 309 310 311 311 313 313 313 316 313 315 315 315 316 317
309 311 312 310 308 309 311 312 313 313 313 313 312 311 310 310 310 311 310 307 307 307 308 308 309 309 309 308 308 307 308 307 306 305 306 307 306 306 307 307 310 310 309 309 311 310 310 311 311 311 311 313 315 316
311 312 311 309 312 313 313 313 313 313 314 312 312 311 310 311 312 312 310 309 309 308 307 309 310 311 310 309 308 307 306 305 304 303 302 302 304 305 306 307 308 307 306 306 308 308 308 309 310 311 310 312 314 316
312 312 308 311 313 313 313 313 313 313 313 312 312 311 310 310 311 311 310 309 307 306 307 310 313 313 312 310 308 307 306 304 303 301 300 300 301 304 303 307 306 308 311 314 317 312 308 310 311 313 311 312 313 315
312 311 308 313 313 313 313 313 313 313 312 311 312 313 312 312 312 311 310 309 307 307 307 313 315 313 312 312 312 308 306 304 304 303 301 300 301 301 304 306 309 308 310 312 315 317 315 313 312 313 313 313 312 315
313 311 309 313 313 313 312 312 314 314 315 314 314 315 314 314 314 312 311 311 310 309 311 314 315 317 312 312 311 309 307 309 306 305 303 302 302 308 308 309 309 309 309 311 315 315 313 311 315 314 313 313 313 314
313 310 311 313 313 313 312 313 315 314 317 317 317 317 317 316 315 313 313 313 312 312 311 315 313 316 313 313 314 313 309 313 316 313 307 307 309 311 311 312 310 310 308 308 309 312 314 312 312 313 313 313 314 316
312 310 312 313 313 313 313 314 315 318 319 319 320 320 317 316 316 315 319 318 318 319 318 317 319 318 317 316 317 315 318 316 319 315 315 311 313 312 311 311 312 311 309 307 308 309 310 310 313 314 313 314 314 314
313 310 312 313 313 313 314 316 315 317 317 315 317 318 320 319 319 320 320 320 321 319 320 321 319 320 319 316 315 318 320 318 318 314 312 311 312 311 312 310 309 311 310 308 307 308 308 308 309 311 315 316 316 315
313 311 310 313 312 312 314 316 317 317 318 320 320 321 321 319 320 317 313 323 322 320 319 320 321 320 321 319 320 320 319 318 315 314 313 314 311 309 310 310 309 307 311 310 307 307 307 307 307 308 310 310 310 311
313 314 311 312 313 312 314 316 317 317 318 321 319 314 320 322 320 318 317 317 315 315 317 321 320 320 320 320 319 317 318 315 315 312 315 313 310 309 309 310 307 307 306 310 311 307 306 306 306 305 306 307 308 309
313 316 315 316 316 313 315 317 317 318 319 319 318 316 319 315 315 314 314 314 314 315 317 320 321 319 319 317 317 315 315 314 314 314 314 312 310 307 308 308 307 306 306 306 310 309 307 306 305 304 304 306 306 305
312 316 318 316 315 315 316 318 319 319 318 318 316 317 315 315 315 314 314 314 314 315 316 317 317 317 317 317 315 314 314 314 314 314 312 311 309 308 307 308 306 305 305 305 308 309 307 306 305 305 304 304 303 303
312 320 318 315 316 317 319 319 321 318 318 319 318 317 316 315 315 315 314 313 313 315 317 316 316 315 314 313 313 314 313 313 312 311 311 311 311 310 309 307 305 305 305 305 307 306 309 308 306 305 305 304 304 303
314 314 312 314 315 320 323 320 319 319 319 318 319 318 317 315 315 315 314 313 313 313 313 316 312 313 313 311 312 310 309 308 306 307 309 310 309 308 308 305 304 304 306 305 307 305 305 305 305 304 303 303 303 303
314 312 312 312 314 320 323 320 320 321 319 318 318 318 317 317 314 315 314 313 313 312 312 312 314 312 312 310 309 307 308 306 306 307 307 305 305 305 306 305 304 304 305 305 305 305 305 304 303 303 302 301 300 301
314 313 312 313 317 322 326 322 321 322 320 318 320 319 318 318 317 314 315 314 313 312 312 312 312 311 310 309 308 307 307 305 306 306 306 305 304 305 305 304 304 303 304 305 304 303 303 302 302 302 301 300 300 300
317 323 316 318 324 324 322 319 322 322 320 320 320 320 319 319 317 315 315 315 313 312 312 311 310 309 309 309 308 308 308 306 305 305 306 304 304 304 305 304 304 303 303 303 303 302 301 301 301 301 301 300 300 300
320 317 316 326 324 323 322 321 319 320 321 321 320 319 319 320 318 316 315 316 315 313 312 312 311 309 310 310 309 308 308 306 305 304 304 304 303 303 303 303 303 303 302 302 303 302 301 301 301 300 300 300 300 300
318 318 326 326 323 322 319 321 322 322 321 320 320 320 319 318 318 317 317 315 315 313 313 313 311 311 310 309 309 309 308 306 304 303 303 303 302 302 302 303 302 302 301 301 302 302 301 301 300 300 299 300 300 300
326 324 327 325 323 320 321 322 323 321 320 322 322 322 321 319 319 318 320 317 314 314 313 312 312 311 311 311 310 307 304 303 303 302 302 302 301 301 301 302 301 301 300 301 301 301 301 300 300 299 299 299 300 300
324 320 322 320 319 321 321 321 319 320 321 321 322 323 322 317 316 319 319 315 314 314 313 312 311 310 310 309 307 305 303 302 302 302 301 301 300 300 300 300 300 300 300 300 300 300 300 300 300 299 299 298 299 299
312 319 319 321 321 321 320 322 321 319 319 319 321 319 319 317 318 319 317 316 315 314 313 313 312 311 310 310 308 306 304 303 302 301 301 300 300 300 299 300 299 298 297 299 299 299 299 299 299 299 299 299 298 299
314 322 321 320 321 322 321 320 320 320 319 320 320 320 321 321 319 313 314 316 315 315 314 313 312 311 310 308 307 304 303 302 302 301 301 301 300 300 299 299 299 298 298 298 297 298 298 298 298 298 299 298 298 297
324 323 325 323 324 322 322 318 320 321 321 321 320 320 320 321 318 314 315 315 315 314 313 313 310 310 309 307 307 305 304 303 302 301 302 302 301 300 299 299 299 298 298 297 297 297 296 296 297 298 298 298 297 297
323 323 322 323 324 322 321 321 321 320 321 320 321 321 318 313 315 317 317 316 315 315 314 313 312 311 309 307 306 305 303 303 302 301 301 301 300 299 299 299 298 298 298 298 297 296 296 296 296 297 297 297 298 297
323 324 324 323 324 324 324 323 322 322 321 322 319 319 318 317 315 316 316 312 312 313 313 311 310 309 308 305 303 302 301 302 301 301 300 300 300 299 299 298 298 298 298 298 297 298 297 297 297 297 297 296 296 296
322 322 322 322 323 321 321 322 322 321 319 317 315 315 318 315 315 315 312 311 310 311 310 308 306 305 304 302 301 301 301 300 300 299 299 298 298 297 297 298 298 298 297 297 297 297 297 297 296 296 296 296 296 295
323 322 321 323 322 321 320 321 321 319 320 318 315 318 319 318 319 314 310 309 308 307 306 305 304 302 302 301 301 300 301 300 299 298 297 296 295 295 296 296 296 296 296 297 297 297 297 296 296 296 296 295 296 295
322 322 322 322 321 321 320 320 320 320 321 321 320 319 320 317 315 313 310 308 307 306 305 304 303 302 301 301 300 300 300 299 298 297 296 295 294 294 294 294 294 295 296 297 296 296 296 296 296 296 296 296 296 295

GFSWCAN_850_thetae_042.txt.gz
Theta_e
307 309 309 309 309 310 310 310 310 308 307 307 307 308 309 308 308 308 308 308 309 307 308 308 307 307 307 306 307 307 307 306 306 305 309 310 311 312 313 313 314 314 317 317 316 323 324 316 317 319 316 317 317 317
310 309 309 310 310 310 309 307 306 307 310 311 312 312 310 309 308 309 309 309 309 308 309 308 308 308 309 308 307 308 307 307 307 304 304 307 310 311 311 314 311 313 313 313 314 317 314 314 317 316 314 315 315 316
309 309 311 311 310 308 309 312 312 312 312 312 313 311 309 308 308 308 309 310 309 308 308 308 309 308 309 308 308 308 307 308 307 306 305 306 309 307 308 310 309 309 310 310 308 311 310 312 315 314 312 312 312 315
310 311 312 310 309 312 313 313 313 313 313 313 312 311 310 310 309 309 309 308 308 307 306 309 309 310 308 308 308 307 307 307 307 306 306 306 308 306 306 306 306 309 309 309 308 308 309 311 312 310 310 311 312 314
311 312 311 309 312 313 313 312 312 313 313 312 311 310 310 311 311 311 310 309 308 308 307 309 310 311 309 308 307 307 308 307 306 305 305 306 305 305 303 303 309 308 309 309 310 308 309 309 311 311 309 310 311 311
311 312 309 310 313 313 312 312 312 313 312 312 311 311 312 312 313 312 311 310 308 307 307 307 311 312 311 309 307 306 305 305 304 303 302 303 303 305 304 306 308 309 309 310 312 312 313 312 313 312 311 313 311 311
312 312 309 312 313 313 312 312 313 313 312 314 312 311 311 311 311 311 309 308 308 307 308 310 312 313 313 312 310 309 307 305 303 302 302 301 302 303 303 305 305 308 308 309 310 314 314 316 314 313 312 312 313 314
312 312 308 313 313 313 312 313 314 314 311 312 314 313 313 313 313 312 311 310 309 309 309 311 312 313 313 312 312 309 308 307 305 304 303 302 302 301 304 306 310 308 308 308 309 310 313 313 313 312 312 313 312 314
312 311 309 313 313 313 313 313 315 316 315 314 315 315 315 315 314 313 313 312 310 310 312 313 315 316 313 313 311 309 308 310 306 306 305 304 303 309 309 311 310 309 308 307 308 309 309 310 312 313 315 314 312 313
312 312 310 313 313 312 314 314 316 317 318 317 317 317 318 316 315 314 314 314 313 312 311 312 315 313 314 313 313 312 309 311 313 309 306 305 308 311 311 310 311 309 307 307 308 308 308 308 310 313 313 313 313 313
312 312 309 313 313 312 313 316 315 316 318 319 319 320 318 318 315 317 316 315 316 314 315 315 317 315 316 314 315 313 314 311 306 310 311 311 311 310 310 309 310 310 309 307 306 307 308 307 308 310 312 314 314 315
312 313 310 311 312 312 312 316 316 317 316 316 315 316 319 319 318 316 313 316 312 314 318 318 319 318 317 316 314 315 316 312 314 310 310 311 309 309 309 309 307 309 310 308 306 306 306 307 307 307 307 308 310 312
312 313 313 311 312 313 313 316 316 316 317 317 320 319 321 318 312 314 310 312 313 317 316 315 317 320 319 317 317 313 315 314 312 309 310 312 310 308 308 309 306 306 308 309 306 305 305 305 306 306 306 305 306 307
312 313 314 316 316 315 314 316 317 317 317 319 322 309 314 313 313 311 310 310 313 314 314 315 319 318 319 316 312 315 312 309 310 311 310 311 311 307 307 306 306 306 306 310 307 305 304 304 304 304 304 305 305 305
312 312 317 316 315 314 314 317 317 318 318 321 318 312 313 314 314 313 313 313 313 313 314 317 319 317 312 313 310 310 312 310 311 313 311 311 309 308 306 306 305 306 305 308 309 307 305 305 304 304 303 302 303 303
313 312 316 315 315 315 317 319 320 319 319 318 317 315 315 314 314 314 313 312 313 312 315 315 313 312 312 311 312 313 310 308 310 310 311 311 310 309 306 305 304 305 305 307 308 308 306 305 304 304 304 303 302 301
314 315 313 312 314 316 319 319 320 320 318 318 318 316 315 314 314 314 313 312 312 312 310 311 313 313 308 309 311 308 307 306 307 306 308 310 309 308 305 305 304 305 305 306 305 307 307 306 305 303 303 304 302 302
314 314 313 312 312 315 321 322 320 318 319 318 318 317 316 315 314 314 313 313 312 311 311 313 310 309 309 310 307 305 307 306 305 306 308 305 308 307 306 304 303 305 305 306 305 304 303 304 301 300 300 302 301 301
315 314 312 312 313 318 321 322 319 321 320 318 318 319 317 317 315 315 314 313 312 311 311 311 308 308 307 308 307 307 306 306 305 306 306 304 304 304 305 304 303 305 305 304 304 303 302 302 302 301 300 300 300 300
315 315 314 313 316 321 324 322 320 321 321 319 319 319 319 318 318 315 314 313 312 311 310 308 308 310 309 308 307 307 306 306 306 305 305 305 304 304 305 304 303 303 304 303 303 302 301 301 301 301 300 300 300 300
315 322 316 316 322 323 323 320 320 321 321 319 321 320 319 319 318 315 315 313 313 312 311 310 309 309 308 308 308 307 307 307 304 304 305 304 303 303 303 303 303 303 303 302 302 301 300 301 301 300 300 299 300 300
315 314 316 325 325 324 324 322 320 319 320 321 321 320 319 319 318 316 316 315 314 312 312 311 311 309 309 309 309 309 308 305 305 305 303 303 302 302 302 303 302 302 302 302 301 301 301 300 300 300 299 300 299 299
319 318 323 325 325 323 320 318 321 322 321 320 320 320 319 320 317 317 316 317 314 313 313 312 312 311 311 310 311 310 308 307 303 303 302 301 301 301 302 301 301 301 301 301 301 301 301 300 300 299 300 300 300 299
325 323 326 325 324 319 320 322 323 324 322 321 320 320 318 318 316 317 316 314 315 313 313 312 311 311 311 312 310 308 304 303 302 301 301 301 300 301 301 301 301 300 300 300 301 300 300 300 299 298 299 300 300 299
321 321 319 320 320 320 321 321 320 319 320 318 318 319 318 315 316 315 317 316 315 314 312 312 310 311 309 309 306 304 303 303 302 301 301 300 300 300 300 300 300 300 299 299 300 300 300 299 299 298 299 299 299 298
312 321 318 321 322 322 320 322 322 320 319 319 318 319 317 317 317 317 314 314 314 314 313 313 312 311 310 309 305 304 304 303 302 301 301 300 300 299 299 299 299 298 298 298 298 299 299 299 299 299 298 298 298 298
313 319 320 320 321 321 320 320 319 319 320 319 319 320 318 315 312 315 313 315 316 315 314 313 311 310 309 307 305 304 304 302 302 301 301 300 300 299 299 299 299 298 298 298 297 297 297 297 298 298 298 298 297 297
326 324 323 323 323 321 321 320 319 319 319 320 319 315 315 314 312 314 314 314 314 314 313 313 310 309 308 308 306 306 305 303 302 302 301 300 300 299 299 298 298 298 298 298 297 297 296 297 298 298 298 297 297 297
322 321 323 322 323 322 322 321 321 321 320 320 319 318 315 313 315 316 316 315 315 314 313 312 311 309 308 304 302 302 303 302 301 301 301 300 299 299 298 298 298 298 298 297 297 296 296 296 297 297 297 297 297 297
321 322 323 324 324 324 323 321 321 320 322 321 317 315 314 316 315 313 312 311 311 311 310 308 306 305 302 302 301 301 301 301 301 300 299 299 298 298 298 298 298 298 297 297 297 297 297 297 297 297 296 296 296 296
323 323 321 321 322 322 322 321 319 319 318 316 317 315 315 313 313 309 309 309 309 307 307 306 304 303 302 301 301 300 300 300 299 298 298 297 297 297 297 297 298 297 297 297 297 297 296 296 296 296 296 296 295 295
324 324 322 321 321 321 321 320 318 317 317 318 318 317 315 316 317 312 309 307 306 305 304 304 303 301 301 301 300 300 299 298 298 296 294 294 294 295 295 296 296 296 296 297 297 297 296 296 296 296 295 295 295 295
324 322 323 322 322 321 320 319 321 318 318 318 318 319 319 315 311 310 307 306 305 304 303 302 302 301 301 300 300 300 299 298 297 296 296 295 294 294 293 295 295 296 295 296 296 296 296 295 296 296 296 295 295 295

GFSWCAN_850_thetae_045.txt.gz
Theta_e
309 309 309 310 311 309 308 311 312 312 312 312 312 311 309 308 308 308 308 309 308 308 308 308 307 307 307 306 305 307 306 305 306 306 308 307 310 310 311 311 313 313 316 316 317 323 327 313 318 319 314 315 313 313
309 309 310 311 309 310 312 312 312 312 312 312 312 311 308 308 308 308 308 309 309 308 308 308 308 309 309 308 307 307 307 306 306 305 305 307 310 309 310 312 310 314 311 313 312 317 313 310 316 313 312 311 311 311
310 310 311 309 309 312 312 312 312 312 313 313 311 310 309 308 308 308 308 308 308 306 308 309 309 308 308 308 308 307 307 307 306 306 305 306 309 307 309 309 311 309 309 310 309 309 309 310 312 312 312 312 311 311
310 311 311 308 311 312 312 312 312 313 312 312 311 310 310 310 309 309 308 307 307 307 306 310 310 309 308 307 307 308 308 307 306 305 304 305 308 305 309 307 310 309 308 309 309 308 310 312 313 314 314 314 313 314
311 312 311 309 312 313 312 312 313 313 312 312 311 312 312 311 310 309 309 308 308 308 307 310 310 311 309 307 306 307 307 306 306 305 305 306 305 305 304 305 310 309 310 311 311 310 310 310 313 314 313 313 314 313
311 312 310 310 312 313 312 313 313 312 314 312 311 312 312 312 312 312 311 310 309 308 308 308 312 312 312 310 308 306 306 305 304 303 302 302 302 304 306 309 308 308 308 308 310 310 313 313 314 315 313 313 313 313
312 312 309 311 312 312 313 314 315 312 313 313 311 311 312 312 311 310 310 310 308 308 309 310 311 313 312 312 310 308 307 306 304 303 302 302 303 303 303 308 310 308 308 308 308 309 310 311 312 313 312 312 311 313
312 312 309 312 312 312 314 314 316 315 313 314 314 313 313 314 313 313 312 311 309 310 310 312 313 313 313 312 310 309 308 307 306 305 303 303 303 301 307 309 310 308 307 307 308 308 308 309 310 312 313 313 314 314
312 312 310 312 312 312 313 314 315 316 316 316 316 315 315 315 315 314 313 312 311 310 311 311 315 316 314 313 311 310 309 308 307 307 306 305 304 308 309 310 310 307 307 306 307 307 307 307 308 312 313 313 313 313
312 312 310 311 312 312 312 315 315 316 317 318 318 317 318 316 315 314 313 313 312 312 311 309 314 314 314 313 313 312 309 311 312 309 307 307 306 309 309 309 310 308 306 306 306 306 306 306 306 306 308 313 313 313
312 312 313 310 312 312 313 315 316 316 316 316 317 319 316 317 315 316 314 312 313 312 313 314 314 313 315 314 314 313 312 310 306 311 311 310 309 308 308 307 307 309 307 306 306 305 306 306 305 305 305 306 312 314
312 312 313 311 311 312 313 314 316 316 316 317 316 317 317 318 316 313 310 312 311 311 316 316 317 316 316 315 314 314 314 310 312 308 308 311 308 309 307 306 307 307 308 307 305 305 304 305 306 305 305 304 304 308
312 312 314 314 316 316 314 313 315 316 316 316 320 318 320 317 308 313 308 310 309 312 314 313 315 318 316 315 315 314 314 311 308 309 310 307 311 307 306 306 306 306 308 307 307 305 304 303 304 304 304 304 304 304
312 312 313 316 317 314 314 313 316 316 317 318 320 308 312 310 311 309 309 308 312 312 312 313 317 316 317 314 309 313 309 307 308 309 308 305 310 307 306 305 305 306 306 308 307 306 304 304 303 302 301 301 303 304
313 312 311 317 316 314 315 316 316 317 317 319 319 309 311 313 313 313 313 312 312 312 313 318 315 313 309 311 307 307 309 306 308 309 307 310 310 309 307 305 304 305 305 307 308 307 305 303 304 303 302 301 300 301
314 313 313 315 313 313 317 318 318 319 318 319 319 313 313 312 312 314 313 312 312 311 313 313 310 309 311 308 310 311 307 305 307 308 308 310 310 308 305 304 304 305 305 306 307 307 306 305 303 303 303 302 300 300
313 314 313 313 311 312 315 318 319 320 318 318 318 316 315 314 313 314 313 313 312 311 307 309 311 312 306 308 309 305 304 303 305 305 308 309 309 309 307 305 305 305 305 305 304 306 306 306 305 304 302 301 301 300
313 314 314 312 311 312 318 320 321 319 318 319 317 317 316 315 314 314 313 312 312 311 311 310 308 308 308 309 306 303 307 306 305 304 305 304 303 303 305 305 303 304 305 305 304 303 303 302 301 300 301 301 301 300
313 315 314 312 312 315 320 323 322 319 320 319 318 317 317 317 316 315 314 313 312 310 310 309 307 306 305 306 306 307 306 305 305 305 305 304 304 303 304 305 303 304 304 303 302 301 302 301 300 300 300 300 299 299
315 315 315 316 314 318 322 324 320 320 320 319 319 318 318 318 318 317 314 313 312 311 309 307 306 309 309 308 307 307 305 306 305 304 304 304 304 303 303 304 304 304 304 302 301 301 301 301 300 300 299 299 300 299
315 319 317 314 320 322 322 322 319 321 321 320 319 320 320 319 318 317 314 312 312 311 309 310 310 309 308 308 307 306 306 305 304 305 305 304 302 302 302 303 303 303 303 302 301 301 301 300 300 300 299 299 299 299
317 316 317 319 324 325 324 323 321 319 319 319 320 320 319 318 318 317 317 315 314 312 311 311 310 309 309 308 309 309 307 305 306 303 303 301 301 302 302 302 301 301 301 302 301 301 300 300 300 299 300 299 299 299
320 320 320 324 325 323 321 319 319 320 320 320 320 319 318 318 316 315 315 315 314 313 312 311 312 311 309 310 309 309 308 307 304 302 301 301 301 301 300 300 301 301 301 301 301 301 300 299 299 299 299 299 299 299
319 322 325 325 324 320 320 320 322 323 322 319 317 319 316 316 315 315 317 315 315 313 312 312 312 312 311 311 311 310 309 305 303 302 301 300 300 300 300 300 300 300 300 300 300 300 300 299 299 299 300 299 299 299
320 320 319 317 318 319 318 319 319 318 317 317 317 318 316 315 314 315 315 315 314 314 313 313 312 311 310 310 309 307 304 303 302 301 300 300 300 300 300 299 299 298 298 299 299 300 299 298 298 299 299 299 298 298
313 322 317 319 320 319 319 319 320 318 317 317 318 317 317 315 316 315 314 314 314 314 314 314 313 312 310 308 306 304 304 303 302 301 301 301 300 299 299 299 299 298 298 298 298 299 299 299 299 298 298 298 298 297
314 320 318 319 319 320 319 320 319 318 319 319 317 315 317 314 314 311 313 314 315 314 314 313 312 311 309 307 305 306 306 303 302 301 300 300 299 299 299 299 299 298 298 298 297 297 298 298 298 298 298 297 296 297
322 324 321 322 322 321 320 318 317 317 318 319 314 314 315 314 312 313 315 315 315 314 313 312 310 309 306 306 307 306 305 303 301 302 300 300 300 299 299 298 298 298 298 297 297 296 297 298 298 298 297 297 296 297
321 323 324 321 322 321 321 319 319 319 320 319 316 314 314 313 314 313 310 311 313 313 312 312 310 308 303 304 304 303 302 302 302 301 300 300 299 298 298 298 298 298 297 297 296 296 296 296 297 297 297 297 297 297
319 320 322 322 322 321 323 322 321 320 320 320 317 316 314 314 309 309 309 310 311 310 310 310 304 303 303 301 301 300 300 300 300 300 299 299 298 298 298 298 298 298 297 297 297 297 297 297 297 297 296 295 296 296
322 322 322 321 320 321 322 321 321 321 318 317 315 314 314 311 308 307 307 307 307 306 305 305 303 302 302 301 300 300 299 298 297 296 295 295 296 296 297 297 297 297 297 297 297 296 296 296 296 296 295 295 295 295
323 323 322 319 319 320 319 318 317 316 316 316 315 315 313 315 315 308 306 306 306 305 304 303 303 302 300 300 300 299 297 296 296 295 294 294 294 294 295 296 296 296 296 296 296 296 296 296 296 296 295 295 295 295
323 323 323 322 320 319 319 319 318 317 317 317 317 317 316 314 311 308 305 305 304 304 303 302 301 300 300 300 299 298 297 296 295 295 294 294 293 293 295 295 295 294 295 295 296 296 295 295 295 295 295 295 295 295

GFSWCAN_850_thetae_048.txt.gz
Theta_e
310 310 310 311 309 311 312 312 312 312 312 312 311 309 308 308 308 308 308 309 308 308 309 308 308 307 308 306 306 306 306 304 305 307 308 307 308 309 310 310 309 310 311 311 312 317 325 310 315 318 313 312 311 311
310 310 311 310 309 312 312 312 312 312 312 312 311 309 308 308 308 308 308 308 308 308 309 309 309 307 308 308 307 306 306 306 306 307 306 306 309 307 309 312 309 314 310 312 312 313 309 309 311 311 313 312 312 312
310 311 311 309 310 312 312 312 313 313 312 312 310 310 309 308 308 308 308 307 307 306 308 309 309 309 308 307 308 306 306 307 306 305 305 306 308 305 310 310 312 310 308 310 309 309 310 311 311 313 312 312 313 314
310 311 311 309 311 312 312 313 313 312 313 312 312 311 309 309 309 309 308 308 307 307 306 310 310 309 307 307 307 307 307 307 306 305 304 305 307 305 307 307 310 309 309 308 308 310 311 312 312 312 313 313 313 315
311 311 311 309 312 312 313 314 313 313 312 312 312 312 311 309 309 309 309 308 308 308 307 309 310 311 310 309 309 307 306 305 304 304 304 305 304 304 305 305 308 308 310 311 311 310 311 311 312 314 313 313 313 314
311 312 311 309 312 312 313 315 313 313 313 312 312 312 312 312 311 312 312 311 309 308 309 307 310 311 311 310 310 308 308 307 304 302 302 302 302 304 305 308 308 308 308 308 309 308 309 310 311 312 312 313 313 312
311 312 311 310 312 312 314 314 316 314 314 314 312 313 313 312 312 311 311 311 308 308 308 311 311 311 312 311 310 309 308 308 306 304 303 303 303 303 304 308 308 308 307 307 308 308 308 308 309 310 312 313 313 314
311 312 311 310 312 312 312 315 315 316 316 316 315 315 314 314 314 313 313 312 310 309 309 309 313 313 311 311 309 309 308 307 307 306 306 304 304 303 307 307 308 307 307 306 306 307 307 307 308 309 310 312 313 313
311 312 312 310 311 312 312 315 314 316 317 317 316 316 316 315 315 314 312 311 310 310 310 309 311 317 313 312 311 309 309 308 307 307 307 305 304 307 307 308 309 307 306 306 305 306 306 306 306 306 308 309 310 314
312 312 312 312 310 311 312 314 316 316 316 317 318 318 318 317 316 313 313 312 312 310 310 308 312 314 314 313 313 310 310 310 310 309 308 305 305 308 308 307 308 308 306 305 304 304 304 305 305 306 304 305 308 309
312 312 312 313 311 311 312 313 315 316 316 316 315 317 316 316 315 313 314 312 311 312 312 312 312 311 315 314 314 313 311 309 310 309 310 308 304 306 306 307 306 308 305 305 304 303 303 304 304 305 305 304 305 307
312 312 312 313 313 315 315 314 314 315 315 315 316 316 317 318 315 312 308 309 308 310 313 314 316 314 316 315 313 313 314 310 311 306 309 303 305 308 306 306 306 308 306 305 304 303 302 302 302 303 304 304 303 304
312 312 312 313 316 316 314 313 314 315 315 316 319 318 318 316 306 310 305 309 308 310 312 312 312 317 315 314 314 314 313 309 306 308 308 304 308 308 307 305 305 305 307 306 304 303 303 302 301 300 301 302 304 304
312 312 313 312 315 317 313 314 314 315 316 317 319 310 311 309 309 308 308 307 312 311 311 310 314 314 315 312 307 311 307 306 307 308 305 303 309 309 308 306 305 305 305 307 306 305 303 302 303 301 300 300 301 302
312 313 313 312 317 316 313 315 316 316 317 317 319 308 310 312 312 313 312 311 312 311 311 316 311 311 308 309 305 305 308 305 303 305 305 309 310 308 306 305 305 304 305 306 308 306 305 304 303 302 302 301 300 300
312 313 314 317 316 313 312 315 317 317 318 318 319 314 312 310 312 313 313 313 312 311 311 311 308 308 309 306 309 310 307 302 305 305 306 306 308 309 307 305 306 305 305 305 305 306 306 305 303 303 302 301 301 300
311 312 311 313 313 312 311 314 317 319 319 318 317 317 315 313 313 314 314 314 312 310 307 307 310 311 304 307 308 304 305 303 305 305 305 304 305 306 305 306 306 304 305 304 304 303 303 305 301 300 301 300 301 300
311 311 312 314 313 311 314 318 320 320 319 318 317 317 316 315 315 315 314 314 312 310 310 308 308 308 308 308 305 303 306 306 305 304 305 304 303 303 303 305 306 304 305 304 303 302 302 301 300 299 299 299 299 299
311 312 315 314 314 314 318 322 323 319 319 319 319 318 317 317 316 316 315 313 312 310 310 308 306 305 305 305 306 306 306 305 305 305 304 304 304 303 303 304 305 304 303 302 301 301 301 300 300 300 299 299 299 299
313 315 316 316 316 315 320 323 322 319 319 320 318 318 318 318 318 318 316 313 311 311 309 309 306 307 308 308 307 306 305 305 305 303 304 303 303 303 302 302 303 303 303 301 302 301 301 300 300 300 299 299 299 298
316 317 315 313 317 320 321 321 321 319 320 320 319 318 318 318 318 315 315 313 311 311 310 308 308 309 310 308 307 305 306 305 305 305 304 303 303 301 302 302 302 303 302 301 301 301 300 300 300 299 299 299 299 298
318 318 317 319 323 324 324 323 322 321 320 320 319 319 318 318 317 316 315 315 313 310 310 310 312 310 310 310 308 307 307 306 305 305 303 301 301 301 301 301 301 302 302 301 301 301 300 300 299 299 298 299 299 299
318 320 320 323 324 324 322 319 318 319 319 320 319 317 316 316 315 316 316 315 314 312 311 312 311 310 311 311 309 308 309 308 307 304 302 301 301 300 300 300 300 300 300 301 301 300 300 300 299 299 299 299 299 298
318 321 323 325 324 321 321 319 321 321 319 316 314 316 315 315 315 313 313 315 314 312 312 312 312 311 310 310 310 310 309 309 306 302 301 300 300 300 300 300 300 299 299 300 300 299 299 300 299 299 298 299 299 298
319 319 319 315 317 319 317 318 318 317 317 316 316 315 315 315 311 311 313 314 314 313 312 313 313 312 311 310 309 309 308 306 303 303 301 300 300 300 299 299 298 298 298 298 299 299 299 299 299 299 299 298 298 297
312 321 317 317 319 317 317 317 318 317 316 316 317 316 315 313 313 313 312 313 314 314 314 313 313 312 310 309 308 306 303 304 305 302 300 300 299 299 299 298 298 298 297 297 298 298 298 299 299 299 298 298 297 297
314 320 319 319 317 320 318 319 318 316 317 318 316 314 315 314 313 311 313 314 314 314 313 312 311 311 308 305 306 305 306 306 303 302 301 300 301 299 299 299 299 297 297 297 297 297 298 298 298 298 297 297 297 297
319 322 319 320 320 320 318 317 317 316 316 318 315 314 315 313 311 314 312 311 312 313 313 312 311 308 305 307 306 303 303 303 301 300 301 301 299 300 300 298 297 297 297 296 296 296 298 298 298 297 297 296 296 297
319 324 324 322 321 321 320 319 318 318 319 318 315 313 314 313 313 310 309 309 311 312 312 312 308 306 303 301 300 300 300 301 300 301 300 300 300 299 298 297 297 298 297 296 296 296 296 297 297 297 297 297 297 296
318 318 321 320 320 320 322 321 320 320 319 319 318 315 314 311 309 308 307 307 307 306 306 305 302 302 301 300 300 300 299 299 298 298 298 298 298 298 298 298 297 297 297 297 297 296 296 296 296 296 295 296 296 295
320 321 321 320 319 319 321 321 321 320 319 317 315 313 313 309 307 307 306 306 305 304 304 302 301 300 300 299 299 297 297 295 294 294 294 294 295 296 296 297 297 297 297 297 296 296 296 296 295 295 295 295 295 295
322 322 321 319 319 320 320 319 318 316 317 315 314 314 313 312 313 308 306 305 304 304 303 302 302 301 300 299 298 297 296 295 294 294 293 293 294 296 297 296 296 296 296 297 297 296 296 296 295 295 295 295 295 295
322 322 321 319 318 318 317 317 317 317 316 316 316 315 313 314 313 308 306 305 304 303 302 302 301 300 299 298 297 297 296 295 294 294 293 293 293 294 294 294 294 295 295 296 296 296 295 295 295 295 295 295 294 294

GFSWCAN_850_thetae_051.txt.gz
Theta_e
309 310 311 310 309 312 312 312 312 313 312 311 311 308 308 308 308 308 308 308 308 308 309 308 308 307 308 306 307 305 308 306 307 308 309 309 309 310 310 309 308 309 310 311 310 312 317 309 312 321 316 314 313 313
309 310 311 310 310 312 312 312 313 312 312 311 310 309 308 307 308 308 308 308 308 308 309 309 309 308 307 307 307 306 306 307 306 306 307 307 309 308 311 312 308 310 311 314 314 315 310 311 311 312 315 315 315 313
309 310 311 309 311 312 312 314 313 313 312 312 311 309 308 308 308 308 308 308 308 307 309 309 309 308 307 307 307 307 307 308 307 305 304 306 308 306 310 310 309 307 309 312 310 311 311 310 312 314 313 315 314 314
309 311 311 309 312 312 313 315 313 313 312 313 312 310 309 309 309 309 308 308 307 308 309 311 310 308 308 307 307 306 306 307 306 304 305 307 308 304 308 306 308 308 309 309 310 309 311 311 311 313 313 314 314 314
309 311 311 310 312 312 313 316 313 314 312 312 313 312 310 309 310 309 309 309 309 309 311 310 310 309 309 308 307 307 307 305 305 305 306 306 304 304 305 307 307 307 307 309 311 308 310 310 310 310 313 314 314 313
310 311 311 310 311 312 313 314 315 313 314 312 312 312 312 312 312 311 312 311 310 308 309 313 311 311 310 310 309 308 308 308 306 304 304 304 304 305 309 308 307 307 306 305 307 307 308 308 309 309 310 313 314 313
310 311 312 310 310 312 312 315 314 316 316 315 314 313 313 313 313 312 311 311 310 308 308 313 313 312 312 311 310 310 308 307 306 305 305 305 305 305 308 309 309 308 307 305 305 306 307 307 307 308 309 312 312 313
310 311 312 312 310 311 312 315 314 315 316 316 316 315 315 315 315 314 314 312 310 309 309 313 315 312 312 311 310 309 308 308 306 307 308 307 307 305 309 308 308 308 306 306 305 305 306 307 305 307 309 311 312 312
310 311 312 312 312 310 311 313 315 315 316 316 316 316 315 315 315 314 313 310 309 310 312 310 315 319 312 311 310 309 309 312 308 311 310 308 305 310 309 308 308 308 307 305 304 305 305 306 305 304 305 307 307 309
310 311 311 312 313 310 311 313 314 315 315 316 315 317 317 316 314 313 313 312 311 311 309 308 311 317 314 312 312 310 309 311 312 311 309 308 310 308 308 307 307 308 306 305 304 304 303 304 304 303 303 303 304 306
310 311 311 312 312 313 315 315 313 314 315 316 316 316 316 315 314 312 313 313 312 313 311 310 311 316 314 317 317 313 312 311 312 311 311 311 311 309 307 306 306 307 305 304 303 303 302 302 302 302 303 303 303 305
310 311 311 312 313 316 315 313 313 314 314 314 314 315 316 317 314 314 312 311 314 317 314 316 316 312 315 314 315 315 316 312 314 309 309 311 311 309 307 305 305 306 306 305 303 303 302 301 301 302 302 302 303 304
310 311 312 312 312 314 316 313 313 313 314 315 317 318 316 315 313 314 314 315 316 313 312 313 313 316 314 314 316 317 316 315 309 311 312 311 310 309 308 305 305 305 306 306 305 303 303 302 301 301 302 301 302 303
310 311 312 313 312 313 317 314 314 314 315 316 318 316 316 315 314 315 315 315 313 311 311 310 312 318 315 316 313 315 312 310 311 311 313 311 310 309 308 306 305 304 305 306 307 305 304 303 303 302 302 301 301 301
310 311 313 313 313 316 317 313 314 315 316 316 318 318 316 315 312 312 312 312 313 311 310 315 313 312 313 313 311 311 311 311 312 312 312 311 307 308 307 306 305 305 304 305 307 307 306 303 303 303 301 301 301 300
310 312 314 311 311 313 312 312 313 315 317 317 317 319 315 313 315 313 313 313 313 312 309 310 313 313 313 312 312 311 311 311 311 311 308 306 307 309 308 308 308 304 304 305 304 304 306 305 302 300 300 300 301 301
310 310 310 311 313 313 312 311 315 317 318 318 319 317 317 315 315 315 314 314 313 311 313 311 313 313 308 311 312 310 312 310 308 306 304 303 303 303 303 303 304 304 304 304 304 303 303 302 300 300 299 299 299 299
311 311 311 313 314 312 312 315 318 320 321 320 318 318 317 316 316 315 315 314 312 310 310 312 310 311 310 311 311 309 308 306 304 304 305 304 304 304 303 304 304 305 304 304 303 301 302 300 300 300 299 299 299 299
311 312 314 315 314 316 316 320 321 321 320 318 318 318 318 317 315 315 315 314 311 310 309 309 309 310 310 307 307 306 306 304 305 304 304 304 304 303 302 302 303 304 304 303 301 301 301 300 300 299 299 299 299 299
315 315 317 316 318 316 318 322 322 320 320 319 319 318 317 317 317 315 314 312 310 310 312 311 308 308 308 308 307 307 305 305 305 304 305 304 303 302 301 301 302 302 303 301 301 301 300 300 300 299 299 299 300 299
316 317 317 315 316 317 319 321 322 321 319 319 318 318 318 318 317 316 316 312 313 313 312 308 309 308 308 309 309 308 307 305 305 306 305 303 301 301 301 301 301 302 300 301 301 301 300 300 299 299 299 299 299 298
316 317 319 318 322 323 324 323 323 322 320 319 319 318 320 319 318 316 315 316 313 310 309 310 310 310 309 309 311 310 307 307 307 305 304 301 301 301 300 300 301 301 301 301 301 301 300 299 299 299 299 299 299 298
316 320 320 322 323 324 322 319 318 318 322 322 319 320 319 318 316 314 317 315 314 313 311 311 312 311 312 311 310 310 308 307 307 306 302 301 300 300 300 300 300 300 300 299 300 299 299 299 299 299 298 299 299 299
317 319 322 324 324 322 321 319 319 320 319 319 319 320 319 317 314 315 317 316 314 313 311 311 312 312 311 310 309 309 309 308 307 304 303 300 300 299 300 299 298 297 298 299 299 299 300 299 299 298 299 299 298 298
318 319 319 316 318 319 319 320 321 320 321 319 319 320 318 316 317 316 317 315 314 314 313 312 312 312 310 309 308 307 308 306 304 305 304 300 300 300 299 298 298 297 298 299 298 299 299 299 299 299 299 298 298 298
309 318 317 318 319 320 320 321 320 321 319 319 319 318 317 317 316 316 316 315 314 314 313 312 312 311 309 307 306 305 304 303 303 304 303 300 299 300 298 299 299 298 297 297 298 299 299 299 299 299 298 298 297 298
314 321 320 319 316 318 320 320 319 319 320 320 320 318 319 316 316 314 314 313 313 313 312 312 310 307 306 306 305 304 303 303 305 302 300 300 301 299 300 300 298 297 297 296 296 297 299 298 298 298 298 297 298 297
319 320 322 320 319 319 321 320 320 321 320 319 317 318 317 315 315 313 311 311 311 312 312 309 306 304 302 301 300 300 301 301 300 300 301 300 299 300 298 297 297 298 297 296 296 297 298 298 297 297 297 297 297 297
319 322 322 323 321 321 321 322 321 319 318 318 320 318 316 313 310 308 307 307 306 306 308 305 302 301 300 300 299 299 299 299 300 300 300 300 298 297 297 297 297 298 297 296 296 297 297 297 297 297 297 297 297 296
318 318 321 321 322 323 323 321 320 319 319 319 318 314 313 311 308 307 307 306 305 305 304 302 301 300 300 299 298 296 295 295 294 296 297 297 297 297 298 298 297 297 297 297 296 297 297 296 296 296 296 296 296 296
319 319 321 321 322 319 320 320 320 319 319 319 317 314 313 308 307 307 306 305 304 303 302 301 301 299 298 297 297 296 295 294 293 293 294 295 296 296 297 297 297 297 297 297 296 296 296 296 296 296 296 295 295 296
320 321 323 323 321 320 320 320 319 318 318 316 315 314 312 310 311 307 306 305 304 303 301 301 300 299 298 297 296 295 294 294 293 293 293 295 296 296 296 296 296 296 296 296 296 296 296 296 296 295 296 296 295 295
321 321 320 319 319 319 318 318 318 318 317 317 316 315 314 314 315 310 308 306 303 302 302 301 300 299 298 297 296 295 294 293 293 293 293 294 294 294 294 294 295 295 296 296 296 296 296 295 295 295 295 295 295 294

GFSWCAN_850_thetae_054.txt.gz
Theta_e
309 310 311 310 310 312 312 314 313 312 312 312 311 310 308 308 308 309 309 308 309 310 312 310 309 308 309 308 309 308 310 309 308 310 312 312 312 311 312 311 310 311 311 312 312 313 315 310 308 316 316 317 316 316
309 310 311 309 311 312 313 314 313 313 313 311 310 309 308 308 308 309 309 308 309 309 312 311 310 309 308 309 308 309 310 310 307 307 308 308 311 310 311 313 310 310 310 313 313 314 311 310 309 309 315 316 317 316
309 310 311 310 311 312 314 314 313 313 313 311 309 309 308 308 308 308 309 308 308 311 313 313 312 311 309 308 309 310 311 310 309 305 305 307 308 307 312 310 310 310 307 312 311 313 311 310 310 309 313 316 317 316
309 310 311 310 311 312 313 315 313 313 313 312 310 310 309 309 309 309 311 309 310 310 314 314 311 311 309 309 308 309 309 310 308 307 307 307 308 304 309 307 309 306 308 309 309 309 308 310 309 310 313 315 316 315
309 310 311 311 311 312 313 314 315 314 312 313 312 310 310 310 310 310 310 310 310 311 316 315 312 312 310 309 309 309 309 310 310 310 309 309 305 305 306 308 308 307 306 308 310 306 309 309 309 309 312 314 316 315
309 310 311 311 310 312 312 314 314 316 315 313 313 313 312 312 312 312 313 311 311 310 311 317 312 313 312 311 313 312 310 311 311 310 309 308 307 307 310 310 308 306 306 305 305 306 307 306 307 308 309 312 313 313
308 310 311 312 310 311 312 315 314 315 316 316 315 314 313 314 313 315 314 312 312 310 312 316 317 314 313 312 314 313 311 311 311 310 310 310 309 308 309 310 308 308 306 305 305 305 307 307 306 307 308 310 310 313
308 310 311 312 312 311 311 313 315 315 316 316 316 315 315 314 314 314 313 314 311 310 311 317 319 317 313 313 312 312 313 313 312 312 311 310 310 309 312 309 309 308 306 305 305 303 306 306 306 306 308 308 308 309
308 310 311 311 312 312 311 312 314 315 315 315 315 314 314 314 315 315 313 311 310 310 314 315 320 321 313 314 312 311 312 316 312 314 312 311 308 312 312 308 309 308 306 305 304 303 303 304 305 304 305 306 306 305
309 310 311 311 312 312 313 314 314 314 314 315 315 314 317 316 315 313 313 311 310 311 310 313 315 319 316 316 316 313 311 314 316 313 312 313 313 309 308 308 309 309 307 306 305 304 303 303 304 304 303 303 303 304
309 310 311 311 312 314 315 314 313 313 314 315 317 319 316 315 315 313 316 317 317 318 315 315 317 318 317 318 318 315 314 314 316 313 313 313 314 310 308 307 308 309 309 307 306 305 304 303 303 303 304 303 304 304
309 310 311 311 312 312 316 315 313 313 314 315 315 314 315 315 317 319 317 317 320 319 317 316 316 316 318 318 317 317 318 316 315 312 313 314 312 310 309 307 307 309 309 308 307 306 305 304 304 304 304 304 303 304
309 310 311 312 312 312 313 316 315 313 314 314 317 320 320 320 319 319 321 318 318 315 314 315 316 318 316 317 318 318 319 318 314 313 314 313 311 310 309 308 306 307 309 309 308 307 306 306 305 305 304 304 304 302
310 310 311 313 313 312 313 317 316 313 315 318 321 318 321 319 319 319 319 318 317 316 315 313 315 319 317 318 318 318 316 315 314 315 313 312 312 311 309 308 307 306 306 307 308 308 307 305 305 305 304 304 304 303
310 310 312 313 313 314 315 314 313 312 315 320 321 321 320 318 318 318 317 317 317 316 315 314 318 318 318 317 315 315 314 313 314 313 313 311 311 310 310 308 308 307 306 306 307 307 307 305 304 304 304 304 304 304
310 311 314 311 310 311 313 312 311 314 317 320 321 321 319 319 318 318 318 318 318 316 315 314 315 316 316 314 314 313 312 313 313 311 309 308 311 310 310 309 309 308 306 306 306 306 306 305 304 304 302 302 302 303
310 310 310 310 311 313 313 311 313 317 321 322 320 320 320 320 320 320 318 317 315 316 318 315 314 315 312 312 312 311 311 310 308 308 307 308 308 308 307 306 307 308 306 306 306 306 306 305 304 302 302 302 301 302
310 310 311 312 314 313 312 313 319 322 323 321 321 319 320 320 320 319 318 317 316 313 314 313 311 311 311 312 310 308 306 306 307 307 307 306 307 308 307 306 307 308 308 307 305 304 305 304 303 302 301 301 301 301
311 313 315 315 315 317 318 320 319 323 321 320 320 321 321 320 320 319 318 315 312 312 313 313 309 311 310 309 310 310 308 308 307 307 306 307 307 306 306 305 305 306 308 307 304 304 304 302 302 301 301 301 301 301
314 316 317 318 318 318 320 323 323 325 323 322 321 321 320 321 320 319 315 315 316 316 315 314 309 309 312 312 310 310 308 307 306 307 307 307 304 304 304 304 304 304 306 305 303 302 303 302 302 301 301 301 301 301
316 317 318 317 315 315 320 322 323 323 321 321 322 323 323 322 319 318 317 317 315 314 314 313 312 310 312 312 312 311 310 308 306 308 308 306 304 303 303 303 303 303 304 303 303 303 302 303 301 301 301 301 301 301
314 316 319 318 321 324 325 325 325 325 323 323 323 323 323 321 319 318 318 316 316 314 313 313 314 313 313 313 312 312 312 310 308 309 306 304 303 303 302 303 303 303 303 303 303 302 302 301 301 301 301 301 301 300
316 319 322 322 325 325 323 321 322 322 323 324 322 322 322 321 319 318 318 316 316 316 314 312 312 312 313 313 312 313 311 311 309 308 304 303 302 302 302 301 301 301 301 301 301 301 301 300 300 301 300 301 301 300
316 322 324 325 326 325 324 324 322 323 324 322 322 322 322 320 318 318 317 316 316 316 315 315 314 313 312 311 311 310 309 310 309 306 305 304 302 302 302 301 300 300 300 301 301 301 301 301 300 300 300 300 300 300
320 319 321 319 322 323 322 322 323 323 323 323 322 323 322 319 319 318 317 316 315 314 314 314 313 312 310 308 307 307 306 307 306 306 305 303 302 302 301 300 300 299 299 300 300 300 301 300 300 301 300 300 299 299
314 319 318 319 321 323 323 324 324 324 323 323 322 323 321 320 318 318 316 314 314 315 315 315 313 310 308 307 306 305 305 305 305 305 305 302 302 302 301 301 301 300 298 299 300 300 300 300 300 300 299 298 297 299
316 321 323 321 321 322 324 325 324 323 324 323 323 323 321 317 317 317 315 314 314 315 313 311 308 306 304 303 302 301 301 302 302 302 301 302 302 301 301 301 300 299 299 299 299 299 300 300 299 299 299 299 298 298
320 322 323 323 322 324 325 325 325 325 323 323 322 322 318 316 317 315 313 312 309 308 307 305 303 302 302 301 300 300 301 301 301 301 301 301 301 300 299 299 298 298 297 297 298 299 299 299 299 299 298 299 298 298
322 323 323 324 324 325 326 326 325 324 323 322 323 321 319 317 314 313 312 311 307 306 305 303 302 302 301 299 298 298 298 299 301 301 301 301 300 299 299 299 300 298 298 297 297 298 298 298 298 298 298 298 298 298
321 321 323 323 324 325 325 325 326 324 322 322 321 318 317 314 312 309 310 309 307 306 304 303 302 302 300 299 298 297 296 297 297 298 299 299 299 298 299 299 299 298 298 298 297 297 297 297 297 297 297 297 297 297
322 322 323 324 325 325 324 323 322 322 322 322 320 320 318 312 308 307 308 308 305 304 303 303 302 301 299 298 298 297 296 296 297 297 298 298 298 298 298 299 299 299 298 298 298 297 297 297 297 297 297 297 297 297
322 323 325 327 326 324 323 324 324 324 323 322 321 319 316 314 312 308 306 306 305 305 303 302 301 300 298 297 296 295 295 296 296 297 298 298 298 298 298 298 298 298 298 298 297 297 297 297 297 297 297 297 296 296
326 325 325 324 324 325 323 323 323 323 322 322 321 320 318 318 318 312 307 306 306 305 303 302 300 299 298 297 296 295 294 294 293 293 294 295 296 296 297 297 297 297 297 297 297 297 297 297 297 296 296 296 296 295

GFSWCAN_850_thetae_057.txt.gz
Theta_e
310 309 310 311 310 312 314 314 314 314 312 310 309 309 309 308 309 313 311 310 314 316 315 313 312 312 311 311 313 312 313 312 309 311 313 312 313 312 312 313 312 315 314 315 315 314 314 314 314 314 314 310 310 318
310 309 310 311 310 312 314 314 314 313 312 310 309 309 309 309 309 313 315 311 309 312 315 314 313 312 311 311 312 312 312 312 309 309 309 309 312 311 311 317 313 313 314 315 313 313 315 313 312 313 311 309 309 318
310 309 310 311 310 312 313 315 314 313 313 310 309 309 309 309 309 309 314 313 314 315 316 314 315 314 312 312 311 312 313 311 310 308 307 308 309 307 313 312 313 312 309 313 313 313 311 309 310 310 309 308 311 317
309 309 310 311 310 312 313 314 314 314 313 312 310 310 310 310 310 309 315 314 314 316 317 315 314 315 313 313 312 311 311 311 311 309 309 309 310 306 309 309 310 308 308 309 310 309 307 309 309 307 308 311 315 316
309 309 310 311 310 311 312 314 315 316 314 313 313 310 310 310 312 313 314 315 314 315 317 316 315 315 312 313 313 312 312 313 312 312 310 310 307 307 308 308 310 307 308 309 310 307 307 308 307 306 308 313 314 314
309 309 310 311 311 311 312 314 314 315 316 315 313 313 313 313 313 315 317 316 315 314 315 318 318 316 316 314 314 315 314 313 313 311 311 310 307 309 310 310 308 307 307 306 306 305 306 307 306 305 308 311 312 314
309 309 310 311 312 311 311 313 315 315 316 316 315 315 314 314 314 315 317 315 314 313 313 317 319 318 316 316 316 316 314 313 313 311 313 312 311 309 310 310 309 307 306 306 304 304 306 306 305 305 307 308 309 311
309 309 310 311 311 312 311 311 314 315 316 315 315 315 315 315 315 316 315 315 314 313 315 319 320 320 318 318 317 315 315 315 314 314 312 312 311 310 311 310 310 307 306 306 306 305 305 307 305 305 305 306 307 307
308 309 310 311 311 312 311 311 313 314 314 314 314 313 314 314 316 316 316 313 311 313 316 319 320 321 318 319 317 316 314 317 314 316 314 313 314 312 313 310 311 309 307 307 306 305 305 305 305 305 304 304 305 306
308 308 309 310 311 313 314 314 314 314 313 314 314 316 319 317 317 315 313 314 313 313 314 318 317 319 319 320 319 317 316 317 319 316 313 316 315 312 309 309 310 310 308 307 306 306 305 305 305 306 305 304 304 304
308 308 309 310 311 312 315 315 313 313 313 316 320 321 319 317 314 316 318 320 320 320 319 318 317 320 318 320 321 318 319 317 317 315 315 316 316 312 310 309 309 310 309 308 307 307 306 306 306 305 306 304 305 305
308 309 310 311 311 311 312 316 315 313 319 318 317 317 318 317 319 322 321 319 320 321 318 319 317 317 319 320 320 319 320 318 318 315 315 317 314 312 310 309 309 309 310 309 308 307 307 306 306 306 306 306 304 303
308 309 310 311 312 312 312 314 317 314 313 318 320 321 322 322 324 322 326 321 320 318 318 317 317 317 321 319 319 320 320 318 315 315 319 315 313 312 310 309 309 308 309 310 310 308 307 306 306 306 306 305 305 306
308 309 310 313 312 312 312 313 317 314 314 321 322 322 322 322 321 320 321 320 319 319 319 318 317 316 320 320 319 319 318 316 316 317 317 314 314 312 311 309 309 309 308 308 309 309 308 306 306 306 306 306 305 305
309 310 310 313 311 311 311 311 311 312 319 321 321 323 321 319 319 319 320 320 320 320 319 319 317 317 321 319 316 316 315 314 314 315 314 312 312 311 312 311 310 310 308 308 308 308 308 306 306 305 304 305 305 305
310 310 314 312 310 310 311 313 312 316 320 321 321 321 320 319 320 321 321 321 320 319 320 318 318 316 314 314 316 316 315 315 314 311 310 311 311 311 310 309 308 309 309 308 308 308 307 307 306 305 304 304 304 304
310 316 311 310 311 312 314 313 319 320 322 322 321 320 320 320 322 321 321 322 321 320 320 316 317 315 315 316 315 314 314 312 310 309 308 309 310 309 308 308 308 308 309 308 308 308 307 306 305 305 304 304 304 304
312 313 311 313 313 314 313 313 320 322 323 322 321 321 322 322 322 322 321 318 317 317 317 317 314 316 315 315 315 313 312 311 309 309 309 309 309 309 308 308 307 307 309 309 308 307 307 305 305 304 304 304 304 304
310 311 314 315 315 317 321 323 322 323 322 322 322 322 322 322 324 320 317 317 317 317 316 315 314 315 314 313 313 312 310 310 309 309 309 309 309 308 307 307 307 306 307 309 308 306 306 304 303 303 303 303 303 303
313 316 316 317 317 321 321 322 325 324 324 322 322 321 323 323 321 320 318 317 316 315 315 315 315 313 312 313 312 311 311 310 310 310 310 309 309 307 307 306 305 305 305 307 306 305 306 305 304 303 302 302 302 302
316 318 317 318 315 317 321 322 324 323 322 322 323 322 322 322 319 318 318 316 315 314 314 314 314 313 313 314 314 314 314 312 312 310 310 310 307 306 305 305 305 305 305 306 306 305 304 304 304 303 303 302 302 302
320 314 322 319 322 325 325 324 324 324 325 323 323 322 322 321 319 318 318 315 315 315 314 314 316 316 316 315 314 314 314 314 313 311 309 307 306 305 305 305 305 305 305 305 304 305 305 304 303 303 303 303 302 301
315 319 323 324 325 326 323 324 324 324 324 323 322 322 321 320 319 319 319 316 316 316 316 315 316 316 314 314 313 313 312 312 312 311 308 306 305 304 304 304 303 303 303 303 303 303 304 302 302 302 302 303 303 302
314 323 324 324 325 325 325 325 324 324 324 324 323 323 322 320 320 318 318 316 315 314 314 315 314 313 312 312 309 310 308 309 309 308 308 307 305 304 304 303 302 302 302 302 303 303 303 303 301 302 302 302 301 301
321 319 321 320 324 325 325 324 324 324 323 323 323 321 321 320 319 318 316 314 313 314 314 315 312 312 310 308 307 306 306 305 306 307 307 306 305 303 303 302 302 302 301 302 302 302 302 302 303 303 301 301 301 301
317 320 319 321 322 324 324 325 324 324 324 323 322 323 322 320 318 317 316 314 313 313 313 312 310 308 306 305 304 304 303 303 304 306 306 304 304 304 303 303 303 301 301 301 301 302 301 302 302 301 301 300 298 301
320 321 322 322 323 324 325 325 325 324 324 323 322 323 321 318 318 318 317 315 313 311 309 307 306 305 304 303 303 303 303 303 303 303 304 303 302 301 302 302 301 300 300 300 300 301 301 301 301 301 301 300 300 300
320 321 324 324 324 324 325 325 325 324 323 322 322 323 321 320 319 318 316 314 311 309 306 305 304 303 302 301 301 302 303 303 303 302 302 301 300 299 300 300 299 298 298 298 300 301 301 300 300 300 300 300 299 299
321 321 323 325 325 326 326 325 324 323 324 323 323 323 322 320 317 316 315 313 310 309 307 306 305 304 303 301 300 299 300 301 303 304 303 301 301 300 300 300 300 300 299 298 298 299 299 299 299 299 299 300 299 299
322 323 324 324 325 325 325 323 324 326 325 324 323 322 320 318 316 315 314 312 312 310 307 305 304 303 302 302 300 299 299 299 300 301 302 301 300 300 300 300 300 300 299 299 298 298 298 299 298 299 299 299 299 299
322 323 323 324 324 324 325 326 326 325 325 324 323 323 322 319 313 312 313 313 311 309 306 305 304 302 301 301 301 300 300 299 300 300 300 300 300 300 300 300 299 299 299 299 299 299 299 299 299 298 298 298 298 298
323 323 324 325 325 326 326 326 326 326 326 325 324 323 320 317 315 312 311 311 310 309 306 305 304 302 300 299 298 298 299 300 300 300 300 300 300 300 299 299 299 299 299 299 299 299 298 299 298 298 298 298 298 297
323 324 324 324 323 326 326 325 325 325 325 324 324 324 322 321 321 316 311 310 310 310 307 305 303 301 300 299 298 297 298 298 297 297 298 298 298 298 299 299 299 299 299 299 299 299 298 298 298 298 298 297 297 297

GFSWCAN_850_thetae_060.txt.gz
Theta_e
320 310 309 310 310 311 312 314 314 313 311 310 310 310 310 310 312 316 316 313 317 318 316 316 314 314 314 313 315 314 315 314 312 313 313 313 313 313 312 313 314 315 317 317 316 315 316 316 315 315 317 315 315 314
321 310 309 310 311 311 312 314 314 313 311 310 310 310 310 310 311 316 318 316 314 316 317 316 316 314 314 313 314 314 314 312 311 311 310 309 312 311 311 315 312 318 315 317 313 314 315 314 314 313 313 313 313 312
322 310 309 310 311 311 312 314 315 314 313 310 309 309 309 310 310 310 316 317 316 317 318 316 316 316 314 313 313 314 314 313 312 310 310 310 311 308 312 312 311 310 309 312 311 314 310 310 312 311 310 311 311 312
322 310 309 310 311 310 312 314 314 315 313 313 310 309 310 310 310 310 315 317 316 317 318 318 316 316 316 314 313 313 313 312 312 311 312 310 310 307 311 310 310 309 309 309 310 309 307 310 308 308 308 308 310 311
320 310 308 310 311 310 311 313 314 315 316 314 313 312 310 310 312 314 316 317 317 316 318 317 318 317 317 315 315 314 313 313 314 314 314 313 309 309 308 307 310 308 308 308 310 307 306 306 307 306 306 306 309 313
316 310 308 310 311 312 311 311 315 315 315 316 316 314 313 313 314 316 319 317 316 316 316 318 319 319 318 316 315 315 315 315 314 315 313 311 310 310 312 311 309 309 309 305 305 303 305 305 305 305 305 307 309 310
312 309 308 310 311 312 312 311 312 315 315 316 316 316 316 315 314 317 319 317 315 314 315 318 320 320 319 318 317 316 316 315 314 314 314 313 312 310 313 311 311 308 309 308 307 305 305 306 305 304 305 305 306 307
310 309 308 310 311 311 312 311 311 313 315 315 315 314 314 314 314 316 317 316 315 314 315 319 320 322 320 320 319 317 317 316 316 316 315 314 312 312 311 312 311 309 308 308 307 307 306 305 305 304 303 304 305 306
310 309 308 310 310 311 312 312 312 313 314 314 314 314 314 315 317 318 317 315 314 315 317 319 319 321 321 320 319 318 317 320 317 317 316 315 314 309 312 311 312 309 309 308 307 307 307 307 307 305 303 303 304 304
309 308 308 310 310 311 313 314 314 314 313 313 315 317 319 319 318 317 316 315 314 315 316 319 317 320 319 321 321 320 317 318 320 318 315 318 315 313 312 311 311 312 311 309 308 308 307 307 307 306 305 303 303 303
309 308 309 310 310 311 311 314 315 313 315 319 321 321 322 319 318 317 319 321 322 322 320 320 320 321 319 323 324 319 320 321 320 319 317 320 319 314 312 311 310 312 310 309 309 308 307 307 307 307 306 306 304 303
309 308 309 310 311 311 311 311 316 315 320 320 318 316 320 320 321 322 325 323 322 323 321 320 319 318 320 321 321 321 321 321 320 316 316 320 317 314 312 311 311 311 311 311 310 308 308 308 307 307 307 307 306 306
309 309 309 310 312 313 312 311 315 317 314 318 321 322 323 323 321 324 325 324 323 318 321 321 321 318 317 320 321 321 318 319 316 317 322 316 315 314 313 311 310 310 310 311 311 310 309 308 307 307 307 307 307 307
308 309 310 311 313 312 312 313 314 316 312 322 324 320 323 323 324 322 323 324 320 318 322 321 321 321 320 320 316 317 318 316 319 318 316 316 313 313 312 312 312 311 311 310 311 311 310 308 307 306 306 306 307 307
308 310 310 311 312 310 310 310 310 310 317 322 322 321 322 321 321 322 321 321 322 321 321 320 320 320 317 316 316 318 317 316 317 315 314 311 313 313 312 313 312 312 311 310 310 309 309 308 307 306 306 306 306 306
309 310 312 314 312 310 311 312 312 315 321 321 321 321 322 322 322 323 322 320 320 320 320 319 319 320 318 318 317 317 317 317 315 312 311 312 311 311 311 310 309 309 311 310 310 310 309 308 307 306 305 306 305 305
310 317 317 312 311 312 313 314 321 321 322 322 322 322 322 322 320 323 320 318 317 318 319 318 319 318 317 317 317 316 315 315 312 312 311 312 312 311 310 310 309 308 310 310 311 309 309 307 307 307 306 306 306 306
316 314 312 311 314 314 314 313 321 322 323 323 324 323 323 325 323 320 319 318 317 316 316 317 316 316 315 315 317 314 312 311 311 311 311 311 311 310 310 309 309 308 308 311 309 308 307 308 307 305 305 305 305 305
310 310 312 315 315 316 323 324 322 324 324 323 323 323 324 323 322 320 319 319 318 318 317 316 316 315 314 313 313 313 312 312 312 311 311 311 310 312 310 309 308 308 308 309 310 308 307 307 305 305 304 304 305 303
311 314 316 317 316 321 324 322 325 324 325 324 323 322 323 322 321 320 319 318 317 315 315 316 316 314 314 314 314 313 314 314 313 312 311 311 311 311 309 308 307 307 307 307 310 307 307 307 305 305 303 303 304 304
316 320 318 317 318 318 322 322 325 325 325 322 324 321 322 322 321 319 318 316 315 316 315 315 316 316 317 316 315 315 315 314 314 314 312 312 309 308 308 307 307 307 306 307 307 306 304 306 305 305 305 304 303 302
323 320 320 322 322 324 323 323 324 325 325 323 323 323 323 321 320 319 318 317 316 314 316 316 315 315 315 315 311 314 310 313 313 312 311 311 309 308 307 306 305 305 306 304 304 304 306 305 305 304 304 304 304 303
316 318 322 324 324 324 323 324 325 325 325 325 323 324 321 319 320 317 319 316 317 316 316 317 316 317 316 315 314 313 312 312 312 309 310 309 308 306 306 305 304 304 305 304 304 305 305 303 303 303 304 304 303 303
319 321 324 323 323 324 325 326 326 324 324 323 325 323 322 320 320 319 317 315 315 315 315 315 314 314 312 311 309 310 308 307 311 310 309 308 307 307 305 304 303 303 303 303 304 303 302 301 303 304 303 303 303 303
320 320 322 320 324 326 327 326 325 325 325 325 324 322 320 320 320 318 317 314 313 314 313 313 312 310 309 307 306 306 305 305 306 309 308 307 306 305 305 304 303 302 302 302 303 304 303 302 303 303 302 301 301 302
316 320 319 322 322 324 324 325 325 326 324 323 324 323 321 322 320 319 318 315 313 312 311 309 308 307 307 305 305 305 305 305 307 306 305 304 303 303 303 303 303 302 301 302 303 302 301 301 302 302 301 301 300 302
318 321 322 321 324 325 325 323 324 323 323 324 324 324 322 321 320 319 318 317 315 311 309 307 306 306 305 304 305 305 305 304 305 304 303 302 302 302 302 302 301 300 301 302 303 302 302 302 302 302 302 301 301 301
320 322 324 323 323 323 325 325 324 325 325 322 323 324 324 320 320 319 318 316 313 309 307 307 306 305 304 302 302 303 305 305 305 305 303 302 301 301 301 300 299 298 299 300 302 301 301 301 301 301 301 301 301 300
321 321 322 324 324 325 324 324 325 324 324 321 325 325 323 322 320 318 317 315 313 311 309 308 307 306 305 303 302 301 302 303 305 305 305 303 302 301 301 301 301 300 299 298 297 297 299 298 298 300 300 300 300 300
320 321 322 323 325 325 323 322 324 324 321 321 322 323 322 320 319 318 316 314 314 313 309 307 306 305 304 304 303 302 301 302 302 303 304 303 302 301 301 301 301 300 300 300 300 299 300 300 300 300 300 300 300 300
322 322 323 323 325 324 323 322 323 323 323 323 323 322 323 321 318 316 316 316 315 312 308 307 306 304 304 303 303 303 302 302 302 302 302 302 302 301 301 301 301 301 301 300 300 300 301 300 300 300 300 299 299 299
322 322 323 326 324 321 323 323 324 325 326 324 323 323 322 320 319 315 314 315 313 313 309 307 306 304 302 301 301 302 302 302 302 302 302 302 302 301 301 301 301 301 300 300 300 300 300 300 299 299 299 299 298 299
321 322 323 326 323 323 323 325 324 324 323 323 323 324 323 323 322 318 315 314 314 313 311 307 305 303 302 302 301 300 301 301 301 301 301 301 300 300 301 301 301 300 301 301 300 300 300 300 300 299 299 299 299 299

GFSWCAN_850_thetae_066.txt.gz
Theta_e
326 325 324 322 310 310 310 311 313 314 313 310 310 310 311 312 313 317 316 316 317 318 316 317 315 314 313 313 309 313 311 310 307 303 302 300 305 307 307 308 310 311 314 312 313 312 313 310 312 314 311 309 309 309
326 325 324 321 309 310 310 311 313 314 314 311 310 310 310 310 310 312 317 317 316 317 317 317 318 317 315 314 313 313 311 311 310 302 303 298 307 307 303 302 306 310 308 307 309 314 310 308 307 309 307 307 307 307
325 325 324 319 309 310 311 311 313 313 315 314 312 309 309 309 310 310 315 317 316 317 316 318 318 317 315 314 313 313 312 312 311 310 307 303 302 304 306 305 308 307 308 305 305 308 308 306 306 307 306 306 306 306
324 324 324 315 309 310 311 310 311 314 314 315 314 313 311 310 310 310 314 315 317 316 316 317 318 317 315 315 314 313 312 313 311 311 309 308 306 307 304 303 306 305 306 304 304 305 305 307 307 305 305 306 306 305
325 324 323 311 309 310 311 311 311 313 315 315 316 316 315 314 313 314 317 317 317 316 315 316 315 316 317 315 314 314 313 313 312 311 312 310 307 306 307 306 307 307 304 302 303 305 305 305 305 305 304 305 304 305
324 324 322 310 309 310 311 311 311 311 314 315 315 315 315 316 316 315 318 317 316 316 315 312 317 317 317 317 316 314 314 313 313 313 313 313 310 307 304 308 306 307 308 308 307 307 306 305 306 305 305 305 304 305
324 324 318 309 309 310 311 311 311 311 311 313 314 314 314 314 314 315 317 318 317 316 315 314 314 318 318 317 317 316 315 314 314 315 314 313 310 309 302 306 308 309 309 309 309 308 307 306 306 306 305 305 305 304
324 323 312 308 309 310 310 312 313 312 312 313 313 313 313 314 315 315 316 316 316 315 315 314 314 319 319 317 317 316 316 315 316 316 315 313 310 309 308 309 309 310 311 310 308 308 307 307 307 307 306 305 303 303
323 319 310 308 309 310 310 312 314 313 313 313 313 313 317 317 318 319 318 318 316 316 315 316 316 316 320 319 319 318 317 316 317 315 313 313 306 309 308 309 309 311 309 309 309 308 308 307 307 307 307 305 305 305
322 314 310 308 309 310 310 310 312 314 313 317 318 319 319 320 320 318 316 315 313 313 314 314 316 316 317 319 318 317 314 317 317 315 315 311 309 312 308 309 312 311 309 309 308 308 308 307 307 307 306 306 306 306
318 311 309 308 308 309 310 310 310 312 314 319 320 320 319 318 318 316 316 316 316 317 315 315 318 318 319 317 316 313 317 310 311 317 317 315 315 314 313 311 312 312 311 310 309 309 308 308 308 308 307 307 306 306
314 309 309 308 309 310 311 311 310 310 315 318 317 317 316 318 319 319 318 321 317 317 320 316 316 318 318 319 316 314 315 311 316 313 311 310 313 313 313 313 312 311 312 311 309 309 309 308 308 308 307 307 306 306
310 309 308 308 310 312 312 312 311 312 315 314 319 321 320 320 319 324 322 320 318 317 318 318 317 319 320 318 313 313 315 316 313 310 311 311 311 310 310 311 312 312 311 311 311 311 309 309 308 307 308 306 306 306
309 309 308 309 310 312 312 312 313 313 311 313 322 314 320 322 323 322 317 315 319 320 320 319 317 320 317 313 313 315 314 311 315 314 312 308 310 310 311 310 311 312 311 311 311 311 310 309 307 306 306 306 306 306
308 308 309 310 310 312 310 310 310 311 310 320 322 315 321 322 321 321 321 319 319 319 319 318 317 318 314 314 313 312 315 313 313 310 307 312 311 309 310 311 311 311 310 311 310 311 307 307 308 306 306 306 306 306
308 309 316 312 313 312 311 311 312 311 314 320 320 320 322 322 323 322 320 320 316 314 317 317 314 313 314 312 313 313 313 311 310 309 312 312 312 310 311 311 310 310 309 310 309 309 307 307 308 307 306 306 306 306
309 315 318 315 313 310 313 313 313 315 321 322 322 322 323 322 321 322 321 318 317 316 312 314 314 315 312 312 313 311 310 308 311 312 312 311 311 311 311 310 310 309 309 309 309 309 308 308 308 306 306 306 306 306
315 317 316 312 310 311 315 313 322 324 323 322 323 323 322 321 319 321 319 318 317 317 316 314 315 312 312 313 311 310 313 313 312 312 312 312 311 311 309 308 310 309 309 309 309 309 308 307 307 305 306 306 305 305
308 309 309 310 311 314 321 323 314 321 323 324 322 321 321 321 322 318 320 319 317 317 317 315 313 312 310 313 313 314 314 314 312 310 310 311 311 310 309 309 310 308 308 308 308 308 307 306 306 305 305 305 305 305
309 311 315 314 315 315 321 324 323 324 325 325 323 322 320 320 319 319 319 319 319 316 315 313 312 314 315 314 311 311 312 310 311 311 311 311 310 309 309 308 308 306 306 305 305 305 306 304 303 305 303 303 304 304
313 320 323 319 317 317 317 321 323 326 325 324 322 322 323 322 321 320 318 316 314 315 315 316 315 314 314 315 314 311 311 311 312 310 310 308 308 308 306 307 306 305 305 304 305 305 306 306 303 304 303 303 302 302
322 321 317 317 320 323 323 320 317 324 324 322 322 319 322 323 322 321 318 317 315 315 315 315 315 312 314 316 315 312 309 312 312 310 308 308 305 305 304 304 305 304 303 304 304 305 305 304 304 304 303 302 302 302
317 322 319 321 324 324 324 324 325 325 324 321 322 323 323 323 322 319 319 317 317 317 316 312 313 314 315 317 313 306 306 312 310 308 307 306 305 304 304 303 303 304 304 303 303 303 304 303 304 304 303 302 302 302
317 319 321 324 324 321 322 325 324 322 323 321 322 324 321 322 321 319 315 316 317 317 314 312 312 308 311 306 305 307 310 308 306 307 306 305 304 303 303 303 303 303 303 302 302 302 303 303 304 303 303 303 303 302
319 321 321 321 322 325 324 324 324 322 323 323 323 322 321 322 319 318 314 316 317 315 312 309 308 306 306 306 307 307 306 305 304 305 305 304 304 304 303 303 303 302 302 301 302 303 303 302 301 302 302 302 302 302
311 319 320 321 322 323 325 325 324 324 322 325 323 322 321 321 320 319 316 314 312 311 309 308 307 305 306 306 305 306 306 305 303 302 302 302 303 302 302 301 301 301 301 302 302 302 302 301 301 301 301 301 301 302
313 319 320 320 320 323 323 322 322 320 324 325 322 323 321 322 321 319 315 313 313 310 308 307 306 305 305 305 305 305 305 304 302 302 302 301 302 301 301 300 301 302 302 302 302 302 302 301 302 302 301 301 301 301
318 319 321 321 322 323 325 325 325 323 325 324 322 324 323 323 320 318 316 313 312 308 307 307 305 304 303 303 305 305 305 303 302 302 301 301 300 300 299 299 299 301 301 302 302 301 301 301 301 301 301 300 300 300
317 318 319 320 320 324 323 326 324 323 323 323 324 323 323 322 319 319 315 314 310 309 307 306 306 304 303 302 302 303 305 304 302 302 301 301 301 301 301 300 300 300 298 299 300 298 299 300 300 300 300 300 300 300
315 313 316 318 323 326 324 324 324 322 323 322 323 322 320 319 318 318 316 314 313 310 309 307 307 305 304 303 303 302 302 303 304 304 302 301 301 301 301 300 300 300 300 300 300 301 300 300 300 300 299 299 300 300
314 315 316 317 323 324 323 322 322 322 321 321 319 321 322 320 318 317 317 315 314 310 308 306 305 305 304 303 303 303 302 302 303 302 302 302 301 301 301 301 301 301 300 300 300 300 300 300 300 300 299 299 299 299
316 317 317 324 325 325 323 322 323 323 322 319 318 320 321 321 319 318 317 316 315 313 309 307 306 305 304 304 304 303 303 302 302 302 302 302 302 301 301 301 301 301 300 300 300 300 300 300 299 299 299 299 299 299
317 319 323 325 324 324 323 324 325 324 323 322 321 320 320 321 321 318 317 316 316 315 311 307 306 305 305 304 302 303 303 301 302 302 302 302 301 301 301 301 301 301 301 301 301 300 300 300 300 300 300 300 299 299

GFSWCAN_850_thetae_069.txt.gz
Theta_e
325 326 326 324 323 309 310 310 312 313 314 310 310 310 311 311 311 313 315 315 316 317 316 316 315 314 313 312 308 311 309 308 304 301 299 297 298 298 302 305 309 307 308 304 311 310 310 309 309 313 309 309 308 307
324 325 325 324 321 309 310 310 312 313 314 313 310 310 310 310 310 310 313 315 316 315 316 317 317 317 316 314 313 312 309 309 308 300 298 296 307 306 302 301 305 306 305 305 309 308 309 308 308 306 307 307 306 306
325 325 324 323 318 309 310 310 311 314 314 314 314 311 309 309 309 310 311 312 315 315 315 316 316 317 317 313 313 312 311 311 310 309 304 300 298 299 304 302 305 305 306 304 304 304 307 306 306 306 306 306 306 305
326 324 324 323 314 308 310 311 310 312 315 315 315 315 314 313 311 311 314 315 316 315 314 315 317 318 316 314 314 313 313 311 310 310 307 301 300 304 297 300 302 303 304 302 301 303 305 306 306 305 305 305 304 304
325 324 324 323 310 309 310 311 311 311 313 315 315 315 316 315 315 314 316 317 316 316 314 316 315 314 317 315 315 315 313 312 311 310 308 306 306 304 305 306 306 305 303 302 301 304 305 305 305 306 305 305 305 304
324 324 324 320 309 309 310 310 311 311 311 313 314 315 315 314 314 315 317 317 316 316 315 310 315 316 317 316 315 314 313 313 312 312 311 311 310 307 301 301 306 306 307 307 306 307 307 307 307 306 306 305 305 305
324 324 324 316 308 309 310 310 311 311 311 311 313 313 313 313 313 314 316 317 316 316 315 314 312 317 316 316 314 313 313 313 313 313 313 312 310 308 304 301 308 309 308 307 307 308 308 308 306 306 306 306 305 305
324 323 323 312 308 309 309 310 312 313 313 313 313 313 313 315 316 318 317 316 316 316 314 313 311 316 317 316 316 314 314 313 313 314 313 311 309 308 308 308 310 309 308 308 308 309 308 307 307 307 307 307 305 305
324 324 321 309 308 309 309 310 312 313 313 314 318 316 317 318 318 318 317 316 317 315 314 313 313 317 319 317 317 318 317 316 316 315 314 312 307 309 309 311 311 309 310 309 309 309 308 307 307 307 307 307 306 306
322 323 315 308 308 308 309 309 310 311 314 315 318 319 320 320 317 317 315 314 314 315 314 313 314 314 316 317 317 317 316 315 316 315 313 312 310 311 311 311 308 308 310 309 308 308 308 308 307 307 307 307 306 306
323 317 309 308 308 308 309 310 310 310 312 317 318 320 319 317 317 317 316 315 316 314 314 314 315 314 318 318 317 315 315 310 313 315 313 309 309 310 312 310 311 310 310 309 309 309 308 308 307 307 308 307 307 306
318 311 309 308 308 309 311 311 310 310 312 315 316 315 315 317 318 317 317 320 316 315 317 317 317 317 318 317 316 314 315 312 316 310 311 310 310 310 311 312 312 312 311 311 310 310 309 308 308 308 307 307 307 305
312 309 308 308 309 311 311 311 310 310 313 314 317 317 319 319 319 322 321 316 315 317 317 317 315 318 317 316 312 310 314 316 312 311 313 309 310 310 311 310 310 311 312 312 311 310 309 309 309 309 308 306 306 306
310 309 308 308 309 312 312 312 312 311 310 311 320 313 317 320 321 319 316 315 319 318 319 318 317 316 316 312 311 314 313 308 312 310 309 306 311 310 310 310 311 311 311 311 311 311 310 309 308 308 306 306 306 306
308 308 308 309 309 311 310 311 311 311 310 314 320 314 318 321 321 321 321 320 319 319 317 317 316 316 311 312 310 309 314 311 309 307 305 310 311 310 309 310 310 310 310 309 311 311 310 310 308 308 307 306 306 306
308 309 313 312 311 312 311 311 312 311 311 315 317 318 320 321 321 322 321 320 317 314 316 314 311 311 312 310 312 312 311 309 308 307 311 311 311 311 311 310 310 310 310 309 309 309 309 308 307 307 307 306 306 306
308 314 316 315 313 310 311 312 312 312 316 321 321 322 322 321 321 320 321 319 317 315 310 311 312 314 309 310 312 309 308 306 310 311 312 312 311 311 311 311 309 309 309 309 309 309 308 308 308 307 307 306 306 306
313 317 317 313 310 309 314 313 319 323 322 322 321 323 322 323 322 320 320 318 317 316 314 312 312 311 311 312 309 308 312 313 312 311 309 309 311 311 311 310 309 309 309 308 307 307 307 307 307 306 305 306 305 306
308 309 309 309 311 311 316 322 314 317 321 323 322 321 321 321 321 321 319 319 316 317 316 314 311 309 309 310 312 313 313 313 310 310 309 310 310 309 309 308 309 309 308 307 307 308 308 306 306 306 305 305 305 305
308 309 312 315 314 314 316 320 323 321 323 324 322 323 322 320 320 319 319 319 319 317 314 311 311 313 313 315 312 310 310 310 311 310 309 309 309 309 308 307 307 306 305 305 305 306 306 305 305 305 305 305 305 304
312 319 322 319 317 317 316 318 323 325 324 324 322 321 321 321 321 320 318 316 316 314 313 315 315 314 313 314 314 311 311 311 312 310 309 308 306 306 305 306 305 304 303 303 305 305 304 304 304 303 303 304 304 304
319 321 318 316 319 319 321 318 314 321 324 322 321 320 320 322 322 321 320 316 314 314 314 315 315 313 313 315 315 312 309 312 311 309 307 305 304 303 303 304 302 303 303 304 304 304 304 304 303 304 303 303 303 303
315 319 320 318 323 322 322 323 324 324 323 321 321 322 321 321 321 319 317 317 316 316 316 312 312 313 314 316 311 306 308 312 309 305 304 305 303 303 302 303 303 303 303 303 304 304 303 303 303 303 303 302 302 303
313 317 319 323 322 322 321 324 324 323 323 321 319 322 322 320 320 317 316 316 316 316 313 312 313 312 311 306 306 308 309 306 306 305 304 303 303 302 302 302 302 302 302 302 302 303 304 303 302 303 302 302 302 302
317 319 321 319 321 323 322 323 323 320 319 320 322 322 320 322 317 317 314 313 317 316 313 312 310 309 307 306 308 307 305 305 304 304 304 305 302 302 302 302 302 302 301 302 303 302 301 303 303 302 302 302 301 301
310 317 317 320 320 320 321 322 322 321 321 322 322 322 320 319 320 318 314 315 316 315 312 309 307 306 305 305 305 305 305 303 302 302 303 304 303 302 301 300 300 301 302 302 301 301 300 300 300 300 301 301 301 301
311 317 319 319 319 321 322 322 322 319 322 324 321 321 320 321 321 318 316 313 313 311 308 307 306 305 305 305 305 305 304 303 302 301 301 302 302 301 300 299 300 302 302 302 301 301 301 301 301 301 301 301 301 301
316 318 318 319 320 321 323 321 321 321 320 323 322 322 323 321 320 318 315 314 312 307 306 306 305 304 304 304 305 305 304 303 302 301 300 299 298 299 300 299 300 301 302 302 301 301 301 301 301 301 300 300 300 300
313 317 318 317 318 321 324 323 323 323 323 323 321 319 319 322 322 319 317 314 309 308 307 306 305 304 303 303 304 305 304 303 302 301 300 300 300 300 300 300 299 299 300 301 300 300 300 300 301 300 300 300 300 300
311 310 314 315 316 321 325 322 323 321 323 323 323 322 322 321 320 318 316 314 310 309 308 307 306 305 304 303 302 303 304 304 304 303 302 301 301 301 300 300 300 300 299 299 300 300 300 300 300 299 299 299 299 299
312 313 313 313 315 319 322 323 323 321 322 322 321 322 321 318 318 317 316 315 314 312 309 308 306 305 304 303 302 302 303 303 303 303 302 301 301 300 300 300 300 300 300 300 300 300 300 300 300 299 299 299 299 299
312 313 314 314 323 323 322 322 322 322 322 321 320 320 321 321 319 318 316 315 314 313 309 308 307 307 306 305 304 303 303 303 302 302 302 301 301 301 301 301 301 300 300 300 300 300 300 300 299 299 299 299 299 299
316 316 319 324 323 323 322 323 323 324 323 322 321 320 320 321 320 319 317 317 316 316 314 312 309 306 305 304 304 303 303 302 302 302 302 302 301 301 301 301 301 300 300 300 300 300 300 300 300 300 300 299 299 299

GFSWCAN_850_thetae_072.txt.gz
Theta_e
322 324 323 325 324 322 308 310 311 313 313 312 310 310 310 311 310 311 314 315 315 316 316 315 315 313 311 311 307 310 307 307 302 300 299 299 297 301 299 303 308 305 302 304 306 308 310 309 309 312 308 307 308 307
322 323 325 324 323 315 308 310 311 313 313 314 312 309 310 310 310 310 311 312 314 315 315 316 316 317 316 316 312 311 308 308 306 299 298 294 298 301 301 299 302 303 304 304 306 306 308 308 308 308 306 306 306 306
323 324 324 324 323 311 309 310 310 313 314 314 314 313 311 310 310 310 310 311 315 314 314 315 314 315 316 317 313 311 310 310 309 307 302 297 300 296 300 298 303 303 304 304 303 302 305 306 305 306 306 306 305 304
323 325 324 324 322 309 309 311 310 310 314 315 315 315 315 314 314 314 314 315 316 315 313 313 316 317 317 316 312 312 312 311 309 308 305 300 299 301 296 298 299 302 304 302 301 302 304 305 305 305 305 305 305 305
322 324 322 324 320 308 309 310 311 311 311 313 314 315 315 315 314 315 316 316 316 315 313 315 314 314 316 316 313 313 313 312 310 310 306 304 304 303 302 303 303 304 302 302 303 305 304 305 305 305 305 305 305 305
323 324 324 324 318 308 309 310 311 311 310 310 312 313 314 313 313 314 317 316 316 315 315 310 314 314 315 316 315 315 314 312 311 311 310 310 308 307 302 306 304 306 306 307 306 305 306 307 307 307 306 306 305 304
323 323 323 323 315 308 309 310 311 312 311 311 312 313 312 312 313 314 316 316 316 315 315 313 311 315 317 315 315 314 313 312 312 312 312 311 310 307 301 304 307 308 308 307 306 306 307 308 306 306 306 306 305 305
323 324 322 323 311 308 309 310 312 313 312 313 315 316 315 316 317 317 317 316 315 316 313 311 310 314 316 315 313 313 312 312 313 313 313 311 308 308 308 307 311 310 309 307 307 307 307 308 307 306 306 307 307 306
323 323 322 322 308 308 309 309 311 312 313 313 316 317 317 318 318 317 316 316 315 315 314 312 310 315 317 317 315 316 314 315 315 314 314 310 305 307 307 309 310 311 309 309 308 307 308 308 307 306 307 307 307 306
323 321 321 314 307 308 309 309 309 309 311 314 317 319 319 318 317 316 315 314 315 315 314 312 312 314 316 316 316 313 315 315 316 313 312 310 308 309 311 312 311 309 309 309 309 308 309 308 307 307 307 307 307 306
321 320 320 311 308 308 308 309 309 309 309 315 317 318 318 316 317 317 315 315 314 314 313 313 313 311 316 316 316 315 314 311 314 314 312 312 310 308 311 311 309 307 308 308 309 308 308 308 308 307 307 307 307 307
320 318 310 308 307 308 310 311 311 310 311 315 314 315 315 317 317 316 315 318 315 316 315 315 316 316 317 316 316 314 315 312 313 310 311 308 306 310 310 311 310 312 311 310 310 309 309 309 308 308 308 307 307 307
317 310 308 307 308 311 310 311 310 309 312 313 316 317 318 318 313 321 320 315 315 316 316 317 315 317 315 314 311 308 314 315 311 311 311 307 310 310 310 311 311 311 311 311 311 311 311 310 309 309 308 308 307 305
311 308 308 308 309 312 312 312 312 310 310 310 318 313 316 317 319 319 316 315 318 318 317 317 316 315 314 311 309 313 311 309 311 308 307 305 310 311 309 310 310 310 311 310 310 311 311 311 310 309 308 308 306 305
308 308 308 309 309 310 310 311 311 310 310 313 318 313 317 320 321 321 321 320 319 319 316 316 315 314 309 310 308 308 313 310 307 306 304 309 310 311 311 309 309 310 310 310 310 309 309 310 309 309 309 308 306 306
307 311 312 310 310 311 311 310 311 311 310 311 313 315 317 319 320 321 320 320 317 314 315 313 309 309 310 308 310 311 311 308 307 305 310 311 311 311 311 311 311 310 309 309 309 309 309 309 309 308 307 307 306 306
308 314 314 314 313 309 309 312 312 311 314 319 320 320 320 320 321 320 320 319 316 314 309 310 312 313 307 309 310 307 307 306 309 312 311 308 308 309 311 311 310 310 309 309 308 309 308 308 307 307 307 307 306 306
312 314 316 316 310 309 311 314 316 320 321 321 320 321 321 322 322 321 319 318 316 315 313 311 311 310 310 310 308 307 311 312 312 310 309 308 309 310 310 310 309 309 309 308 308 307 308 307 307 306 306 306 305 306
308 310 310 308 309 311 313 320 314 315 318 321 322 322 321 321 321 320 319 319 317 316 315 312 310 308 308 309 310 312 311 311 310 309 310 309 310 309 309 308 308 308 307 306 305 307 307 307 306 306 306 306 305 305
308 308 309 311 315 313 313 317 321 320 320 322 323 322 322 321 320 319 319 319 319 316 314 311 310 312 312 314 313 312 311 309 310 311 309 308 307 306 306 306 306 305 304 304 305 305 305 304 304 304 305 305 305 304
309 315 321 320 317 315 315 317 322 323 324 323 322 321 321 320 320 320 319 316 317 315 311 313 314 315 313 312 313 313 311 311 311 310 308 307 305 304 303 305 304 303 303 303 304 304 303 303 303 303 304 304 304 304
312 320 320 316 317 318 318 316 315 317 323 322 321 321 318 320 321 321 319 317 315 316 314 314 314 314 312 313 314 313 311 308 311 308 305 305 304 303 303 303 303 303 303 304 304 302 303 303 303 303 303 303 302 302
309 315 320 318 320 321 320 321 322 322 321 320 319 320 320 320 320 319 318 317 317 316 315 315 313 313 313 314 315 307 308 311 308 304 304 303 303 302 302 303 303 302 302 302 302 303 303 303 303 303 302 302 302 303
310 315 318 321 320 318 320 322 323 323 323 320 319 320 320 320 319 317 314 316 316 316 315 314 312 312 313 310 307 305 305 306 305 304 303 303 302 302 302 302 302 301 301 302 303 303 303 303 303 302 302 302 302 301
318 317 318 319 320 321 320 321 321 320 318 317 319 319 319 320 317 316 316 314 315 316 314 312 312 311 309 307 305 305 304 304 304 303 304 303 302 302 301 301 301 301 302 303 301 302 302 302 302 302 302 302 301 301
308 315 318 318 318 317 318 321 320 319 319 320 320 321 320 317 320 318 314 315 315 316 314 313 311 309 306 304 304 305 304 303 302 301 302 303 303 302 301 300 300 302 302 301 301 300 300 300 300 300 300 301 301 301
309 314 316 317 317 319 320 321 321 318 319 321 319 319 318 321 321 317 317 315 315 315 313 309 307 306 305 304 305 305 304 303 302 301 300 302 301 300 299 300 301 302 302 301 301 301 301 301 301 300 300 300 300 300
314 316 317 317 318 319 320 320 320 320 319 321 321 320 320 320 319 318 316 314 313 309 306 306 305 304 304 304 304 304 303 302 301 301 300 299 299 299 299 299 301 302 302 301 301 301 301 301 301 300 300 300 300 300
312 315 317 315 316 316 320 321 322 323 323 322 319 319 319 321 321 320 317 314 309 309 308 306 305 304 303 304 304 304 304 303 303 302 301 300 299 300 300 299 299 300 301 301 300 300 300 300 300 299 299 300 300 300
310 310 312 312 312 314 319 322 322 323 322 322 322 321 321 321 320 320 316 314 309 310 310 308 306 305 304 304 304 304 303 304 304 304 303 302 301 300 300 300 300 299 299 299 299 299 299 300 300 299 299 299 299 299
311 311 312 311 310 310 311 316 322 323 321 322 322 322 322 320 318 317 315 316 313 310 308 308 307 306 305 304 304 303 303 303 303 303 302 302 301 300 300 300 300 300 300 300 300 300 300 300 300 299 299 299 299 299
312 313 313 312 315 322 322 322 322 322 321 321 321 320 321 321 319 316 316 313 313 311 310 309 309 309 308 306 305 304 303 303 303 302 302 302 301 300 300 300 300 300 300 300 300 300 300 300 299 299 299 299 299 299
314 312 312 312 321 322 322 322 322 322 323 322 321 319 319 320 320 319 317 317 316 314 314 314 313 311 309 307 305 304 303 302 302 302 302 302 301 301 301 301 301 300 300 300 300 300 300 300 300 299 299 299 299 299

GFSWCAN_850_thetae_075.txt.gz
Theta_e
323 322 323 323 324 323 320 309 310 312 313 313 310 309 309 310 310 310 311 312 314 315 314 313 313 311 311 311 314 311 312 309 308 312 313 311 313 309 310 310 311 314 315 316 315 316 315 312 312 315 312 310 309 309
322 322 323 324 323 323 309 309 310 312 313 313 313 310 309 309 309 309 310 310 311 315 314 316 315 315 315 315 312 310 310 309 307 309 307 308 310 307 308 314 308 312 313 316 315 315 311 310 310 309 308 308 308 307
322 321 324 324 323 320 308 310 310 310 313 314 314 314 313 313 312 312 312 313 315 314 314 314 316 316 316 316 315 312 309 309 308 306 306 308 311 308 310 309 310 309 307 311 310 310 311 311 309 307 307 307 307 306
323 320 324 323 323 319 308 310 311 310 311 314 314 315 315 315 314 314 315 315 315 315 316 313 316 316 316 316 316 313 311 310 309 308 308 309 313 305 309 308 310 309 308 311 310 308 307 307 307 307 306 306 306 306
322 320 323 322 323 316 308 309 310 311 310 311 313 314 314 314 313 313 315 316 315 315 317 316 314 314 315 316 315 313 313 311 309 311 312 314 308 307 306 308 310 306 311 312 314 310 309 307 306 305 306 306 306 306
322 320 323 323 323 318 308 309 310 310 310 310 311 312 312 312 312 313 316 316 316 314 315 317 314 314 315 315 315 313 312 312 311 311 312 310 308 310 312 311 311 308 307 309 309 305 307 306 306 306 307 306 306 306
321 321 323 323 323 314 308 309 310 311 312 311 312 313 313 312 313 314 316 315 316 315 314 315 315 314 316 315 314 313 312 312 312 311 312 312 309 307 308 312 311 309 308 307 306 305 306 307 308 306 306 306 306 306
321 321 323 322 323 310 308 309 310 312 312 313 314 316 315 316 317 317 317 316 314 315 313 315 315 316 315 315 315 312 312 311 312 313 313 313 308 308 309 309 311 310 310 309 306 306 308 307 306 306 306 306 306 307
320 320 322 322 321 308 308 309 309 310 313 313 316 317 317 318 317 316 315 315 315 315 315 314 317 319 317 317 315 316 313 311 309 312 312 311 307 308 309 310 311 311 311 310 308 306 306 307 309 307 306 306 307 307
320 319 322 322 316 307 308 308 308 309 309 313 316 318 319 318 316 315 315 315 314 315 314 315 312 318 315 317 316 315 315 316 317 314 312 312 312 311 311 311 311 311 310 310 308 306 307 307 308 308 307 307 307 307
319 320 319 318 308 307 308 308 308 309 309 314 316 318 317 316 317 316 316 316 315 317 314 314 314 317 316 319 318 316 318 315 315 316 314 313 313 313 311 312 311 309 308 309 308 309 308 309 309 308 307 307 307 306
319 319 318 317 311 308 309 310 310 310 310 315 314 314 315 317 317 318 319 317 317 321 316 316 317 314 316 316 316 315 316 314 316 312 313 311 314 311 311 312 310 309 310 310 310 309 309 308 308 308 307 307 307 306
319 313 312 308 308 311 310 311 310 309 311 312 315 316 318 317 317 322 322 322 322 318 317 317 319 316 315 314 314 315 315 316 313 312 312 313 312 310 310 310 311 311 311 311 311 310 310 311 310 309 308 308 307 307
316 311 307 307 308 312 312 312 310 310 310 310 317 313 319 321 322 323 323 322 319 317 317 317 318 317 314 315 314 316 315 313 313 314 313 313 312 310 310 309 311 312 311 311 310 310 310 310 310 311 309 309 309 308
308 308 308 308 308 309 311 309 311 310 310 311 317 314 321 321 320 320 320 320 319 318 316 316 316 315 315 316 315 315 315 315 313 312 312 311 310 310 310 310 310 310 309 310 309 309 309 309 309 310 310 309 308 307
308 312 311 310 310 310 310 309 310 311 310 310 312 317 318 319 321 321 320 321 317 315 314 313 314 314 315 315 314 313 313 313 312 313 311 311 308 308 309 310 310 310 309 309 309 308 308 309 309 309 308 308 308 306
307 314 313 313 313 310 309 311 312 311 311 317 320 317 316 319 322 321 319 319 316 313 315 313 314 315 312 314 314 313 314 313 312 312 312 309 308 309 309 309 309 310 309 309 308 308 308 308 307 307 307 306 307 306
312 314 315 316 313 308 310 313 315 318 319 320 319 321 320 321 322 321 320 319 316 314 313 315 312 314 313 312 313 315 312 312 311 311 309 309 309 309 308 308 308 308 307 306 306 305 307 307 306 306 306 306 306 305
307 310 312 309 308 311 311 317 314 315 317 319 321 321 321 321 321 321 319 318 317 315 314 313 314 315 314 313 314 314 312 311 311 309 310 309 307 306 305 305 305 304 303 303 304 305 305 306 306 305 306 305 304 304
308 308 308 309 311 314 312 314 320 320 320 321 322 322 321 321 320 319 320 320 319 315 316 317 316 314 313 313 312 312 312 311 310 310 310 307 304 303 304 304 303 302 303 304 304 304 304 303 303 303 303 304 304 304
308 314 320 320 317 315 314 315 320 323 323 323 322 322 321 320 320 320 319 318 317 317 317 314 313 313 314 312 311 312 312 311 311 310 307 304 303 303 303 303 303 302 302 304 304 303 303 303 303 304 304 303 302 304
310 315 320 318 316 317 317 316 315 315 318 322 321 320 321 321 322 321 318 316 317 317 316 315 314 314 313 312 313 313 312 308 310 307 304 303 303 303 303 303 303 301 301 304 304 303 303 303 303 302 302 302 302 303
309 310 318 319 318 318 319 319 322 320 322 323 320 321 322 322 320 318 319 319 318 318 315 314 314 313 312 313 314 309 307 309 306 304 303 302 302 302 302 302 301 302 302 302 303 303 303 303 302 302 303 303 302 302
309 313 317 319 318 316 319 321 322 323 323 324 324 325 324 322 319 318 321 318 316 316 314 314 313 312 313 312 307 304 304 304 304 304 302 302 302 301 301 300 301 302 303 302 303 303 303 303 302 302 302 302 302 302
317 317 316 316 318 321 323 322 323 323 324 322 323 323 323 320 323 322 321 318 314 315 315 314 312 311 309 308 304 304 303 303 304 303 303 303 302 301 300 300 301 302 302 302 302 302 302 302 302 302 302 302 301 301
309 314 316 319 319 319 321 324 324 324 323 323 324 323 321 321 323 323 321 315 315 315 315 313 312 310 307 305 304 304 304 302 302 303 302 302 302 301 301 301 302 302 301 301 300 300 299 300 301 301 301 301 300 301
310 313 314 315 316 318 321 320 322 322 322 323 324 323 322 323 323 322 318 317 316 315 315 312 308 307 306 303 304 304 304 303 301 301 300 302 301 299 299 301 302 302 301 301 301 301 301 301 301 301 301 301 301 300
315 315 317 317 317 319 320 322 323 324 324 321 323 324 323 322 322 320 317 315 314 313 309 306 306 305 304 303 303 304 304 303 302 301 299 299 299 298 298 300 301 301 301 301 301 301 301 301 301 300 300 300 301 300
313 314 315 316 315 316 319 321 323 322 322 321 324 324 323 320 321 321 318 314 312 308 306 305 304 303 303 303 303 304 304 303 303 302 302 301 300 299 299 298 300 301 301 301 299 299 300 300 300 299 299 299 299 299
312 310 314 314 315 317 315 315 322 322 322 322 322 321 320 320 321 320 318 314 311 310 310 307 305 305 304 304 304 304 304 304 303 303 303 302 301 300 300 299 299 299 300 299 299 299 299 300 300 299 299 299 299 299
310 310 312 312 311 310 310 310 312 316 321 321 321 322 323 321 319 318 318 315 312 310 309 308 307 306 305 304 304 304 304 303 303 303 302 302 301 300 300 300 300 300 300 300 300 300 300 300 300 300 299 299 299 299
312 312 313 314 315 315 319 322 322 322 321 321 322 321 320 320 320 318 317 315 312 310 309 309 309 310 309 307 305 304 303 303 303 303 302 302 302 300 300 300 300 300 300 300 300 300 300 300 300 299 299 299 299 299
314 312 312 312 313 320 320 322 323 323 323 324 323 320 320 321 322 319 317 316 313 311 311 312 311 310 309 308 306 306 304 303 302 302 302 302 302 301 300 300 300 300 300 300 300 300 300 300 300 300 299 300 299 299

GFSWCAN_850_thetae_078.txt.gz
Theta_e
322 322 322 322 324 324 323 311 310 311 313 313 312 310 309 310 310 310 311 311 317 317 316 315 314 314 314 314 316 314 314 312 313 316 317 317 319 317 317 317 317 319 320 320 319 319 319 315 315 317 318 316 315 314
321 322 322 323 323 323 314 308 310 310 313 314 313 313 310 310 310 310 315 311 311 318 318 316 316 316 315 315 314 313 314 312 311 315 316 316 317 314 316 319 314 318 317 319 317 319 317 314 316 314 313 314 313 312
322 322 321 323 323 323 311 309 310 310 312 314 314 314 314 314 314 314 314 314 317 318 318 316 317 317 316 316 315 315 313 313 312 311 312 314 314 316 319 317 315 313 313 314 315 314 315 314 313 312 311 311 311 310
321 322 321 322 324 323 311 309 310 311 310 312 314 314 314 314 314 313 316 315 317 317 317 317 315 317 316 316 316 314 313 311 312 312 314 315 317 312 316 315 315 314 313 314 315 313 311 313 312 311 310 309 309 309
321 322 321 322 322 323 310 309 310 310 311 310 312 313 313 313 313 313 315 316 316 318 319 318 316 316 316 316 316 314 313 313 314 315 316 316 314 313 312 313 316 312 314 316 315 313 312 312 311 310 310 309 309 309
321 322 321 322 322 320 308 309 309 310 311 310 310 311 312 312 312 315 319 316 316 315 318 319 316 317 316 316 316 314 314 315 314 314 315 315 313 314 319 319 317 315 312 313 313 312 311 311 310 310 309 309 309 308
320 321 321 322 323 322 308 309 309 311 312 311 312 314 314 313 314 317 318 317 315 315 317 317 319 317 316 316 316 316 315 315 313 314 314 315 312 312 311 318 315 315 314 313 312 311 311 310 310 310 309 309 308 308
319 320 320 322 321 321 313 309 310 311 312 312 314 316 315 316 317 319 316 316 314 317 317 319 319 320 318 319 318 316 315 314 312 313 311 312 308 309 311 313 313 313 314 311 310 311 310 311 310 310 309 309 309 309
318 320 320 322 321 319 308 308 309 310 312 313 315 317 317 318 320 317 315 315 315 318 320 319 320 321 320 320 319 318 315 316 313 313 312 311 310 313 315 314 314 313 313 312 311 309 309 311 311 310 309 309 309 309
318 319 320 321 321 312 308 308 308 309 309 311 316 319 320 319 316 315 317 318 318 318 318 319 318 320 318 320 320 318 316 317 317 315 314 314 315 315 314 313 313 314 313 312 310 309 309 310 310 310 310 309 309 309
319 319 320 318 311 308 308 308 308 309 309 313 319 319 316 316 318 319 320 320 319 321 320 320 320 320 320 320 320 318 319 318 318 317 317 315 317 313 313 313 314 312 309 310 309 310 309 309 309 310 310 310 310 309
318 317 316 313 309 310 309 309 310 310 310 316 316 314 316 319 318 320 322 320 321 322 321 321 320 319 318 317 318 318 318 318 318 314 315 315 314 313 314 313 314 311 310 311 310 310 311 311 310 311 310 310 310 309
316 314 314 310 308 311 310 311 310 309 310 312 316 320 321 321 318 326 324 324 323 321 321 321 320 319 316 316 317 318 317 317 315 315 314 315 313 313 313 314 314 312 311 313 313 312 312 311 311 311 311 311 310 310
315 311 308 308 309 312 311 311 310 310 309 315 319 317 323 326 326 325 325 324 323 322 321 320 319 317 317 318 318 318 317 316 315 316 315 313 314 313 313 313 313 313 313 313 313 312 312 312 312 313 311 311 311 311
308 308 308 308 308 309 310 309 311 310 311 315 317 318 325 324 324 324 321 323 322 321 319 319 320 319 318 318 318 317 317 316 315 314 313 314 314 313 312 312 311 311 312 313 312 312 312 312 311 312 312 312 312 311
309 311 310 310 310 310 310 309 309 311 314 314 316 318 323 323 324 324 324 323 320 318 317 316 316 316 316 315 315 314 314 313 313 313 313 313 313 313 312 312 312 312 312 312 312 311 310 311 311 311 311 311 311 311
307 313 312 313 313 310 309 310 311 314 315 317 318 316 317 320 323 325 323 322 320 318 317 314 313 314 314 313 314 314 314 313 313 312 312 313 313 312 311 311 310 310 310 309 308 308 308 309 309 308 307 306 309 309
311 313 314 314 315 308 310 313 315 318 319 318 318 322 324 325 325 325 323 322 318 318 317 318 315 315 312 312 313 314 313 313 313 313 312 313 312 311 309 309 308 308 308 307 307 307 307 308 308 307 306 304 305 307
307 309 312 312 308 308 313 317 316 318 317 319 322 324 324 325 325 325 323 322 320 318 318 318 318 317 316 313 313 313 313 313 312 313 313 312 310 309 308 307 307 306 306 306 306 307 306 306 306 305 305 305 305 305
308 308 308 309 309 313 314 316 318 322 323 325 325 325 326 326 324 324 323 321 320 319 320 321 319 317 316 315 313 312 313 314 314 313 312 310 308 307 307 306 305 305 305 305 306 305 306 306 305 304 304 304 303 303
309 313 318 320 316 314 316 318 320 323 325 326 326 326 326 325 324 324 323 322 322 321 322 321 319 318 317 314 313 314 315 315 314 311 310 308 306 305 305 305 304 304 304 306 305 305 304 303 305 305 305 305 306 306
309 312 318 319 318 318 317 318 318 318 319 321 323 323 321 322 324 325 323 322 322 321 321 321 320 318 317 315 315 316 316 313 311 307 304 304 305 305 305 304 304 304 305 306 305 306 305 304 304 305 304 303 304 303
309 309 314 318 318 319 318 320 322 322 321 323 325 325 325 325 325 322 323 323 323 322 320 319 318 318 316 316 315 314 312 310 307 306 304 304 304 304 304 303 304 305 305 305 305 305 304 304 304 305 304 304 304 303
309 313 319 319 318 318 321 324 324 325 325 326 327 326 326 326 324 324 325 323 322 319 318 315 317 316 315 315 313 311 309 307 306 305 304 304 304 304 303 303 304 305 304 305 305 305 305 304 304 304 303 303 302 302
315 315 315 316 319 320 324 324 324 324 325 325 326 326 326 324 326 325 325 322 320 319 318 317 316 315 314 312 310 308 307 306 306 305 304 304 304 303 303 303 304 304 304 303 303 303 303 303 303 302 302 302 302 302
310 316 317 319 319 321 321 325 325 325 325 325 326 326 325 325 326 325 324 322 320 319 318 317 316 314 312 310 308 307 307 306 306 305 304 304 304 303 303 303 304 303 303 302 303 303 302 302 302 302 302 301 300 302
311 315 316 317 318 319 321 323 323 323 324 325 326 326 326 326 325 324 323 320 319 318 317 316 314 311 310 308 307 307 306 306 306 305 304 303 303 302 302 302 304 303 303 302 302 303 302 302 302 302 302 301 301 301
315 316 316 316 317 317 318 319 321 323 324 325 325 325 324 323 323 323 321 318 317 316 315 313 310 308 307 307 306 306 306 305 304 303 303 303 302 301 302 303 303 302 303 303 302 302 302 302 302 302 301 301 301 301
315 316 316 315 316 316 319 320 320 322 325 325 324 324 323 324 325 323 320 316 315 315 311 309 307 307 307 306 306 305 305 304 304 304 304 303 302 301 302 302 302 302 302 300 299 301 302 302 301 301 301 301 301 300
314 314 314 314 315 315 313 316 318 323 325 324 324 322 323 324 324 323 320 317 314 311 310 308 307 306 306 306 305 305 305 304 304 305 305 304 303 302 302 301 302 302 301 301 301 300 300 301 301 302 301 301 301 301
314 314 314 314 315 313 312 313 315 317 318 318 320 322 323 325 324 321 319 315 312 311 310 309 307 307 307 306 306 306 305 305 304 304 304 304 303 302 302 302 301 301 301 301 302 302 302 302 302 302 302 301 301 301
316 315 314 315 315 316 319 322 321 322 324 326 325 325 325 325 324 321 317 316 312 310 309 310 309 308 306 306 306 306 306 306 304 303 304 303 303 302 301 301 301 301 301 302 302 302 302 302 302 302 302 302 302 301
316 315 315 314 314 315 318 320 322 325 326 327 327 325 324 324 324 320 315 313 309 308 308 307 307 310 308 308 306 306 305 305 304 303 302 302 303 302 302 301 301 301 301 302 302 302 302 302 302 302 302 302 302 301

GFSWCAN_850_thetae_084.txt.gz
Theta_e
317 317 318 321 322 323 320 310 310 310 313 313 313 312 311 311 312 316 321 314 320 323 320 317 316 317 316 319 321 318 318 317 318 322 322 325 326 327 324 324 324 321 321 322 320 321 323 321 319 320 325 323 322 323
318 318 319 321 322 322 321 309 310 310 311 313 314 313 313 313 313 318 321 320 316 322 322 318 318 319 319 318 319 316 318 317 317 321 320 321 324 321 322 324 320 324 323 328 324 327 322 321 322 322 321 321 321 320
317 318 319 321 322 322 323 312 310 311 310 312 314 314 314 313 313 313 320 320 320 322 321 318 319 318 318 318 318 320 319 318 316 317 319 320 321 321 324 323 323 319 318 322 321 323 322 320 320 320 320 319 318 318
317 317 319 321 322 321 323 316 309 310 311 310 312 313 313 312 312 312 321 320 321 322 322 322 320 318 318 318 318 318 319 317 317 315 316 319 320 318 320 321 319 319 319 317 318 319 318 318 318 318 317 317 317 315
318 318 319 322 321 322 323 316 309 310 310 311 311 311 312 312 312 315 321 320 320 323 325 321 319 318 319 319 318 317 317 318 319 320 320 320 320 321 318 318 318 318 318 318 319 318 319 318 318 318 316 315 314 314
318 318 318 321 321 322 323 313 309 310 312 311 311 313 314 314 315 321 322 322 320 320 323 321 321 320 320 319 319 318 319 319 319 319 319 320 319 318 324 325 321 320 319 319 319 318 318 317 316 316 315 314 313 313
317 319 318 321 321 323 319 308 309 311 312 312 313 313 315 315 316 321 322 322 320 315 324 322 323 321 320 320 320 319 319 319 319 319 321 320 317 317 320 323 320 318 318 318 318 318 318 316 315 315 314 314 313 313
317 319 318 320 320 322 316 310 309 311 312 313 313 315 316 318 320 322 320 316 315 323 322 324 323 322 321 320 320 320 319 319 319 318 317 317 314 311 313 316 316 316 316 316 316 316 317 316 315 314 314 314 314 312
318 318 318 320 320 322 316 310 310 311 311 313 313 316 319 321 322 321 316 313 320 324 326 322 322 327 321 322 322 321 320 322 318 318 318 316 314 312 315 316 317 316 315 315 315 315 316 316 316 315 314 313 313 313
316 317 317 319 321 321 315 310 310 310 310 310 315 322 324 322 317 317 323 324 324 322 322 323 319 322 321 322 322 322 320 322 322 320 317 318 318 316 317 318 317 315 315 315 316 316 316 315 315 316 314 313 313 313
317 317 319 319 320 313 310 310 309 309 309 316 322 322 321 317 323 323 324 324 322 324 321 322 321 319 321 319 321 320 321 320 322 321 319 320 320 318 317 316 314 316 315 315 315 315 315 315 315 315 314 313 313 313
319 319 319 319 313 310 309 309 309 310 318 320 319 318 322 322 323 324 325 323 323 325 322 321 321 319 319 319 319 319 320 320 320 318 319 320 318 317 316 314 315 315 315 314 314 314 315 314 313 313 313 313 312 312
315 314 314 313 312 313 312 310 310 310 311 317 320 322 323 323 322 327 328 327 327 323 323 322 323 321 319 319 319 319 320 319 317 319 320 318 318 317 316 315 313 314 315 315 314 315 314 314 313 313 313 313 313 312
307 309 311 313 311 310 310 310 310 310 311 320 322 317 325 327 327 326 326 325 323 320 320 317 319 318 318 319 319 320 319 317 317 318 318 321 318 318 316 314 313 313 313 314 314 314 315 313 314 313 312 312 312 312
308 309 308 308 310 312 310 310 311 311 319 319 319 322 326 325 326 324 322 323 322 319 318 319 320 318 320 320 318 316 316 317 317 318 317 317 318 316 314 313 313 312 312 312 312 313 313 313 314 314 313 313 313 312
311 312 310 309 309 308 310 310 309 316 319 318 318 321 323 325 325 325 324 323 320 319 319 318 318 318 317 317 316 316 315 314 316 316 318 318 317 316 315 313 312 311 310 310 310 309 309 309 310 310 310 311 313 311
310 317 311 312 313 313 309 310 318 318 318 319 319 318 320 324 325 325 325 323 320 320 322 319 317 317 315 315 315 315 315 316 315 316 319 318 317 315 313 311 311 310 310 309 308 307 308 308 309 309 310 311 310 310
317 313 312 313 314 313 317 312 318 320 320 319 318 321 322 325 325 325 324 323 320 321 321 322 320 319 319 316 316 316 315 314 314 316 318 318 316 315 312 310 310 309 309 308 308 308 309 309 308 309 309 308 308 308
312 310 311 314 313 308 315 319 319 319 319 318 319 319 324 325 325 326 325 324 322 320 321 320 322 322 322 319 320 317 314 314 315 318 319 317 314 312 310 310 309 309 308 309 309 307 308 308 309 308 308 307 306 305
309 309 308 308 308 313 318 318 320 320 321 321 320 319 322 324 326 325 326 325 324 323 322 322 324 321 321 322 320 317 315 314 314 314 316 316 314 311 310 309 308 308 309 309 308 307 308 308 308 307 306 305 306 305
312 312 313 317 316 313 317 319 320 319 320 321 322 322 324 324 325 325 327 326 325 324 325 323 323 323 322 323 320 318 317 314 314 315 314 314 313 310 309 309 308 307 308 308 307 307 307 307 307 308 308 307 307 306
316 314 314 318 319 320 319 318 317 319 321 321 319 321 323 323 324 325 326 326 325 325 324 325 324 324 325 322 320 317 318 318 312 312 311 308 309 309 309 308 307 308 309 308 307 307 307 306 307 307 307 307 307 307
314 311 312 317 320 319 319 318 320 320 320 321 321 320 320 322 322 323 326 325 325 326 325 326 328 327 325 322 320 321 318 312 312 311 308 309 309 308 308 307 307 308 308 308 308 307 307 305 306 306 306 306 306 306
313 315 318 319 319 319 318 320 320 321 323 324 324 327 328 326 327 327 327 325 325 325 327 326 326 325 324 322 321 319 316 312 311 310 309 309 308 308 308 307 308 308 307 308 307 306 306 306 304 306 306 305 305 305
315 312 315 315 320 321 320 320 322 322 324 326 328 328 328 327 330 329 328 326 324 326 326 326 323 323 322 321 319 317 314 311 310 310 309 308 309 308 307 307 308 307 307 307 307 307 306 305 305 305 305 304 303 305
317 316 317 318 318 318 318 321 325 324 326 326 326 326 324 322 326 327 327 326 324 325 325 325 322 321 321 319 317 314 312 310 310 310 309 308 308 308 307 307 308 307 307 306 306 306 306 305 304 305 305 304 302 303
317 318 319 318 319 320 320 319 320 321 323 327 328 327 326 326 326 326 323 324 325 323 323 323 321 320 319 318 315 313 311 310 309 309 309 308 307 308 307 307 307 308 307 306 306 306 306 306 305 305 305 304 304 303
318 319 319 319 318 317 317 318 320 322 323 324 326 327 326 325 327 323 323 325 324 323 322 321 319 319 316 314 312 311 310 309 309 308 308 307 307 305 305 306 306 307 306 305 306 305 305 306 305 305 305 305 304 304
319 319 319 319 319 318 318 319 319 319 321 323 326 324 324 323 324 325 325 325 324 323 322 320 317 314 313 312 310 310 309 308 307 307 307 306 306 305 305 306 307 306 305 305 304 304 305 304 304 304 304 304 304 303
318 318 318 318 320 320 317 316 317 318 319 320 323 325 325 325 325 326 326 325 324 323 322 320 315 312 311 310 309 308 308 307 307 307 308 307 308 307 305 305 306 304 305 305 304 303 301 301 303 304 305 305 305 305
318 318 318 318 319 319 318 317 316 316 316 316 317 320 322 326 323 322 323 322 319 318 318 315 311 311 310 309 308 307 307 307 307 307 307 307 308 307 306 305 305 306 306 306 305 304 304 304 305 306 305 305 305 304
317 318 319 320 319 318 317 317 317 318 319 320 324 324 321 321 320 320 318 316 316 317 314 312 311 310 309 309 308 308 308 309 308 308 307 307 306 306 306 305 305 305 305 305 305 305 306 305 305 306 306 305 305 305
320 320 320 319 319 319 318 318 318 318 324 323 321 321 322 324 323 320 317 316 314 313 312 312 312 311 310 310 310 309 310 309 308 308 307 307 306 306 306 305 305 305 305 305 305 305 305 305 305 305 306 306 305 305

GFSWCAN_850_thetae_087.txt.gz
Theta_e
316 317 317 318 319 321 322 314 309 310 312 313 313 313 312 312 312 318 321 320 318 322 319 318 317 319 320 320 320 319 318 319 319 323 325 325 325 327 324 323 324 323 320 321 320 323 326 324 323 326 325 322 324 325
316 317 317 318 319 321 322 317 309 310 310 312 313 313 313 313 313 320 323 320 318 321 322 319 318 318 319 318 318 317 317 318 316 324 323 323 325 322 321 324 321 323 322 326 326 325 323 322 322 321 320 320 320 322
316 317 317 318 320 322 322 322 309 311 310 311 312 313 313 312 311 312 318 321 321 323 323 319 318 317 318 318 318 319 319 318 318 317 320 322 322 321 324 323 322 320 318 321 323 324 322 321 320 320 320 318 318 318
316 317 317 318 320 322 322 323 310 310 310 311 311 312 312 311 310 311 321 320 322 324 323 321 320 319 318 318 318 318 318 317 316 315 316 318 323 321 321 321 319 320 319 317 319 321 320 320 320 319 318 319 317 317
317 317 317 317 320 321 321 323 309 310 310 311 311 311 312 313 312 313 321 321 321 322 325 322 320 319 319 319 318 317 318 320 320 320 320 321 321 320 321 320 321 320 320 320 320 320 319 320 318 317 317 316 316 315
318 318 318 318 320 321 322 321 309 310 312 312 312 313 313 314 316 322 323 322 321 316 323 326 321 320 320 320 319 319 319 319 319 319 321 321 318 318 321 320 320 319 319 318 320 318 318 318 317 318 317 315 314 314
319 318 318 318 320 321 322 312 309 311 312 312 313 313 315 314 320 318 323 324 322 316 325 324 322 321 320 320 320 319 319 318 319 320 320 320 316 317 320 320 319 319 317 317 317 317 318 318 316 316 315 315 313 313
319 317 319 318 321 321 320 309 310 311 312 312 312 315 316 319 322 323 320 319 315 323 324 325 324 323 321 320 321 320 320 319 319 318 317 316 314 313 311 315 317 317 317 317 316 315 316 317 317 315 315 314 314 313
316 317 318 318 320 320 318 310 310 311 312 312 312 317 320 321 323 324 316 313 322 325 327 324 326 326 322 322 322 321 320 322 319 319 319 316 312 310 310 316 317 318 315 315 315 315 315 316 316 316 314 314 315 314
315 316 316 318 319 321 315 310 309 310 311 310 314 323 324 324 319 320 324 322 325 326 325 324 322 325 321 322 322 321 319 322 322 319 316 317 315 314 316 316 318 317 315 315 315 315 315 316 316 316 316 314 314 314
316 315 316 318 320 319 312 309 309 310 311 320 323 323 322 320 324 324 324 326 323 324 321 323 320 321 321 321 322 321 322 321 323 321 319 320 320 320 318 318 316 315 316 315 314 314 314 315 315 315 314 316 315 313
318 318 318 319 318 311 311 310 309 311 318 319 318 318 322 323 323 324 327 324 326 326 323 323 321 320 320 317 320 321 322 321 321 319 320 320 319 317 317 315 315 315 314 315 315 313 314 315 314 314 313 314 314 313
315 317 318 314 313 310 311 312 310 310 311 312 320 323 323 323 321 326 328 329 328 324 322 323 324 321 319 319 320 321 320 322 320 321 323 319 318 316 315 316 314 314 315 315 315 315 315 315 315 314 313 314 313 313
308 311 313 313 312 310 310 310 310 310 311 321 322 314 324 326 327 329 327 327 323 321 321 322 321 319 318 320 320 321 321 320 319 321 320 321 317 318 317 314 314 313 313 313 314 314 313 314 314 313 313 313 313 313
309 309 309 308 311 311 310 310 311 310 318 320 320 316 325 325 326 324 324 324 322 319 319 319 320 318 321 322 321 318 318 318 320 321 319 318 319 316 315 314 314 313 312 311 310 309 310 310 310 311 311 311 312 313
311 312 310 309 308 309 310 310 310 311 319 319 319 321 322 325 326 325 325 324 321 319 319 318 320 320 320 321 320 318 318 318 318 320 317 318 317 316 316 314 312 311 310 310 309 308 308 308 309 309 309 309 310 310
310 317 315 312 313 313 312 309 319 320 319 319 320 318 319 325 324 321 325 324 320 320 324 323 319 319 318 316 317 317 318 319 320 320 319 319 318 315 313 312 311 310 310 308 308 307 309 309 309 308 309 308 308 309
317 315 313 312 313 314 315 313 318 320 320 319 319 319 320 321 324 325 325 325 322 321 321 324 322 322 321 320 319 321 315 317 319 319 318 317 316 314 312 311 310 309 308 308 309 308 308 308 308 308 308 307 307 307
315 312 309 312 314 309 315 319 319 320 320 319 319 320 319 324 325 325 326 323 323 322 322 321 324 324 325 321 322 321 315 318 319 319 318 317 314 310 310 310 309 309 309 310 307 308 308 307 307 307 306 306 306 305
310 310 309 308 308 310 317 318 321 322 320 321 320 321 320 324 323 323 326 326 326 325 322 324 324 323 322 320 321 321 316 314 316 320 318 316 312 309 309 310 309 309 310 308 307 307 307 307 307 306 305 307 307 304
312 312 312 315 316 312 314 319 320 321 320 320 320 322 323 323 323 326 327 325 326 326 325 324 324 323 322 322 321 323 318 315 314 315 318 316 313 311 309 307 308 309 309 308 307 307 307 306 307 307 307 307 306 306
316 316 313 316 317 320 320 318 318 318 319 321 322 322 322 322 324 327 326 325 326 327 326 326 325 325 323 322 321 319 318 316 314 313 313 314 312 310 310 309 309 308 309 308 307 307 306 306 305 307 307 307 306 307
315 313 313 315 319 320 320 319 320 320 321 320 321 323 321 320 320 321 324 326 327 327 327 328 326 327 324 323 321 319 318 316 311 310 309 308 309 310 309 308 307 308 309 309 308 308 307 305 306 306 306 305 306 306
315 315 318 318 319 318 318 320 320 321 321 323 323 325 325 327 323 322 328 325 325 325 323 322 326 326 325 321 320 320 317 312 312 311 309 309 309 308 308 308 307 309 308 308 307 307 307 307 306 306 306 305 305 305
314 313 315 315 320 322 322 320 321 322 323 323 325 326 328 323 326 326 327 326 325 324 323 326 327 325 323 323 322 320 316 312 313 311 309 309 309 308 308 307 308 308 307 308 308 307 307 306 305 306 305 304 303 304
314 316 315 317 318 318 319 320 324 324 325 325 327 324 321 323 325 325 325 324 324 323 321 325 326 325 324 323 322 319 316 312 311 311 310 309 309 308 307 307 308 308 307 307 307 306 306 306 305 305 305 305 303 303
314 319 319 318 319 319 321 321 321 321 323 325 328 326 325 326 326 325 324 323 323 322 323 325 326 323 322 322 320 317 314 310 311 310 310 309 308 308 308 308 308 308 307 306 306 306 306 306 306 305 305 305 305 304
318 319 320 319 320 320 320 320 319 320 322 324 326 327 326 326 328 324 323 324 322 324 324 325 323 321 320 317 314 312 310 310 310 309 309 308 308 307 307 307 307 307 307 306 306 306 306 306 306 306 305 305 305 305
318 319 319 320 320 320 320 320 319 318 318 321 325 324 322 321 321 322 325 325 324 323 322 322 321 315 314 313 311 310 309 309 308 308 307 307 307 306 305 306 306 306 306 306 305 306 305 306 305 305 305 305 304 304
317 318 320 320 321 321 320 319 318 317 317 318 322 324 323 322 322 321 322 322 323 322 320 321 320 314 311 310 308 308 308 308 307 308 308 307 307 306 305 305 307 306 306 305 304 302 303 303 304 303 304 305 305 305
319 319 319 320 320 319 319 319 319 318 318 320 324 325 325 324 322 320 319 317 316 317 314 313 312 311 310 310 309 309 308 309 309 308 308 309 308 308 306 306 306 306 305 306 305 304 304 304 303 304 305 306 306 305
319 319 319 320 320 319 319 319 319 318 322 324 323 322 322 324 323 319 316 315 315 314 311 310 310 310 310 310 309 309 309 309 308 309 308 308 307 307 306 306 305 306 306 307 306 305 305 305 306 306 306 306 306 306
320 319 318 319 320 320 320 320 319 322 323 322 321 320 322 322 321 319 316 315 315 316 315 313 312 311 310 310 309 309 310 310 309 309 308 307 307 307 307 306 305 305 305 305 305 305 305 305 306 305 305 306 306 306

GFSWCAN_850_thetae_090.txt.gz
Theta_e
316 316 316 316 317 319 321 320 309 310 311 312 313 313 312 312 311 321 321 319 320 322 318 318 318 319 318 317 314 317 317 317 313 316 318 317 316 316 317 321 321 319 316 318 317 320 322 322 322 325 322 324 327 326
315 315 316 316 317 319 321 322 312 310 310 311 312 313 312 312 317 322 320 318 317 322 322 319 318 317 318 318 318 318 316 315 315 312 315 315 314 315 314 316 316 319 317 321 322 321 320 320 320 320 323 324 322 322
315 316 316 316 317 319 322 322 318 310 310 310 311 312 312 311 311 313 319 318 322 323 322 320 318 317 319 318 318 320 318 318 318 317 316 315 317 313 312 312 317 315 316 320 320 320 319 319 319 319 320 320 322 321
317 317 316 316 317 319 321 322 321 309 310 310 310 311 311 311 310 311 319 321 322 324 321 319 319 318 318 317 317 317 318 318 317 315 314 313 315 317 315 314 313 316 315 311 316 318 320 320 319 318 317 318 318 316
319 318 317 317 317 319 321 322 319 309 310 311 311 311 312 312 312 312 321 321 320 322 322 321 319 318 319 318 317 318 318 319 319 319 316 316 317 315 316 314 316 317 316 314 315 318 316 319 319 318 317 316 316 315
320 319 318 317 317 320 321 322 315 309 312 312 312 312 311 313 318 320 321 321 321 315 323 320 319 319 319 319 319 319 318 319 319 320 319 319 316 317 310 312 318 317 317 317 317 318 318 317 318 317 317 316 315 315
320 319 318 317 317 320 321 321 309 311 312 312 312 312 313 316 321 318 323 323 321 320 324 321 320 320 319 319 319 319 318 318 318 320 318 317 316 316 309 308 318 317 317 317 316 317 317 318 317 316 316 317 316 314
319 318 316 318 318 321 322 314 309 311 312 312 311 315 317 319 321 322 320 318 316 316 324 320 322 321 320 320 320 319 319 319 318 317 316 314 312 310 308 313 316 317 316 316 316 315 315 315 316 317 315 315 314 313
315 315 318 317 319 319 321 310 311 311 312 311 313 319 320 321 323 322 317 316 321 324 324 321 320 320 321 321 322 320 320 315 318 315 315 313 306 306 308 313 316 317 315 314 314 313 314 315 315 316 316 315 314 313
314 315 315 317 319 319 320 311 310 310 311 310 316 323 324 323 319 322 323 316 323 325 323 323 322 320 322 321 320 319 319 314 314 313 316 309 307 313 312 316 317 316 316 315 314 313 313 314 315 316 316 316 315 314
315 314 316 317 319 320 316 310 309 309 313 321 322 322 322 322 323 323 324 325 324 323 323 322 320 321 320 318 318 319 315 315 314 314 313 313 312 317 314 316 317 316 316 316 315 314 312 313 313 313 314 315 315 315
317 316 317 318 319 318 312 309 309 310 318 319 319 317 322 322 322 322 321 324 321 321 322 321 320 319 319 317 318 320 318 315 318 317 313 311 312 318 317 317 316 314 313 314 314 314 313 313 315 314 313 313 313 315
316 317 318 319 312 310 311 310 310 309 310 311 318 322 322 322 316 323 325 323 321 323 323 321 321 319 318 319 318 314 317 316 317 316 313 311 317 316 317 315 314 314 314 315 314 315 314 315 314 314 314 314 313 313
311 315 314 314 311 310 310 310 310 310 311 319 321 313 320 321 322 321 322 321 323 323 322 322 321 318 318 316 315 318 315 316 317 314 316 313 317 317 315 316 314 313 313 312 313 313 313 314 313 312 312 313 313 313
310 311 310 309 311 310 310 310 310 310 313 321 320 315 320 322 325 325 325 324 322 320 322 321 319 317 315 317 315 314 318 317 315 315 312 317 317 316 317 314 314 314 312 310 310 309 309 309 309 309 310 310 310 310
311 312 309 309 308 310 310 310 310 310 316 319 318 318 320 321 324 324 324 324 322 319 318 319 318 316 318 316 317 317 315 315 312 312 316 316 317 316 315 315 314 312 310 310 308 307 308 309 308 308 308 307 307 307
311 316 314 311 312 312 312 310 315 318 319 319 319 318 318 318 322 324 323 324 322 319 318 320 318 315 312 311 313 312 312 310 317 317 316 316 317 317 316 313 311 310 309 308 307 307 308 308 307 307 307 306 306 307
312 316 314 312 312 313 313 313 313 320 319 319 318 316 317 318 319 321 321 324 324 323 321 321 320 316 315 317 317 314 316 318 317 317 317 317 317 316 314 312 310 309 308 308 308 308 308 307 305 306 306 305 305 305
314 313 310 310 312 312 312 317 314 319 320 319 319 319 319 320 324 324 325 325 325 324 322 321 320 318 316 318 320 321 319 318 319 319 318 318 316 314 312 310 309 308 308 309 307 307 306 306 305 304 304 305 305 306
312 310 310 309 308 308 315 317 319 321 322 320 319 318 319 321 324 324 325 325 324 324 324 320 318 320 321 321 320 320 320 317 316 319 318 316 315 312 308 309 309 309 309 308 307 306 305 305 306 305 305 305 306 305
314 312 312 313 315 311 310 315 319 320 320 320 319 321 322 323 324 323 322 324 327 326 324 324 323 322 321 322 321 321 320 318 316 315 316 317 314 308 308 310 309 310 309 308 307 307 306 306 306 306 306 306 306 306
314 316 315 314 316 318 318 316 314 317 317 317 318 319 321 320 319 319 320 327 326 325 325 324 324 324 324 324 322 321 321 317 316 316 316 317 314 310 307 307 308 309 309 308 307 307 307 307 306 307 307 306 306 306
315 314 314 314 318 319 319 319 320 321 319 319 320 320 320 319 321 323 325 326 326 326 326 326 326 326 327 326 324 322 321 318 315 313 313 315 316 312 310 309 309 309 309 308 307 305 305 305 305 306 306 306 305 304
314 315 317 317 316 316 317 319 319 319 320 320 320 322 323 324 324 323 323 323 323 324 324 324 324 323 323 324 324 321 319 317 315 311 310 310 311 311 310 308 307 308 308 309 306 307 306 306 306 305 306 305 305 305
315 314 314 314 319 320 321 320 319 320 320 319 321 323 324 324 324 324 323 323 324 324 324 322 322 321 324 324 322 321 320 319 311 310 309 309 309 309 308 308 307 308 308 307 307 307 306 306 306 306 305 304 303 305
312 315 314 315 316 318 319 319 322 322 322 322 323 322 320 321 325 325 323 324 324 323 323 322 323 323 324 323 322 321 321 314 312 311 310 309 309 308 308 308 308 307 307 308 308 307 306 306 306 305 305 304 304 303
313 316 318 317 317 317 319 320 320 320 320 322 322 323 322 324 325 324 323 324 323 323 324 323 323 324 324 324 324 322 321 313 312 311 309 309 309 309 308 307 307 308 308 307 307 307 306 306 305 305 305 305 304 304
314 317 317 318 319 320 319 320 319 317 319 323 323 324 324 324 324 322 321 321 321 323 323 323 323 322 322 321 322 320 314 311 310 310 309 309 308 308 307 307 308 308 308 307 306 306 306 306 306 305 305 305 305 304
315 316 318 318 319 320 320 320 319 318 317 319 322 321 322 321 322 320 320 322 323 323 321 321 318 318 318 318 314 311 310 311 310 309 309 308 306 306 306 306 307 307 307 306 306 306 306 306 306 305 305 305 304 304
315 315 318 319 320 320 320 319 319 319 318 318 322 322 322 322 322 320 320 319 318 317 318 320 313 311 310 310 309 309 310 310 310 309 309 308 307 307 306 305 305 305 306 306 306 305 305 305 305 305 304 304 305 305
317 317 317 318 319 319 319 319 318 319 320 323 324 324 321 320 320 319 316 315 314 313 312 314 317 311 311 310 310 312 310 308 310 309 308 308 308 308 308 306 305 306 306 306 305 303 304 303 302 302 305 305 306 306
318 319 319 319 319 320 319 319 319 323 324 323 321 323 324 323 322 316 315 315 315 313 310 310 310 309 309 310 311 311 310 310 308 308 308 308 307 307 307 306 305 306 305 305 306 306 305 305 305 305 306 306 306 306
319 319 319 320 318 319 322 325 323 322 321 321 321 322 322 321 319 318 316 314 313 315 315 311 311 311 310 310 309 309 309 309 308 308 307 306 307 306 306 306 306 305 305 306 306 306 305 305 305 306 305 305 306 306

GFSWCAN_850_thetae_093.txt.gz
Theta_e
315 315 315 315 316 317 319 321 316 310 310 311 312 312 312 311 319 320 319 319 320 318 318 318 318 317 318 316 312 316 315 314 312 315 316 314 314 314 315 319 319 318 316 319 315 319 323 320 321 320 319 322 327 326
314 314 315 315 316 316 319 321 321 309 310 310 311 312 311 311 318 321 318 316 320 322 320 317 317 317 317 318 318 317 315 314 315 312 313 311 312 312 312 317 315 317 316 320 318 319 319 318 318 321 323 327 326 325
314 314 316 316 315 316 319 321 322 310 310 310 310 311 310 310 311 317 316 314 321 322 322 319 317 318 318 317 317 319 317 317 317 316 314 312 315 309 310 312 315 313 315 318 317 319 317 319 322 324 323 324 326 325
314 317 319 319 316 316 318 321 322 313 310 310 310 310 311 310 309 318 319 320 322 322 317 318 318 317 318 317 316 317 318 318 317 315 314 310 313 314 312 312 313 316 314 311 314 317 318 317 318 321 322 322 323 323
316 318 319 317 317 316 319 321 322 312 309 311 311 311 311 311 311 313 320 320 320 322 321 319 318 318 318 318 317 318 318 319 319 318 315 314 314 313 312 312 314 315 315 314 315 316 315 317 317 317 318 318 321 320
318 318 318 318 317 316 320 320 322 309 310 311 312 311 310 311 314 319 319 318 320 317 323 316 318 318 318 319 318 318 317 318 319 319 317 316 315 314 307 308 316 316 316 317 316 318 316 317 316 316 316 317 317 317
319 319 319 317 316 317 320 321 319 309 312 312 312 311 312 315 320 320 322 322 320 319 323 319 319 319 319 319 318 318 317 317 318 318 316 315 314 314 306 307 317 317 317 316 316 316 317 317 317 316 315 315 315 315
316 317 317 316 317 317 320 321 310 311 312 312 312 314 315 317 320 320 319 318 319 316 324 317 319 320 319 319 319 319 319 318 317 316 314 312 310 307 305 312 316 316 316 316 316 315 315 315 315 315 316 315 314 314
315 314 313 317 317 319 321 315 309 311 311 311 314 319 320 321 321 320 317 314 316 323 323 319 318 319 320 320 320 320 319 314 316 313 313 311 304 302 308 314 316 316 315 314 314 313 312 312 313 314 315 315 314 313
314 313 314 315 317 318 320 310 310 310 311 310 318 323 324 323 320 319 316 316 319 322 322 320 320 318 321 319 318 318 317 312 313 311 314 307 306 312 311 314 316 316 315 315 315 314 311 311 313 314 315 315 315 315
314 314 315 317 318 319 318 310 309 309 311 320 322 322 321 322 323 323 323 323 323 322 323 323 320 318 320 317 317 317 312 311 311 312 312 310 309 313 313 313 314 314 314 314 315 315 313 312 312 312 312 313 313 315
316 315 316 317 319 319 314 309 309 313 319 319 319 317 321 322 322 321 319 321 319 320 320 320 319 319 318 317 318 317 316 313 317 314 311 308 310 316 316 313 316 314 315 315 314 313 314 313 313 313 313 313 313 313
317 316 317 318 316 314 311 310 309 310 310 312 316 321 322 321 316 321 323 321 319 321 321 320 319 318 317 318 316 312 316 315 314 314 311 311 314 317 317 316 316 315 315 315 314 315 315 314 314 314 314 314 313 313
315 318 316 314 310 310 310 310 310 310 310 318 320 311 318 318 319 318 319 319 323 323 322 320 320 317 318 315 313 316 313 315 317 313 314 310 316 315 316 316 315 315 313 314 313 312 313 314 314 314 313 312 312 312
312 311 311 310 310 310 310 310 310 310 310 319 319 316 319 321 322 324 324 324 323 322 321 320 317 317 313 314 313 313 316 317 315 313 309 315 316 316 316 315 315 313 313 311 310 309 309 309 309 307 307 308 309 309
311 310 309 309 308 310 310 310 310 310 312 316 318 317 318 318 320 322 323 324 322 321 321 320 314 314 316 314 316 316 313 313 311 310 315 316 316 316 316 316 314 313 312 310 310 308 307 307 308 308 308 307 307 306
311 316 312 310 311 311 311 310 310 313 316 318 318 318 318 318 317 318 323 324 322 318 316 316 316 314 310 311 312 311 312 310 313 314 315 315 315 316 316 315 314 312 311 309 308 307 307 308 307 306 306 306 306 306
310 316 316 312 312 312 312 312 310 319 319 318 317 315 316 317 318 318 319 322 323 320 318 318 317 314 313 313 312 310 315 315 315 315 315 316 316 316 316 315 312 311 309 308 307 307 307 307 305 305 304 305 305 306
314 314 311 309 310 312 310 316 314 316 318 318 319 318 318 318 318 321 323 322 323 323 322 321 317 316 314 313 316 318 319 317 316 316 316 316 316 317 316 314 311 310 308 308 308 307 306 305 304 304 305 305 305 305
313 314 310 309 308 308 310 315 318 319 320 320 318 317 318 318 319 321 323 324 324 324 322 318 316 320 319 320 320 320 319 319 317 317 317 317 317 316 315 311 310 308 308 308 308 307 305 305 304 304 304 304 305 305
314 313 311 312 313 310 309 312 317 320 320 320 319 319 319 322 322 323 324 324 325 324 322 324 323 323 323 322 322 321 320 320 320 317 317 317 317 317 313 309 308 308 308 308 308 307 305 305 306 306 306 306 305 305
315 315 315 314 313 316 316 314 311 314 316 317 316 316 318 319 318 318 319 324 325 323 323 323 323 324 324 324 323 323 322 321 320 319 318 316 317 315 311 308 309 309 309 310 308 307 306 306 305 306 307 305 306 306
314 315 315 315 317 318 318 319 320 320 318 317 318 318 317 317 319 322 322 323 324 324 325 325 325 326 326 325 325 325 324 321 321 320 317 316 316 315 310 308 308 309 309 309 308 307 306 305 304 305 306 306 305 305
314 315 315 315 314 314 317 318 319 318 319 318 318 320 319 323 323 321 320 322 323 323 323 323 323 322 323 323 322 323 323 322 320 318 316 314 316 314 309 309 308 307 308 308 308 306 306 305 305 305 305 305 305 305
315 315 314 313 316 318 319 319 317 318 319 317 319 319 323 323 320 321 320 320 323 324 324 324 322 322 322 321 323 323 321 317 314 314 313 313 314 314 310 310 310 309 308 309 307 306 306 305 305 305 305 305 304 304
310 315 313 313 315 317 320 320 321 320 319 319 319 321 320 318 322 322 321 322 323 322 322 323 323 323 323 323 323 323 320 316 312 310 308 308 310 309 308 308 308 307 308 308 307 307 307 306 306 306 306 306 304 303
311 313 315 315 316 317 316 318 319 320 318 320 320 321 319 321 323 322 322 322 322 323 323 323 323 323 322 323 322 321 320 322 319 310 310 309 309 309 308 308 308 307 307 307 307 307 307 307 306 305 305 304 304 304
313 314 315 317 317 318 319 318 320 317 316 322 320 321 323 323 321 323 322 321 321 322 323 323 323 322 322 323 322 321 321 321 311 309 310 311 309 309 309 308 308 307 307 307 307 307 307 307 306 305 304 305 305 304
313 314 315 316 317 318 319 320 318 319 318 320 318 319 320 321 322 321 321 320 318 317 317 317 320 319 318 319 319 317 316 311 311 313 312 310 309 307 306 307 307 307 307 307 307 306 306 306 306 305 305 305 304 303
313 312 314 316 317 318 320 319 319 319 319 318 318 320 321 321 321 320 317 316 315 315 315 317 315 314 315 312 311 311 313 314 313 312 311 311 309 306 306 306 305 306 307 306 306 306 305 305 305 305 305 305 304 304
314 315 314 315 316 317 317 318 319 320 321 324 324 322 321 319 320 315 314 314 315 314 311 312 317 310 312 312 312 311 312 312 312 309 309 309 308 308 307 306 306 305 305 306 306 305 304 305 305 305 305 303 303 304
315 316 317 316 318 318 318 319 321 323 323 321 321 323 322 322 320 315 314 313 314 312 310 310 313 311 310 310 310 311 311 311 309 309 308 308 307 307 307 307 308 306 305 305 305 304 304 304 304 303 303 305 306 306
316 317 318 318 318 318 320 322 321 320 320 320 320 321 321 320 316 316 315 314 313 314 311 309 309 310 309 309 309 309 309 309 309 308 308 307 307 307 307 306 306 306 305 306 306 306 306 305 305 305 305 305 305 305

GFSWCAN_850_thetae_096.txt.gz
Theta_e
317 315 314 314 315 315 316 318 321 312 309 310 311 312 311 312 319 318 318 318 319 317 317 317 317 317 317 315 311 314 313 313 311 314 314 313 312 312 315 318 318 317 314 317 314 319 323 318 320 323 319 323 327 326
316 314 313 314 315 315 315 317 321 318 310 310 310 311 311 311 320 320 318 315 320 320 317 317 317 318 318 318 318 316 314 313 315 311 310 309 310 310 311 316 315 319 315 318 315 316 317 317 318 321 322 325 326 327
315 313 313 315 318 319 315 317 320 321 309 310 310 310 310 310 315 318 316 313 320 321 321 317 317 317 317 317 317 318 317 317 316 315 313 309 313 307 308 310 314 314 313 316 316 317 317 317 320 322 323 325 325 326
312 314 316 317 318 318 315 316 320 321 310 310 310 310 310 310 309 315 316 318 322 320 316 317 317 317 317 316 316 317 317 316 314 314 314 308 312 311 310 310 313 315 313 313 314 316 317 317 319 321 324 326 325 324
316 317 317 317 318 317 316 316 320 321 310 310 311 310 311 311 310 312 316 320 320 321 319 318 317 317 317 318 318 317 318 318 318 318 314 312 312 311 310 310 313 315 313 315 317 315 315 316 316 319 321 323 325 325
317 318 319 318 318 317 316 318 320 320 309 311 311 311 311 310 311 314 317 315 320 319 321 315 318 317 318 319 318 318 316 317 318 318 314 314 313 312 306 305 315 316 316 316 316 316 316 317 316 316 316 319 320 320
318 317 318 319 317 316 316 319 321 313 310 311 312 311 312 314 316 320 321 321 320 318 323 318 317 318 318 318 318 318 317 317 317 316 315 314 313 312 305 308 316 316 316 315 315 317 316 316 316 316 316 316 317 318
316 315 314 315 315 315 317 320 320 310 311 311 311 314 315 317 320 319 318 319 319 317 323 315 317 318 318 319 319 319 318 318 316 314 313 311 309 306 306 311 316 316 316 316 316 315 315 315 315 315 315 315 315 315
314 314 313 312 313 316 317 320 310 310 311 311 313 319 319 320 321 320 317 314 316 321 322 318 317 318 319 320 319 318 318 313 315 311 311 310 306 302 307 313 315 315 315 315 314 313 312 310 311 313 314 315 315 314
314 313 313 313 314 317 320 313 309 310 311 310 317 322 323 322 320 318 317 319 318 321 322 318 318 316 319 318 317 317 315 310 312 310 312 306 305 311 311 314 316 316 315 314 314 314 311 311 310 311 312 314 315 315
314 313 315 315 316 318 318 309 310 310 310 315 322 322 321 322 321 323 323 322 322 322 322 322 320 317 319 318 317 315 310 309 310 310 311 308 309 311 311 312 314 315 314 314 314 315 314 313 312 311 311 311 311 312
315 314 315 316 318 319 315 309 308 310 318 320 320 318 321 321 321 320 317 319 317 319 319 319 318 319 318 318 317 315 314 311 316 312 310 308 309 314 314 311 312 313 314 314 314 314 314 314 313 313 313 313 313 312
316 316 316 318 315 313 311 309 309 313 313 315 315 320 321 319 315 319 322 320 317 318 319 318 316 317 316 317 315 311 315 314 313 313 310 310 313 314 315 315 312 314 315 315 315 314 314 314 314 313 314 314 314 313
314 317 317 312 310 311 311 311 311 310 309 316 319 310 317 317 317 316 317 317 321 321 320 319 317 317 317 314 311 315 311 313 316 313 314 310 314 314 314 315 315 315 315 314 313 313 313 313 314 314 314 313 311 311
310 312 312 312 310 310 310 310 310 309 310 316 319 315 318 320 320 322 322 321 323 321 320 318 315 315 311 313 311 312 316 317 315 313 309 315 315 315 314 315 316 315 314 313 312 310 309 310 310 308 307 306 307 307
310 310 309 309 308 310 310 310 309 309 310 313 317 317 317 317 317 320 321 322 323 321 319 319 312 313 315 312 316 315 316 314 312 310 315 315 315 315 315 315 316 315 313 312 311 309 308 307 307 307 307 307 306 306
308 313 311 310 310 310 310 310 309 311 313 317 317 317 317 317 316 317 319 323 322 320 315 313 315 315 310 313 314 312 312 310 314 315 315 315 315 315 315 316 315 314 313 311 310 309 307 306 307 307 305 305 305 305
309 314 316 314 311 312 312 312 310 316 319 318 317 313 315 316 317 317 318 319 321 319 316 317 315 312 312 312 310 308 312 314 314 314 314 314 315 315 316 315 315 314 312 310 309 307 307 307 306 304 304 305 304 304
311 313 314 310 310 311 311 314 313 313 314 316 317 317 317 317 317 317 318 318 320 320 319 319 319 314 313 312 314 316 316 317 316 316 315 315 315 315 315 316 315 312 310 308 307 307 307 305 304 304 304 304 304 305
313 314 313 310 308 308 308 312 316 318 318 319 317 317 316 315 317 318 319 323 321 322 321 317 315 319 319 320 320 320 320 320 319 318 316 315 315 316 316 316 315 311 308 307 307 307 306 304 303 303 303 304 304 304
314 313 311 311 310 309 309 310 316 318 319 319 319 319 318 318 319 322 322 322 322 323 320 323 323 322 323 323 322 322 320 321 321 319 319 317 316 316 316 315 312 309 307 308 308 308 306 304 305 305 306 306 305 305
314 313 314 314 314 315 315 313 311 312 314 316 316 316 316 317 318 318 318 322 323 323 324 324 323 323 323 323 324 324 324 323 320 320 322 318 317 316 315 315 311 308 307 308 308 308 307 305 305 305 306 306 306 305
315 315 314 314 316 316 316 317 319 319 316 317 316 316 316 316 317 317 320 320 321 320 322 323 324 325 325 325 325 324 324 324 324 322 320 319 317 317 316 314 311 308 308 308 309 309 307 306 306 304 305 305 305 305
314 315 314 313 313 311 316 317 319 318 317 317 316 319 317 319 322 320 319 321 322 322 323 323 323 323 323 322 322 321 322 323 323 321 320 318 318 317 317 315 311 309 307 308 309 309 307 305 304 304 305 305 305 305
315 314 315 313 315 316 316 318 317 317 318 317 318 318 319 322 318 319 319 319 321 322 322 323 323 322 323 323 322 322 323 322 321 319 318 318 317 316 315 310 309 308 308 308 308 308 306 304 304 305 305 305 305 304
308 313 313 312 313 315 317 319 320 319 318 318 316 319 320 317 320 320 319 322 322 322 323 322 323 323 323 322 323 323 320 318 315 313 314 314 315 314 310 309 309 308 308 308 308 308 306 305 305 305 305 305 305 305
312 312 315 315 314 315 315 315 316 318 318 319 320 320 319 320 321 320 321 322 320 320 321 322 322 322 322 322 322 322 322 317 314 311 310 313 311 311 310 309 309 309 309 307 308 308 307 307 306 305 305 305 306 305
312 313 313 316 316 317 318 317 317 318 316 319 320 321 322 321 320 322 322 320 320 319 318 318 317 318 319 320 321 322 321 321 320 311 310 312 313 309 309 308 308 308 307 307 307 307 307 307 307 306 305 305 305 304
312 313 313 314 315 316 317 318 318 319 317 320 317 317 319 320 321 321 320 318 315 315 315 316 317 317 317 319 320 320 320 320 316 314 314 312 311 311 308 309 308 308 308 307 307 307 307 307 307 307 306 305 305 305
311 311 312 313 314 316 318 319 318 318 318 318 318 319 320 321 320 317 314 313 314 315 313 314 316 313 314 317 318 317 316 314 313 313 312 312 311 310 309 306 306 306 307 307 307 307 307 307 307 306 306 306 305 304
312 312 312 312 314 314 315 317 317 317 319 321 322 322 321 320 320 316 314 313 313 314 311 311 317 314 311 313 316 315 314 312 312 311 311 309 310 309 306 306 305 305 305 306 306 306 306 305 305 305 305 305 305 305
313 314 314 314 316 317 316 316 317 321 322 320 321 322 322 322 318 314 315 314 312 313 310 311 313 312 310 310 312 312 311 311 311 310 309 308 308 308 307 307 306 307 306 305 305 305 305 304 304 305 305 305 304 304
314 315 315 316 317 318 318 321 320 319 319 320 320 321 321 319 316 317 314 313 312 312 311 310 310 310 309 309 310 310 309 309 309 309 308 308 307 307 307 307 307 307 307 306 305 305 304 304 304 304 304 304 304 305

GFSWCAN_850_thetae_099.txt.gz
Theta_e
320 319 316 314 313 314 315 315 317 321 312 309 310 311 311 311 319 318 317 318 318 317 317 317 317 317 316 316 319 316 317 316 318 323 323 323 325 323 323 322 322 322 322 324 322 325 325 321 323 326 323 324 330 329
320 318 315 312 313 314 316 316 316 320 317 310 310 310 310 310 318 320 317 316 319 318 317 317 317 317 317 317 317 316 316 315 317 321 319 319 322 318 319 327 318 325 321 327 323 324 320 320 320 321 322 324 327 327
320 317 313 314 315 315 316 318 315 320 320 310 310 310 309 309 314 318 318 313 320 318 317 318 317 317 317 316 316 318 316 316 315 315 317 318 322 317 323 322 319 318 316 322 322 320 319 320 320 323 324 324 326 325
318 314 315 316 316 317 317 318 315 320 321 310 310 310 310 309 309 315 314 315 321 319 319 317 317 317 317 317 317 317 317 315 314 314 316 317 321 314 319 318 319 319 318 321 321 319 318 318 318 321 324 324 325 324
315 315 316 317 318 317 317 318 315 320 321 309 310 310 310 311 310 312 315 319 320 320 320 318 317 317 317 318 318 316 318 318 317 320 320 320 316 318 315 317 321 318 320 323 324 318 319 318 316 317 322 323 324 325
315 316 317 317 318 318 317 317 316 320 318 309 311 311 311 310 310 315 315 316 319 320 319 320 317 317 318 318 318 317 317 317 318 319 317 315 313 316 322 324 318 317 316 315 318 315 316 315 315 316 318 319 321 322
316 317 315 314 318 317 316 316 319 320 310 310 311 311 312 312 312 318 319 318 319 319 321 320 320 317 318 318 318 318 317 316 317 316 317 316 314 314 318 324 319 317 315 315 315 316 317 316 316 315 315 315 317 318
316 315 314 314 314 315 314 316 320 315 309 311 311 313 315 316 318 318 316 320 319 317 323 321 322 319 318 319 320 318 318 317 315 314 313 315 311 310 318 316 317 316 316 316 315 315 314 314 314 314 315 315 315 316
315 314 313 312 312 313 314 317 319 309 310 311 312 317 318 319 320 320 319 316 317 319 324 322 324 325 318 319 319 318 317 321 315 317 316 314 311 314 316 314 317 316 317 316 314 313 312 310 311 312 312 312 314 315
316 314 314 313 312 312 314 317 310 309 310 310 316 320 321 321 320 318 315 317 317 319 322 323 318 323 319 319 319 320 316 320 321 317 312 316 318 313 310 313 316 315 314 314 314 315 311 312 311 311 312 313 314 314
315 314 315 315 315 317 317 310 309 309 310 313 320 322 320 319 319 321 323 321 321 324 322 322 320 322 319 322 321 316 320 318 321 318 318 318 319 315 311 313 315 315 314 314 313 313 312 312 312 312 311 311 311 311
315 314 315 316 317 318 312 308 308 310 313 319 320 319 321 321 321 322 323 321 323 325 320 321 320 319 318 318 320 317 320 318 320 316 319 321 319 313 311 311 313 313 313 312 312 312 313 313 313 312 313 313 312 312
312 315 316 316 314 314 310 308 309 315 316 317 316 320 320 319 319 321 323 326 325 320 319 317 319 318 315 316 318 319 320 319 316 320 322 319 317 313 313 311 311 312 313 313 313 314 314 314 314 314 313 314 314 314
311 315 316 313 310 310 309 309 309 311 310 314 317 309 320 321 321 321 322 323 322 320 319 319 317 319 316 318 317 319 317 318 321 321 320 320 314 314 313 314 312 311 313 315 315 315 314 313 312 313 313 314 313 310
309 312 313 311 309 310 310 310 310 310 310 316 319 318 321 320 320 320 320 320 321 320 319 318 316 317 317 318 317 318 320 321 320 320 319 316 313 313 314 314 315 314 313 315 314 313 311 309 312 313 310 307 306 306
307 310 309 310 311 309 310 309 309 309 309 312 317 320 319 319 319 320 321 323 322 320 318 319 318 319 319 319 319 320 320 321 319 318 315 314 314 315 315 314 315 315 315 314 313 311 308 308 308 307 307 307 306 305
308 310 312 310 310 309 309 309 309 310 311 316 316 315 317 317 318 318 317 322 321 319 323 319 321 321 316 320 320 319 320 319 317 315 315 314 314 315 315 314 315 315 315 313 311 309 308 307 306 307 307 305 304 304
311 312 315 314 311 311 312 312 310 314 318 317 316 315 316 316 317 317 317 321 320 319 318 320 315 317 319 319 319 317 316 316 316 315 314 314 314 314 314 314 315 315 314 313 311 309 307 306 307 306 304 304 304 305
313 312 315 312 310 311 311 313 312 312 313 315 316 315 316 316 315 316 316 317 319 319 317 318 321 320 321 317 318 318 318 318 317 317 317 315 314 314 315 315 315 315 314 312 309 307 306 306 304 303 304 304 305 304
313 312 313 310 308 308 308 310 315 316 318 318 316 315 314 314 313 314 316 318 318 320 322 322 322 321 321 321 321 321 321 320 319 317 319 319 315 314 314 315 315 315 312 309 307 306 307 305 303 303 303 304 304 304
312 313 313 311 309 308 308 310 315 317 318 319 318 318 319 317 317 318 320 320 321 324 325 323 323 323 323 323 323 322 322 322 322 320 320 321 317 317 318 315 315 314 310 307 306 307 307 305 304 303 304 305 305 305
313 313 312 312 313 314 314 313 310 312 313 316 316 316 317 318 319 319 319 322 324 324 322 322 322 323 323 323 323 323 324 324 323 322 322 318 320 321 319 315 314 312 309 306 307 308 308 306 304 304 305 306 306 306
313 313 314 313 315 315 315 315 317 318 319 319 316 317 317 317 316 314 320 320 320 318 319 320 321 322 323 323 323 323 323 323 323 323 322 320 319 319 319 317 313 312 308 307 307 308 308 307 305 304 305 306 306 305
314 314 314 312 313 311 314 317 318 319 318 319 320 321 319 319 319 321 324 323 321 322 322 322 322 323 323 322 322 322 322 321 322 322 322 321 321 322 320 315 314 314 310 309 307 308 308 307 306 305 304 305 305 305
314 314 314 312 314 315 317 319 318 319 320 320 321 322 322 321 324 324 325 323 320 321 322 322 322 322 322 322 323 322 322 322 322 321 321 320 318 318 315 314 313 311 308 309 308 308 309 308 306 304 304 305 305 305
311 312 312 314 315 317 318 321 321 320 320 320 320 320 321 322 324 324 324 322 321 321 321 322 322 322 322 322 322 322 323 322 318 314 316 316 317 316 315 314 312 310 309 309 308 308 309 308 306 304 304 305 305 305
309 313 314 314 313 315 316 317 316 318 320 321 323 323 322 323 323 324 320 320 321 320 320 320 320 319 319 319 320 322 322 322 316 312 313 315 315 315 314 315 313 310 309 308 308 308 308 308 306 305 305 305 305 305
312 312 314 315 315 315 317 318 319 320 320 319 321 322 321 322 324 321 322 321 319 317 315 315 315 315 317 317 319 321 321 322 317 312 313 312 314 313 312 311 310 309 308 308 309 308 308 308 307 306 306 305 305 305
311 313 313 315 316 316 317 318 319 318 317 319 321 321 321 318 320 320 320 316 314 314 314 314 317 315 318 319 319 319 320 318 316 314 312 312 312 312 310 308 308 309 308 308 307 307 307 307 307 307 307 306 306 305
311 311 313 314 313 314 316 317 319 318 317 317 317 318 319 319 320 317 314 313 313 313 312 313 316 313 317 315 313 314 315 315 312 312 312 313 313 311 309 309 308 307 308 308 307 307 307 307 308 307 307 307 307 306
311 312 312 311 312 313 313 314 315 315 316 318 319 321 321 320 319 318 314 313 312 312 311 311 316 312 313 316 314 313 313 312 312 312 312 309 310 311 309 306 305 306 306 307 307 307 307 307 307 307 307 306 306 306
312 313 314 315 315 314 312 313 315 318 320 320 321 321 321 321 318 315 314 312 311 311 311 312 314 315 311 311 314 314 311 310 310 311 310 309 309 309 306 306 305 305 305 305 305 305 305 305 305 305 305 305 305 305
313 313 314 315 316 318 316 319 321 320 320 321 321 320 319 319 317 317 313 312 311 310 311 310 310 311 311 310 310 312 312 310 309 310 309 308 308 308 308 307 307 307 307 306 305 305 305 304 304 303 305 305 305 305

GFSWCAN_850_thetae_102.txt.gz
Theta_e
323 323 321 319 317 313 313 314 315 315 320 312 310 310 311 311 317 317 318 318 320 321 320 319 319 319 320 319 321 321 320 319 320 320 322 325 325 327 326 325 325 325 325 325 325 325 326 325 327 329 329 327 330 332
324 323 321 318 316 314 315 315 317 315 319 315 310 310 310 310 316 318 321 317 318 322 320 318 318 317 318 318 318 320 320 319 320 321 321 323 325 322 325 326 324 327 326 326 327 329 325 325 327 328 328 327 330 332
323 322 319 317 314 315 316 316 316 316 318 317 310 310 309 309 313 317 318 315 319 320 318 319 319 318 318 318 317 319 319 319 320 319 320 320 322 319 322 324 324 324 321 326 326 324 323 323 323 327 329 329 329 329
322 321 318 315 315 316 317 317 316 316 318 319 310 310 310 309 309 315 317 313 321 321 321 320 318 319 318 319 317 317 318 317 318 319 320 319 320 320 320 323 323 324 323 325 326 323 322 321 322 324 327 329 328 328
321 319 315 315 316 317 318 317 317 315 319 318 309 310 310 310 309 311 314 316 321 322 322 320 319 318 319 320 319 319 320 320 320 320 320 321 321 322 321 321 321 321 324 325 326 323 324 322 320 322 325 326 327 326
318 315 315 317 317 317 318 318 317 316 320 314 310 310 311 310 310 312 317 313 319 321 322 320 320 319 320 320 321 320 319 320 321 321 321 321 319 322 323 324 323 322 322 322 323 322 322 320 319 319 321 323 325 325
315 316 317 317 316 315 318 316 316 318 320 309 310 311 311 310 311 320 319 320 319 319 322 320 322 320 320 320 321 321 321 319 319 321 323 322 320 319 324 326 323 322 321 320 320 320 321 320 320 319 319 318 319 323
317 317 315 314 314 314 315 314 316 320 311 310 311 312 313 313 314 318 318 319 318 322 323 323 324 322 320 322 323 321 321 320 319 319 318 319 318 319 325 321 322 321 320 320 319 319 320 319 319 319 319 318 318 320
317 317 315 314 313 313 314 314 317 315 309 310 311 314 316 318 320 322 318 317 318 322 323 323 325 324 321 323 323 321 321 321 319 320 320 318 321 319 319 318 320 321 321 320 318 317 316 316 317 317 317 317 319 319
317 316 314 314 313 312 313 315 316 309 309 310 315 319 321 322 319 318 315 319 320 321 323 325 323 324 322 323 323 322 320 319 322 321 318 321 322 317 317 317 319 320 319 318 317 317 314 314 314 314 315 315 316 317
315 315 315 315 316 315 314 316 310 308 309 311 319 323 322 320 319 321 322 320 320 323 322 322 323 324 322 323 323 321 321 319 323 322 321 321 320 318 316 316 319 318 317 315 314 314 313 313 314 314 314 314 314 314
310 315 315 316 316 317 314 309 308 309 313 318 321 320 320 322 323 324 323 323 324 322 324 323 323 322 322 322 321 321 321 320 322 320 321 323 319 319 316 315 317 317 316 315 315 314 314 313 314 314 314 315 315 315
309 314 315 316 316 316 310 308 308 312 316 319 319 321 322 321 322 322 324 325 325 323 324 322 323 322 320 321 320 320 320 320 319 321 324 321 320 319 318 315 316 316 316 316 315 315 315 315 316 315 315 316 316 316
309 313 315 316 313 311 309 308 308 315 313 318 320 315 321 322 320 320 321 323 324 324 322 321 322 321 320 320 319 320 320 320 321 321 319 318 318 319 319 317 315 315 316 316 316 316 317 317 317 317 316 316 316 316
307 312 314 313 309 310 309 309 309 310 310 317 319 322 319 318 322 322 322 324 324 323 322 322 321 321 320 320 320 320 322 322 321 320 318 317 319 319 320 319 317 315 315 315 316 317 317 317 316 315 315 315 314 312
309 308 310 311 310 310 310 309 309 309 312 314 318 322 322 322 321 323 324 325 324 323 322 321 322 322 321 321 322 322 321 322 320 320 319 319 320 321 321 320 319 318 317 316 317 317 317 315 314 313 312 311 311 310
313 309 310 310 310 309 311 313 312 314 313 315 315 315 318 321 322 324 323 325 324 323 324 323 323 322 322 322 322 322 322 321 321 321 321 320 321 320 315 320 320 319 319 318 318 316 314 313 311 311 310 310 309 309
313 309 313 310 311 311 311 310 313 315 316 314 315 314 316 316 319 320 321 324 324 324 323 324 322 323 322 323 323 322 321 321 320 320 320 320 316 314 315 317 317 319 319 318 316 314 313 311 310 310 310 309 308 309
314 312 314 314 311 311 313 314 313 314 313 314 316 316 316 316 316 318 320 322 323 324 323 322 322 323 323 321 322 322 322 323 323 323 322 319 316 314 314 319 320 318 317 316 315 313 311 310 309 309 308 307 307 308
313 313 314 311 308 309 311 313 315 317 316 317 316 315 315 314 315 317 316 318 321 321 322 324 325 323 323 322 322 323 323 324 324 323 323 323 319 318 315 315 316 316 316 315 314 311 310 310 308 307 307 307 307 307
311 312 313 311 310 308 310 312 315 317 319 319 320 321 320 319 319 316 318 321 322 323 324 323 323 322 322 324 327 326 325 325 324 323 323 324 324 320 319 315 316 315 315 314 311 309 309 308 307 306 306 306 307 307
312 313 313 312 310 313 315 316 314 315 317 318 319 319 320 320 319 318 320 322 322 322 323 323 322 324 324 327 327 328 327 324 326 326 325 323 322 320 317 315 315 316 314 312 309 309 309 308 307 306 306 306 307 307
312 312 313 313 314 316 316 316 318 318 319 318 318 318 318 318 319 320 320 319 319 321 323 325 325 321 322 326 325 325 326 327 326 326 326 324 322 319 316 317 317 315 312 309 310 309 308 308 307 306 306 307 308 307
312 314 314 314 315 315 317 319 319 320 320 321 321 321 320 319 322 321 320 318 318 323 325 325 326 326 326 327 326 326 326 325 324 324 325 324 321 318 317 317 315 314 313 310 308 308 309 309 307 306 307 307 307 307
313 314 315 313 316 317 318 319 319 321 321 321 321 320 322 321 324 324 323 322 324 324 326 326 326 326 325 325 326 326 326 324 322 323 323 322 321 318 316 315 312 311 311 308 308 309 309 310 308 306 306 307 307 307
312 315 315 316 317 317 317 320 321 321 320 321 322 322 323 323 322 323 323 323 324 325 325 325 325 325 325 325 325 325 325 324 319 318 318 319 318 317 316 312 310 311 311 310 309 309 309 310 309 308 306 306 306 307
311 315 315 316 316 317 317 318 318 319 321 321 322 322 323 322 323 321 321 324 325 325 323 321 320 320 320 320 320 319 321 321 319 316 314 316 317 317 316 316 313 312 310 309 310 310 310 310 310 308 307 307 307 306
313 313 315 316 316 316 318 319 320 320 320 320 321 321 322 322 323 320 321 324 321 318 316 316 316 317 317 318 317 320 319 320 320 315 314 315 315 315 314 314 313 313 312 310 310 310 310 310 310 308 307 307 307 307
312 313 313 315 315 317 317 318 319 320 319 320 322 322 322 322 323 324 321 316 313 316 316 316 317 317 319 318 318 318 318 315 314 314 314 314 314 314 314 313 312 310 309 309 309 310 310 310 309 308 308 307 307 307
311 311 313 313 315 317 317 317 319 320 319 319 319 321 322 324 321 317 315 316 316 315 314 313 315 317 317 317 317 316 316 315 315 315 315 314 314 314 312 310 310 310 309 309 309 309 309 309 309 309 308 308 308 308
313 313 312 312 313 313 313 315 317 318 318 319 322 322 322 323 322 320 316 314 313 314 313 314 316 315 317 316 315 315 314 314 314 314 313 312 312 313 313 311 310 309 309 309 309 309 308 308 308 309 308 308 308 308
312 313 314 315 315 314 313 314 315 317 320 322 321 323 324 324 321 319 315 312 316 314 312 314 316 315 314 316 316 315 312 313 313 313 313 312 312 312 311 309 308 308 308 309 309 309 309 309 308 309 309 309 309 308
314 314 315 316 318 319 318 318 320 321 322 323 323 321 321 320 320 318 313 311 314 314 312 312 312 312 312 312 313 314 313 312 311 310 310 309 310 310 309 308 307 307 307 308 307 307 307 307 307 308 308 308 308 308

GFSWCAN_850_thetae_105.txt.gz
Theta_e
323 323 323 324 323 319 316 314 315 314 315 320 311 310 311 310 315 318 326 318 326 322 322 320 319 320 321 321 323 323 321 322 320 321 323 324 325 327 326 325 329 323 326 329 327 330 332 327 328 332 332 330 331 334
322 323 323 322 322 319 315 314 315 315 316 318 314 310 310 310 313 316 325 320 318 325 322 320 320 319 320 318 319 321 321 322 320 322 322 323 325 323 325 325 325 324 327 330 328 331 328 327 328 329 329 329 330 333
322 323 322 322 321 317 315 315 317 316 316 317 316 310 309 310 311 316 322 322 323 322 320 320 320 320 319 319 319 320 322 320 320 320 322 322 322 322 322 323 324 325 324 323 326 326 326 326 328 330 330 329 330 331
322 322 322 322 318 315 315 316 317 317 316 317 318 310 310 309 309 315 321 322 325 324 322 322 321 320 320 321 319 319 319 319 319 319 320 322 321 321 322 322 323 326 325 324 326 324 324 324 325 328 330 330 329 329
322 322 322 318 315 316 317 317 317 317 316 317 318 310 310 310 309 310 319 321 323 326 324 323 321 320 321 322 321 321 321 321 321 321 321 322 321 321 320 322 322 322 324 328 328 325 326 324 323 325 326 328 328 327
323 321 318 315 317 317 317 316 318 317 316 319 316 310 310 310 310 315 318 318 322 323 325 322 322 322 322 322 323 322 321 320 321 322 322 321 323 320 323 323 323 324 324 325 325 324 325 323 322 322 323 325 327 327
320 316 315 317 316 316 315 317 317 317 316 320 312 310 311 311 310 320 322 323 316 322 322 322 323 323 322 323 323 323 322 320 319 322 322 323 322 319 322 326 323 323 323 323 323 323 323 322 322 321 321 321 323 326
315 316 317 316 315 314 314 315 315 316 319 314 310 311 312 311 311 315 319 317 316 321 322 323 325 325 322 323 323 324 322 321 321 321 320 321 322 321 329 323 322 323 323 322 322 322 322 322 322 322 321 321 322 323
315 316 317 315 315 313 314 315 315 318 314 310 311 313 314 315 317 320 320 315 319 324 322 320 325 327 324 322 324 324 322 322 322 321 322 320 324 325 320 319 321 323 322 322 321 321 320 320 320 320 320 320 320 320
310 316 316 315 315 314 313 314 317 315 309 311 313 318 320 320 321 321 315 319 318 318 324 326 323 326 322 324 323 323 322 322 322 324 321 321 326 318 319 319 319 322 322 322 321 319 318 317 317 317 317 318 319 320
308 312 315 315 315 315 313 315 316 309 309 311 318 322 323 319 319 320 320 320 319 321 320 320 323 326 323 325 324 322 324 321 322 325 321 323 322 321 319 318 319 321 321 320 318 318 317 315 316 316 316 316 316 316
308 308 314 314 316 316 315 316 310 308 315 317 321 322 322 320 321 322 323 321 322 323 323 322 323 324 324 323 322 323 323 322 323 323 322 324 322 322 319 318 320 320 318 317 316 316 315 315 315 316 316 316 316 316
309 308 312 314 315 315 314 311 308 310 314 319 320 322 321 320 325 323 323 323 323 322 324 324 325 324 324 322 323 323 321 322 321 321 324 323 322 320 318 317 318 318 317 316 316 315 315 315 315 316 316 316 316 317
309 308 312 314 313 312 309 308 308 312 318 320 321 323 321 321 319 320 321 322 321 323 324 323 324 323 322 323 322 322 323 322 322 323 323 320 321 320 319 318 317 317 317 317 316 316 316 316 317 317 317 316 316 316
310 308 312 312 310 310 309 308 308 314 312 318 319 325 320 318 320 320 320 323 326 324 323 322 323 323 323 323 321 322 323 323 323 322 321 321 321 321 321 320 318 318 318 317 317 317 317 317 318 317 317 316 315 316
312 307 310 311 310 310 309 309 309 310 313 314 317 320 319 320 319 321 322 322 323 324 323 323 323 323 323 322 323 323 323 324 323 322 321 323 322 321 321 321 319 319 318 318 317 317 318 318 317 317 316 315 314 313
313 310 310 311 311 310 309 309 313 315 314 315 316 315 317 319 320 321 322 322 324 324 325 323 325 324 324 324 324 324 324 324 323 323 323 324 324 326 324 323 321 320 320 319 318 318 319 318 317 316 315 313 312 311
313 312 311 311 309 310 311 312 314 313 314 315 315 315 315 315 319 322 323 324 324 323 323 324 323 324 325 325 325 325 323 323 323 323 323 324 326 328 326 325 323 322 321 321 320 320 319 318 316 314 313 313 312 311
312 312 311 311 311 312 314 314 315 315 315 315 314 315 316 316 316 319 323 325 325 325 325 324 325 326 325 323 323 323 323 324 324 325 323 325 327 326 325 324 324 324 322 322 321 319 317 316 314 311 312 311 310 310
312 312 312 313 310 312 314 314 316 315 315 315 314 315 315 316 315 317 321 323 325 326 326 324 324 322 323 324 323 324 325 325 324 325 324 322 322 326 326 324 323 323 321 318 319 316 315 313 311 310 310 309 309 309
311 312 312 313 309 311 313 314 316 316 318 318 318 319 319 317 316 316 319 319 322 324 324 323 323 323 323 323 325 328 327 325 324 323 322 321 320 322 325 324 323 321 320 319 318 314 312 311 310 309 309 308 309 308
310 310 312 312 310 313 314 314 315 317 319 320 321 321 321 321 320 318 316 318 321 322 322 322 322 323 324 325 326 326 326 327 327 327 325 326 326 325 326 324 323 321 320 319 315 313 312 310 309 308 308 308 307 308
311 312 312 311 312 312 314 318 319 318 320 319 319 320 320 320 320 321 319 318 319 320 321 321 323 328 328 326 326 328 328 329 328 327 327 327 327 326 326 324 322 320 319 316 313 311 310 309 307 308 308 307 308 308
311 313 312 313 314 317 318 319 320 320 320 321 321 322 321 320 321 321 322 320 319 317 318 323 325 323 321 326 326 326 328 328 327 326 326 327 326 326 322 320 319 317 316 314 313 310 309 308 309 307 307 308 308 309
312 313 314 314 317 318 319 319 320 322 323 322 322 322 323 323 323 321 322 320 320 322 322 324 325 323 323 325 326 326 327 327 327 326 325 326 325 322 318 316 315 315 314 315 310 309 309 310 309 307 307 308 309 309
315 317 316 317 317 318 318 319 320 321 321 322 321 321 322 322 322 323 325 324 324 325 326 326 326 326 326 326 325 326 326 327 326 324 323 322 323 322 318 315 314 312 312 313 310 310 310 310 310 309 308 308 308 308
314 317 317 317 317 317 317 318 320 321 323 322 323 323 323 322 323 323 321 322 325 326 325 324 322 320 319 319 320 322 322 321 322 321 319 319 319 319 317 315 313 313 312 312 309 309 310 311 311 310 308 308 308 307
314 314 316 317 316 316 318 319 320 322 323 321 321 322 322 323 324 320 318 324 325 322 319 318 318 320 320 321 321 320 319 319 319 318 317 316 317 316 315 315 313 312 310 309 310 310 311 311 311 311 309 308 308 308
314 314 314 316 316 317 317 318 319 320 320 321 322 324 322 323 324 325 325 323 320 319 318 317 319 320 320 321 320 318 318 317 317 318 318 317 316 315 316 316 313 311 311 311 311 311 312 311 311 311 310 309 308 308
313 313 314 315 316 317 317 318 318 319 321 320 321 321 322 325 325 322 321 320 318 316 315 316 318 319 319 318 318 317 317 317 317 317 316 316 316 316 316 315 313 313 313 312 311 311 311 311 311 311 310 309 308 309
313 313 313 314 315 315 316 317 318 319 320 320 320 322 322 323 324 323 321 319 316 316 315 316 318 317 318 317 317 316 316 316 316 315 315 314 314 314 313 313 312 312 311 311 311 311 310 310 310 310 309 309 309 309
314 315 315 316 316 315 314 315 317 318 319 320 321 322 323 322 323 322 318 316 317 315 313 315 316 317 316 317 317 316 314 315 315 315 315 315 314 314 313 312 313 311 311 311 311 310 310 310 309 309 309 309 309 309
314 313 314 315 318 319 317 316 318 320 320 323 321 322 321 321 321 318 316 317 316 314 313 313 313 313 315 315 315 316 316 315 314 313 310 311 312 313 313 312 310 310 310 310 310 310 310 310 310 309 309 309 310 310

GFSWCAN_850_thetae_108.txt.gz
Theta_e
321 320 319 322 323 323 323 320 316 314 315 315 316 316 309 311 311 315 326 327 325 327 326 322 320 321 322 321 324 323 323 323 322 322 322 324 328 331 328 324 323 329 328 328 330 332 334 326 331 331 332 330 331 334
321 321 321 322 323 322 322 319 315 315 316 315 316 319 310 310 310 313 326 326 323 326 326 321 320 319 319 319 320 321 322 322 323 324 325 324 324 324 324 324 327 328 327 329 329 330 328 329 330 329 328 329 332 333
321 321 321 321 322 322 321 316 315 316 317 315 316 319 310 309 310 312 322 324 323 322 321 321 320 320 320 320 320 320 324 323 322 321 321 324 324 323 323 323 323 327 325 325 330 326 325 327 328 329 329 331 332 332
321 321 321 321 322 322 317 315 316 317 317 316 316 319 311 310 309 310 314 324 324 326 326 323 322 321 320 322 321 320 320 320 320 320 320 321 323 323 323 323 324 325 327 324 326 327 326 325 327 328 330 330 330 330
321 321 321 322 322 318 316 317 317 317 317 317 316 319 310 310 309 309 312 322 323 326 328 326 323 323 320 323 322 323 323 322 321 322 322 322 324 325 322 320 322 324 328 327 328 325 327 326 325 326 330 330 329 328
322 322 322 322 317 316 317 316 316 317 318 317 317 318 310 310 309 309 317 315 322 323 326 329 323 322 322 323 324 324 323 321 321 322 322 323 325 324 322 327 323 325 325 327 326 325 325 324 323 323 324 330 328 328
322 321 320 316 316 317 316 316 315 317 317 316 319 314 310 310 310 317 322 323 320 323 326 323 324 324 323 323 323 324 324 322 319 321 323 322 324 319 319 330 324 325 323 324 325 324 324 322 322 322 322 323 328 326
318 316 315 316 317 316 315 315 315 314 316 318 316 310 310 311 310 310 319 319 316 320 320 323 325 326 324 323 323 324 323 323 322 322 323 321 325 324 331 323 323 324 323 323 322 322 322 322 323 322 322 322 323 326
312 313 314 316 316 315 314 314 315 314 318 315 310 311 312 312 316 315 318 318 313 323 324 322 324 328 325 323 325 325 324 323 324 325 322 323 327 325 323 320 322 324 323 322 322 322 321 322 321 321 321 321 321 324
310 310 313 316 315 315 314 314 314 317 311 310 311 315 319 317 320 322 321 318 318 317 326 327 322 328 326 324 324 324 325 324 324 324 324 325 327 323 322 320 321 322 322 322 322 321 320 319 319 320 319 319 320 320
311 309 309 315 315 316 315 313 316 309 309 311 317 321 323 320 320 320 319 318 318 318 318 318 321 326 325 326 325 324 324 324 323 323 325 323 325 326 323 320 320 321 323 322 322 321 320 318 317 317 317 317 318 318
312 311 308 312 315 315 315 315 313 308 313 316 320 323 321 319 320 320 321 320 321 321 321 321 320 324 325 324 326 325 323 324 323 325 325 326 326 323 321 320 320 321 322 321 319 318 318 316 317 317 317 317 317 317
313 312 308 312 314 315 316 316 311 310 315 318 321 321 321 320 321 322 322 322 322 322 322 323 322 326 327 324 322 325 324 323 323 324 324 325 326 323 320 319 320 321 319 318 317 317 316 316 316 316 317 317 317 318
313 311 308 312 314 314 312 314 309 308 314 321 321 322 323 322 322 323 322 324 321 322 323 323 324 325 324 323 324 323 323 323 324 323 325 326 325 322 319 319 319 319 318 317 317 317 316 316 317 317 317 317 317 317
313 311 310 313 313 312 310 308 307 308 317 319 321 324 321 320 321 319 319 320 322 322 324 324 325 324 325 324 323 323 324 324 324 324 323 325 322 322 321 320 320 320 319 319 318 318 317 317 318 318 318 318 317 317
313 312 308 311 311 310 310 308 308 311 315 316 319 321 320 320 321 321 321 322 324 324 324 323 324 324 325 324 324 323 323 324 325 324 325 325 324 323 323 322 321 320 320 320 320 319 318 318 318 319 318 318 317 316
312 312 311 310 311 310 309 309 311 314 316 316 318 318 319 320 321 321 322 321 321 323 325 324 325 324 324 325 323 325 324 324 324 324 326 325 323 323 323 323 323 322 321 320 320 319 319 318 319 319 318 318 315 315
312 312 311 310 311 310 309 310 313 315 315 316 317 317 318 317 317 319 322 323 324 324 324 325 324 325 324 325 326 326 325 324 325 326 328 327 328 328 327 327 325 324 323 322 321 320 320 319 319 318 318 317 314 314
311 312 311 310 310 311 311 311 313 316 316 316 316 317 317 317 317 318 319 320 323 321 325 325 327 327 327 324 325 325 325 325 325 325 326 326 326 324 323 328 327 326 325 324 322 322 321 321 320 318 316 314 314 313
312 311 311 310 310 311 314 315 314 314 316 317 317 317 316 317 318 317 317 322 323 318 324 327 326 325 325 324 327 326 327 327 326 326 326 324 323 324 326 329 328 326 326 325 324 322 321 320 318 315 312 313 313 312
311 312 312 312 312 311 314 314 316 316 316 317 317 317 317 316 316 317 317 318 323 325 326 325 325 324 324 325 327 325 324 322 325 327 326 325 323 322 321 325 328 327 325 325 324 322 320 319 316 311 311 310 310 311
310 311 311 312 312 313 313 313 314 317 318 319 320 320 321 322 320 318 316 317 319 320 322 323 323 323 323 326 325 323 328 328 327 324 321 321 324 327 327 326 326 325 325 324 323 321 318 314 311 311 310 309 309 310
310 310 311 311 311 312 312 314 318 319 320 320 319 321 321 322 321 321 322 319 317 318 320 321 322 323 327 329 329 326 324 325 326 325 327 327 326 327 327 327 326 325 324 323 321 319 315 312 313 313 309 309 309 309
309 311 311 311 311 315 315 319 319 320 320 321 322 321 321 321 321 321 322 322 320 319 319 320 321 323 325 326 324 322 326 327 328 327 328 326 326 327 327 325 324 324 323 322 320 319 313 313 313 309 309 309 309 309
311 311 312 314 315 317 320 320 322 322 323 322 323 323 324 323 325 325 323 321 321 321 320 320 322 323 322 321 322 328 325 321 319 328 327 325 326 326 324 322 320 319 320 320 318 315 314 312 308 309 310 309 309 309
317 314 315 318 319 320 320 319 320 321 322 323 324 323 323 325 323 323 325 324 319 324 320 324 324 324 326 324 320 325 326 327 327 326 325 324 323 324 324 322 319 317 316 317 316 315 312 309 309 310 308 309 309 310
314 317 318 318 318 318 318 318 319 321 323 323 323 323 323 322 322 324 323 322 322 325 324 325 323 321 320 320 320 322 324 323 323 323 322 321 321 322 322 320 317 316 315 315 315 314 310 310 311 310 309 309 309 309
316 316 317 317 318 318 319 319 320 322 323 322 321 324 324 324 324 321 321 320 324 325 322 321 320 320 322 323 323 322 321 321 321 320 319 318 318 318 317 317 317 316 314 312 314 312 311 311 311 311 311 309 309 309
315 315 315 316 317 317 318 318 319 320 321 322 324 323 323 322 318 321 320 324 324 321 320 319 320 321 321 322 320 319 320 319 320 320 320 319 318 318 316 316 315 314 314 313 312 311 311 312 312 313 312 311 310 310
314 314 316 316 317 318 317 318 318 319 320 321 321 322 323 321 321 323 322 322 321 319 317 316 318 319 320 319 319 318 318 319 319 318 317 317 317 317 317 315 313 312 312 312 311 311 311 311 311 311 312 312 311 309
314 315 315 315 317 316 317 318 318 319 320 320 321 321 323 322 323 324 323 321 319 318 316 316 318 318 318 318 318 317 318 317 317 316 316 316 316 317 316 315 315 313 313 313 313 313 313 312 312 312 312 312 311 310
314 314 315 316 316 316 316 316 318 319 319 320 321 323 323 320 322 323 318 318 318 317 315 315 317 318 317 317 318 317 316 316 316 316 316 316 316 316 316 315 315 315 314 314 314 313 312 312 311 311 311 311 310 310
315 315 315 316 318 319 318 317 318 319 321 322 321 321 321 321 321 319 317 318 317 315 314 314 314 314 314 312 315 316 316 316 316 315 314 312 311 313 314 315 314 314 313 313 312 312 312 312 311 310 310 311 311 311

GFSWCAN_850_thetae_111.txt.gz
Theta_e
319 314 316 320 321 321 321 323 322 321 316 314 315 315 318 310 310 310 316 327 326 327 324 325 321 321 322 322 324 322 324 325 325 325 323 327 330 328 323 324 326 326 328 327 328 330 330 323 329 332 329 329 333 335
314 315 318 320 321 321 321 322 322 320 316 315 316 315 316 312 310 310 317 327 326 325 323 325 322 320 319 319 319 320 321 324 323 324 324 325 328 323 325 329 323 328 326 327 328 329 326 325 326 322 329 334 333 331
317 319 319 320 320 321 321 321 322 316 315 316 316 315 316 314 309 310 311 322 324 325 319 320 323 320 319 320 320 320 322 323 324 323 323 322 325 323 324 324 327 324 324 327 328 326 327 321 322 329 332 331 329 330
319 319 320 320 320 321 321 322 319 316 316 317 317 316 316 315 309 309 310 319 324 325 328 325 322 320 320 322 321 320 320 321 321 319 321 321 322 324 324 323 323 326 324 326 327 324 324 326 330 331 330 329 328 328
319 320 321 321 321 321 322 319 316 316 317 317 317 316 317 315 310 309 309 312 324 323 327 327 326 324 322 322 322 322 323 323 322 323 323 322 325 325 323 321 322 326 328 328 328 323 326 326 327 329 330 328 327 325
319 321 322 322 321 321 317 316 316 317 317 318 317 316 318 312 310 309 309 308 319 322 324 329 326 325 322 323 323 323 324 322 321 321 323 325 325 325 323 326 324 327 327 325 327 326 325 324 324 329 329 329 327 326
319 320 321 321 319 316 316 316 316 316 317 318 316 317 315 310 310 310 322 323 317 321 325 328 326 323 323 324 324 324 325 324 321 319 322 324 323 321 320 323 324 326 324 326 325 325 324 324 322 324 329 329 327 325
317 316 315 316 316 316 316 316 316 315 314 317 317 317 310 310 310 309 318 320 319 321 321 323 325 325 324 324 324 324 324 324 323 320 323 323 325 325 327 323 322 324 323 323 324 324 323 322 322 322 322 327 326 324
314 312 311 313 315 316 316 315 314 314 314 317 315 310 311 311 311 311 309 318 316 319 325 320 324 329 325 325 324 325 325 326 324 325 324 324 323 317 323 323 321 323 323 322 322 322 322 323 323 322 322 322 326 326
314 312 311 311 314 315 315 314 314 314 316 310 310 313 316 314 318 318 319 319 317 317 325 328 325 326 326 326 327 326 324 327 325 327 324 327 327 322 322 318 319 323 323 322 322 321 321 320 321 321 320 320 320 325
314 313 311 309 311 315 315 315 314 315 309 310 314 319 323 318 320 321 322 319 319 320 316 319 324 325 326 329 328 325 327 326 326 325 327 327 326 326 324 321 319 321 322 322 322 321 320 319 319 318 318 318 318 319
313 313 312 311 310 313 316 314 315 309 312 314 316 320 321 320 321 321 323 321 323 320 319 317 315 317 325 325 328 326 326 326 325 326 328 330 330 326 324 321 320 320 323 322 322 321 320 319 318 317 317 317 316 317
312 313 313 310 310 313 315 315 315 310 315 315 319 321 321 320 318 322 322 323 323 322 318 321 322 320 326 325 325 327 325 325 324 326 329 328 325 323 322 321 320 321 322 322 321 319 319 317 317 317 317 317 317 317
311 313 313 310 313 314 315 315 315 309 313 318 319 315 322 323 322 323 322 321 321 320 322 323 323 329 327 327 327 328 327 325 327 327 326 327 325 322 321 319 320 321 321 320 318 318 317 316 316 316 317 317 317 317
311 312 312 311 312 314 313 312 312 308 314 318 318 319 323 322 322 322 321 321 321 322 323 325 325 325 326 327 326 325 328 326 326 325 328 328 324 322 319 319 319 319 319 318 318 317 316 316 316 317 317 317 317 317
312 313 313 309 311 311 312 309 308 307 314 317 318 321 321 322 322 321 322 322 321 322 323 324 328 328 328 327 326 325 324 326 325 329 328 324 322 318 319 319 319 320 319 319 319 318 317 317 317 317 318 318 318 317
311 311 312 311 311 311 310 308 309 313 315 316 317 317 318 319 321 321 322 323 322 321 325 326 329 328 326 327 326 324 324 324 324 327 324 321 320 320 320 321 320 320 320 320 319 319 319 318 318 318 320 319 318 317
310 311 312 310 310 310 309 310 311 312 314 315 316 317 318 319 320 318 318 320 323 325 326 323 326 327 327 325 327 325 325 328 328 327 324 322 322 322 322 322 322 322 321 321 320 320 320 319 318 319 319 318 318 316
310 311 311 310 311 311 310 310 311 314 315 316 317 317 317 318 318 317 319 319 319 322 322 326 327 328 328 327 329 328 327 328 328 328 326 324 324 325 325 326 327 326 325 324 323 322 321 320 319 319 319 318 318 314
310 310 310 310 311 311 312 312 311 313 316 318 317 317 318 318 317 317 320 319 319 318 322 327 327 326 326 325 325 325 326 326 326 328 329 328 328 328 325 324 326 327 328 328 326 325 323 322 320 319 319 317 315 314
310 311 311 310 310 310 312 314 315 316 316 316 317 318 318 317 317 318 319 319 320 319 322 322 322 323 322 324 327 326 325 324 323 324 321 321 322 325 322 321 326 329 329 328 328 327 325 322 320 318 315 314 313 311
310 311 311 311 312 312 313 313 314 315 316 318 319 320 320 321 320 320 318 320 324 324 323 322 321 322 320 322 325 326 325 327 325 321 320 319 323 324 325 325 326 325 326 326 326 324 322 322 319 316 312 313 314 312
310 310 311 311 312 311 312 314 316 316 319 320 321 322 322 322 321 322 323 322 321 319 318 322 324 323 322 327 328 328 327 325 323 321 323 327 327 327 327 327 326 327 326 325 324 324 324 321 318 315 311 313 314 310
309 310 312 312 311 312 314 317 317 317 320 321 321 322 323 322 321 323 324 322 321 321 323 318 320 323 325 324 326 329 329 328 327 327 327 327 327 326 325 323 321 325 326 325 324 323 323 319 315 312 313 313 309 310
309 311 311 311 312 314 318 320 321 322 322 323 323 323 325 323 326 325 325 326 325 323 322 322 323 321 320 325 324 325 325 325 324 323 322 324 326 326 325 324 323 322 321 321 322 321 318 315 314 314 311 309 309 310
309 312 310 314 317 317 320 321 322 322 323 323 323 320 320 324 323 324 327 324 320 320 320 320 323 324 323 323 322 321 321 325 325 325 325 324 325 324 324 324 323 321 319 318 319 319 317 315 314 310 309 309 310 309
314 314 315 314 318 319 319 319 319 322 323 323 324 325 325 324 324 325 325 323 321 319 320 320 320 321 323 323 324 324 324 324 323 324 323 322 322 322 322 322 322 321 318 317 317 317 315 313 309 309 310 310 309 309
314 317 319 319 318 318 319 319 320 322 324 323 323 324 325 325 324 322 322 321 319 321 323 323 322 322 321 322 323 321 321 321 321 320 319 319 318 319 319 319 318 318 317 316 316 315 314 312 310 310 310 309 309 309
316 316 316 317 317 318 318 319 319 321 320 321 324 324 324 321 318 318 322 322 323 323 322 322 321 322 321 320 318 317 320 321 321 321 320 319 319 318 317 316 315 315 315 315 315 315 315 312 310 311 312 312 311 309
313 314 315 316 317 318 317 317 319 319 321 322 322 322 321 320 318 321 323 323 323 320 318 317 317 319 321 321 320 319 319 319 319 318 318 318 318 317 316 314 314 314 315 314 314 314 312 311 311 311 311 312 311 312
313 314 315 315 317 316 317 318 318 319 321 320 321 322 322 322 321 321 322 322 321 320 318 316 318 318 318 319 319 319 318 318 318 317 315 316 317 317 314 313 312 312 313 312 311 311 311 312 312 312 312 312 312 311
315 316 316 317 316 316 317 317 318 319 319 320 322 323 321 318 318 321 318 319 319 319 316 315 316 317 318 317 317 318 317 317 317 317 316 315 315 317 317 315 314 313 313 312 313 313 313 313 313 312 312 313 313 310
315 315 315 316 317 317 318 318 318 319 322 323 322 322 322 322 323 320 318 318 317 315 314 314 314 314 313 313 314 314 315 316 316 316 315 314 313 311 315 316 316 316 316 315 315 314 314 314 314 313 313 312 312 312

GFSWCAN_850_thetae_114.txt.gz
Theta_e
317 316 316 315 315 316 318 321 321 321 322 321 317 315 315 314 317 309 311 317 325 326 321 320 323 320 321 321 317 320 319 320 318 318 318 323 323 322 323 322 324 320 321 321 326 328 327 323 326 330 327 329 335 333
315 316 316 316 317 318 318 320 321 321 321 319 315 315 316 315 317 309 311 324 320 324 322 321 322 322 320 320 318 320 321 323 321 318 318 318 324 318 317 322 320 322 320 321 323 325 323 324 323 324 332 333 332 332
314 316 317 318 319 319 319 320 321 321 321 317 316 316 316 315 316 311 309 311 323 324 323 319 322 322 321 318 319 319 321 320 321 323 319 314 318 315 318 318 323 323 324 321 323 324 324 325 322 330 331 329 328 330
317 318 319 319 320 319 319 320 321 322 318 316 316 316 317 315 316 312 309 311 316 324 326 320 323 322 320 321 321 320 320 321 321 320 319 313 315 318 316 316 320 321 322 321 321 324 323 324 329 331 328 327 327 327
318 319 319 320 320 320 320 320 320 317 316 316 316 317 317 316 316 312 309 309 311 320 324 325 322 320 322 321 321 321 322 322 321 321 317 317 319 320 318 316 318 323 320 322 321 324 323 326 329 329 327 326 325 322
317 318 319 319 320 321 320 320 316 316 316 316 316 317 316 316 315 310 309 309 310 314 323 323 327 326 325 321 322 322 323 323 321 321 319 322 325 323 318 318 321 323 326 326 325 323 325 327 328 327 324 325 322 322
316 316 317 319 319 319 317 316 316 316 316 316 317 317 316 316 311 309 315 320 314 316 324 325 323 324 323 321 323 323 323 324 323 319 319 322 323 321 313 316 319 319 319 325 325 325 324 327 326 327 324 324 322 321
315 315 314 314 314 315 315 316 315 315 315 315 317 316 316 312 310 310 319 318 317 320 322 319 318 323 322 323 323 323 323 324 324 321 321 321 322 322 315 317 322 322 322 325 325 324 323 323 326 325 322 324 324 321
315 314 312 312 312 313 315 315 314 314 314 316 316 315 311 310 310 310 310 311 317 319 320 319 318 324 324 323 323 324 324 320 323 319 318 321 314 315 318 321 322 324 323 325 325 324 323 323 322 324 321 323 322 323
314 314 313 311 310 311 315 315 314 313 313 314 310 311 312 311 315 317 317 319 318 314 316 324 324 317 324 324 324 324 324 318 320 321 323 318 317 321 321 320 319 323 322 322 322 321 323 322 322 322 322 323 323 324
314 314 313 312 310 310 314 315 314 314 313 309 312 317 323 316 320 321 322 318 319 318 317 321 324 323 325 323 323 325 322 318 321 318 320 320 320 321 323 320 317 321 322 321 321 321 321 321 321 321 319 318 320 323
313 313 313 312 312 310 312 315 314 314 309 313 315 318 321 321 321 320 319 318 318 317 317 314 316 320 321 325 324 324 322 318 320 320 321 320 318 324 323 322 319 320 322 322 321 322 320 320 319 318 318 317 317 318
312 312 313 313 312 310 313 315 315 312 313 315 318 320 319 320 316 321 321 322 317 320 317 316 315 315 321 324 325 324 323 320 320 321 323 319 324 323 323 322 318 320 322 322 321 322 320 320 318 317 317 317 316 317
311 311 313 312 311 313 314 314 315 311 313 316 319 314 319 321 320 320 319 317 319 318 319 319 318 326 325 323 320 323 320 319 322 322 322 317 324 322 322 321 320 319 322 321 322 320 320 318 317 317 317 317 316 317
311 311 312 312 310 312 313 313 315 311 312 316 317 315 319 319 321 321 320 320 320 320 321 322 322 326 321 322 319 321 323 322 321 320 317 322 323 322 321 320 320 319 321 322 321 318 318 317 316 316 317 317 317 317
310 312 313 312 310 311 312 312 313 309 311 316 318 319 319 320 320 321 322 322 321 321 323 321 324 324 324 323 322 322 322 323 320 317 322 324 324 322 321 319 318 319 320 320 319 318 317 317 316 315 316 316 316 317
310 311 312 312 311 311 311 310 308 309 311 315 316 316 317 317 318 319 321 322 321 322 323 324 326 326 324 324 324 319 319 317 321 321 323 325 324 321 316 316 317 319 319 319 318 318 317 317 317 316 316 316 317 317
309 310 310 312 310 310 309 308 309 310 313 313 315 316 316 317 317 317 319 321 323 322 321 322 323 327 326 326 322 321 322 322 321 323 324 324 322 318 318 321 319 319 319 319 319 319 319 318 317 317 317 317 318 318
309 310 310 311 311 311 309 309 310 313 314 313 315 315 314 315 315 316 318 319 321 323 323 322 324 326 326 325 326 326 329 328 327 326 324 322 320 320 320 321 321 321 321 321 320 320 320 319 319 319 318 318 319 318
309 310 310 310 311 311 312 311 310 312 314 317 316 315 316 317 317 317 318 318 321 320 321 324 324 322 324 324 326 326 326 328 329 329 329 328 326 324 324 325 328 328 327 327 326 325 325 322 320 320 319 318 319 317
309 310 310 310 310 311 311 313 313 313 315 316 316 317 318 318 318 317 317 318 319 319 320 322 324 323 323 324 324 326 323 323 324 324 325 324 324 324 325 325 323 322 323 327 328 328 326 326 325 323 320 319 317 316
309 310 310 310 310 312 312 311 312 314 314 315 316 317 319 320 319 318 317 319 321 319 319 318 319 319 321 321 322 323 322 324 324 323 323 322 322 319 319 319 324 325 325 325 326 326 326 325 324 321 321 319 316 315
309 310 310 311 312 311 312 313 314 316 315 318 320 320 320 320 319 318 321 321 321 321 320 320 320 322 321 321 321 321 323 325 322 321 322 321 320 323 327 327 327 327 325 321 322 325 325 325 323 321 320 317 315 313
309 310 311 312 311 311 313 314 316 316 317 319 319 320 321 322 322 321 321 321 321 322 322 321 321 322 323 323 325 323 323 325 324 323 324 325 327 327 327 326 324 323 322 322 322 325 324 324 322 320 316 314 314 315
309 309 310 310 312 313 314 318 319 320 321 320 321 321 321 321 321 321 321 323 323 323 321 320 322 325 326 327 326 323 322 324 325 325 323 321 321 324 326 325 323 323 323 324 324 323 322 320 318 314 313 313 314 310
307 310 310 313 314 313 316 321 321 322 321 321 322 319 319 321 322 321 321 323 321 320 319 321 322 322 321 320 322 321 321 322 323 324 324 324 324 324 325 324 324 324 323 322 320 319 319 316 314 312 312 314 312 310
310 312 312 312 314 317 319 319 319 319 322 323 322 322 322 324 324 322 324 322 320 319 319 321 322 321 320 319 322 324 324 324 323 323 322 322 322 322 322 323 323 323 321 319 318 318 318 316 313 314 313 311 309 310
310 314 315 316 316 316 319 318 319 321 321 321 322 323 324 323 322 321 322 321 320 320 321 321 323 321 321 320 322 323 321 321 321 319 318 317 316 316 319 319 320 319 318 317 316 317 317 316 315 313 309 310 309 309
315 316 317 316 318 318 318 318 319 320 320 321 322 322 323 321 320 319 321 322 322 323 323 321 322 321 321 318 318 320 319 318 319 318 318 318 317 315 314 314 314 314 315 315 316 317 316 315 311 309 310 311 311 310
313 313 314 316 318 318 317 317 318 319 320 321 321 322 321 320 319 321 321 321 321 319 318 319 319 321 322 321 320 318 318 320 320 319 319 318 317 316 314 313 313 313 314 314 316 315 314 314 310 309 310 312 311 312
311 312 313 315 315 316 317 317 317 318 320 320 321 322 321 319 319 320 322 321 320 319 319 317 316 318 319 319 319 320 319 319 319 318 315 316 316 317 316 314 312 311 312 313 315 315 315 314 311 310 311 312 312 312
315 316 314 315 316 317 316 318 318 319 321 322 322 321 320 318 318 321 319 319 319 319 317 316 316 315 316 317 318 317 318 318 317 316 315 314 314 314 316 316 313 311 310 311 312 313 313 312 310 311 311 312 312 311
314 314 315 315 316 317 317 317 319 322 322 323 322 322 321 321 321 318 317 317 315 315 314 314 316 316 315 316 316 314 315 315 316 315 315 315 314 313 312 316 316 313 313 312 311 311 311 312 312 313 312 312 312 312

GFSWCAN_850_thetae_117.txt.gz
Theta_e
322 320 317 316 316 316 315 316 318 318 321 321 321 320 315 315 315 316 310 317 320 324 323 322 322 321 320 320 317 318 318 319 315 317 316 321 321 320 320 319 321 318 320 320 322 325 325 324 325 328 326 330 335 333
317 315 315 315 316 317 318 318 317 319 320 321 321 318 315 316 315 315 310 320 314 317 323 323 321 320 320 319 318 319 320 320 319 316 315 317 322 317 317 319 318 319 317 320 320 321 321 323 324 327 328 332 334 332
312 312 314 315 317 318 319 318 319 319 320 321 320 316 316 316 316 315 315 309 311 322 324 322 318 320 321 320 318 319 320 320 321 322 316 312 318 314 318 318 320 319 321 319 321 322 323 324 322 328 331 331 330 330
311 314 317 318 318 319 319 319 319 319 321 318 316 315 316 316 316 315 316 309 317 319 323 322 323 322 322 320 319 320 319 319 320 320 318 311 312 316 313 314 318 319 320 319 319 322 323 323 325 330 330 327 328 328
316 316 317 317 318 319 319 319 319 319 317 316 316 316 316 316 316 315 315 309 310 316 321 324 321 322 320 321 321 321 320 322 321 319 314 314 314 316 315 314 316 321 318 320 321 323 323 324 329 329 326 325 326 321
316 315 316 317 317 318 320 320 319 318 316 316 315 315 317 317 316 315 310 310 309 314 320 321 325 323 324 322 321 321 322 322 322 320 318 318 324 320 317 318 319 325 324 323 323 323 323 327 327 327 325 323 321 321
314 315 315 316 317 317 317 317 316 316 315 315 315 316 316 316 315 311 313 314 309 312 321 324 323 325 325 322 322 322 323 323 323 320 317 318 321 319 312 317 320 324 322 322 323 323 325 326 328 326 324 321 320 320
312 314 315 313 312 313 314 314 315 315 315 315 315 316 316 315 314 313 314 317 316 318 322 318 318 321 321 322 323 323 323 323 323 321 318 320 320 318 313 316 318 321 319 323 324 323 325 326 327 326 324 321 320 319
314 314 314 312 311 311 312 314 315 314 314 313 315 315 313 311 310 311 311 314 311 315 319 317 316 322 322 322 322 322 323 319 321 317 315 320 312 315 318 320 320 320 321 324 324 324 323 325 324 326 323 322 322 321
312 313 313 312 311 310 310 314 314 314 313 314 312 309 310 311 312 318 315 317 317 316 316 321 324 313 323 322 321 322 322 317 319 317 319 316 315 321 321 320 321 321 322 324 325 324 323 325 326 324 322 320 320 321
312 313 313 313 312 311 310 311 314 314 314 310 309 315 321 318 318 319 319 317 318 316 317 319 320 321 322 322 320 323 319 318 319 318 320 317 318 319 322 322 321 320 323 323 325 324 323 322 323 323 322 321 321 322
311 312 313 312 312 312 310 311 314 314 309 312 314 317 318 320 321 319 318 317 316 315 315 314 320 319 323 325 322 322 321 317 320 317 319 318 316 322 322 322 318 320 322 322 323 322 321 322 322 322 321 321 320 319
310 311 312 312 313 312 310 313 314 314 310 313 316 318 320 319 314 319 319 320 317 317 315 313 310 318 320 323 323 321 323 320 318 320 322 318 320 322 322 322 318 318 322 322 321 321 321 321 320 320 320 318 318 317
310 310 311 312 312 310 312 313 314 313 312 313 318 318 315 318 318 318 318 318 319 318 318 315 313 316 320 321 318 322 320 317 320 319 319 315 322 322 321 322 320 318 321 322 321 321 321 320 319 318 318 317 317 316
310 310 311 312 312 310 312 314 314 312 311 314 317 312 316 318 319 320 320 320 321 321 320 321 320 323 318 320 317 318 321 321 319 319 315 321 321 322 321 322 319 317 319 321 321 321 321 320 320 318 317 317 317 316
310 310 311 312 311 310 312 312 312 310 310 315 317 317 318 318 319 318 320 319 321 322 322 323 322 323 323 318 320 321 321 322 319 315 321 321 321 322 322 319 318 319 318 321 321 321 320 319 319 317 316 316 317 316
309 310 311 312 312 310 311 309 310 310 309 314 315 316 317 317 317 318 319 319 321 322 322 322 324 325 323 322 322 318 318 316 321 321 321 321 322 323 321 317 316 319 318 319 320 321 319 318 317 317 316 315 316 316
309 309 310 310 311 310 310 309 309 310 312 313 313 314 315 316 316 316 317 318 321 322 322 322 323 324 326 325 321 318 322 322 322 321 321 321 323 323 319 319 317 318 318 319 319 319 319 318 317 317 317 317 316 316
308 309 309 311 310 310 309 309 310 312 313 313 313 313 313 313 314 314 315 317 318 321 322 322 321 322 322 323 324 324 325 327 325 324 324 323 323 322 318 318 318 318 318 318 318 319 319 318 318 318 318 317 316 316
308 309 310 311 310 311 312 311 310 311 312 315 315 315 314 315 315 315 316 316 318 321 321 321 320 322 324 323 323 324 324 326 327 326 326 324 323 322 319 318 318 319 320 320 321 321 320 320 319 319 319 318 317 317
307 309 310 310 310 310 311 312 312 311 313 314 315 315 315 316 315 315 315 316 320 319 317 320 319 319 320 321 322 323 322 323 324 324 324 325 325 324 323 323 324 324 327 326 322 321 325 327 327 326 325 323 320 318
309 310 310 310 310 311 311 311 312 312 313 314 314 315 316 318 318 318 318 318 319 318 318 317 317 318 318 321 320 320 323 324 322 321 322 323 323 323 323 324 323 323 323 322 322 323 324 325 326 325 324 324 323 320
309 309 310 311 311 312 311 312 313 314 314 315 318 319 317 318 318 318 318 318 318 317 317 318 320 320 320 320 321 323 323 323 323 323 321 321 322 321 321 319 322 325 326 326 325 323 322 324 325 325 324 323 321 317
308 310 311 311 310 310 312 313 314 315 315 315 316 318 318 319 321 319 319 318 319 320 320 320 320 321 322 323 322 322 321 321 323 320 321 322 321 321 323 324 324 324 324 322 322 322 323 324 324 324 322 321 319 315
310 309 309 310 312 312 313 313 316 316 317 316 319 318 319 320 320 321 321 321 322 321 321 322 322 323 323 324 323 322 322 322 321 322 323 323 324 324 323 324 325 324 323 322 323 322 321 320 322 323 322 320 318 314
308 309 309 312 313 312 313 318 320 320 321 321 321 320 319 318 321 320 318 322 321 319 320 321 322 324 325 325 324 324 322 322 322 323 323 323 323 321 323 324 324 324 323 323 322 322 322 319 320 321 319 317 314 314
308 310 311 311 312 314 316 316 317 319 321 322 321 320 320 322 322 320 322 322 320 319 320 321 321 319 319 320 322 321 321 323 323 323 323 322 322 321 321 321 322 323 323 322 321 319 318 318 319 318 317 314 314 314
309 311 313 314 312 313 316 317 317 320 321 318 318 323 324 323 321 321 322 321 320 319 320 321 321 321 321 323 323 323 322 322 321 318 316 316 313 314 313 313 314 317 319 318 317 316 317 318 317 315 314 313 313 312
311 313 313 315 316 317 316 316 317 319 319 320 322 320 321 321 320 319 321 322 322 322 321 322 321 321 319 320 320 319 316 317 317 317 316 316 316 316 315 313 312 312 314 314 315 315 317 317 315 313 313 313 310 309
313 313 315 314 316 315 316 317 317 319 320 321 321 321 320 319 319 319 320 321 321 320 318 320 321 321 321 320 320 318 318 318 319 319 319 319 318 316 316 315 313 311 311 314 315 316 316 315 314 313 310 310 311 310
311 311 312 313 314 315 315 315 316 317 319 320 320 322 320 319 319 321 322 321 321 320 318 316 317 317 318 320 321 320 320 319 318 319 319 318 315 314 315 316 314 312 310 312 315 315 315 314 313 310 309 311 311 310
313 313 313 312 314 316 316 317 317 318 320 321 321 321 320 318 319 319 318 317 316 317 316 316 316 316 317 318 318 319 319 318 318 319 317 315 314 313 312 313 316 313 311 310 314 315 315 314 313 310 309 310 310 310
313 314 314 314 315 315 316 317 319 319 320 321 321 321 321 320 320 318 316 315 316 315 314 317 317 316 316 316 316 315 315 315 315 315 314 315 315 314 313 312 313 316 312 311 309 311 313 314 314 314 310 309 309 310

GFSWCAN_850_thetae_120.txt.gz
Theta_e
321 322 321 319 316 315 315 316 317 317 318 317 319 320 320 316 315 315 314 313 312 319 323 324 323 321 320 318 316 317 318 318 314 315 314 318 319 319 319 317 319 316 318 318 319 324 324 323 325 327 323 328 332 331
320 320 316 314 313 314 314 316 318 319 317 318 319 321 320 316 316 316 314 313 314 317 320 322 322 322 322 320 318 318 318 319 318 314 313 315 320 316 315 319 316 318 315 317 317 319 318 322 323 325 327 330 333 330
312 311 309 310 313 316 317 318 319 317 317 318 320 320 317 315 316 316 315 311 313 311 318 320 316 318 320 320 318 319 320 322 321 320 315 312 317 313 317 316 318 317 317 319 321 318 322 323 324 326 330 332 332 329
307 307 309 313 316 317 318 319 318 318 318 319 318 316 316 315 316 316 315 314 309 314 320 323 320 320 321 321 319 318 319 319 319 320 316 310 312 315 314 314 316 317 318 317 318 319 322 323 323 329 329 328 327 329
305 311 314 315 315 316 316 318 318 318 318 319 316 315 315 315 316 316 315 314 309 316 318 322 320 320 321 321 320 319 320 319 320 318 312 312 312 314 312 312 314 319 318 320 319 320 321 322 324 328 326 324 326 324
310 314 314 314 314 315 316 317 318 318 317 316 315 315 315 316 316 315 314 315 311 309 316 318 321 323 322 319 320 321 321 321 321 320 317 317 320 318 315 315 317 319 321 322 321 322 322 323 328 327 322 322 321 320
313 314 314 313 313 314 315 315 315 316 315 315 315 315 315 315 315 314 311 313 311 308 316 321 320 323 325 320 321 321 322 322 322 320 316 316 319 319 312 316 320 321 323 323 323 323 324 327 327 325 319 320 320 320
314 313 312 314 311 311 311 312 313 314 315 314 314 314 315 315 315 315 314 311 310 313 319 317 316 319 321 321 322 322 322 322 321 321 317 318 318 314 311 315 319 318 323 321 320 322 323 326 327 325 320 319 319 318
313 313 313 313 312 311 310 310 314 314 314 313 312 313 314 313 312 311 311 316 314 314 318 315 316 319 320 320 321 321 321 317 319 317 315 317 310 314 317 321 321 320 320 321 320 322 324 326 326 325 322 320 319 317
313 311 313 313 312 311 311 309 312 314 313 312 313 310 309 310 312 314 311 311 311 312 316 318 321 315 321 320 319 321 320 317 319 316 317 314 314 320 322 322 321 320 319 320 323 322 325 327 326 325 323 319 321 321
311 311 312 313 313 312 311 310 310 313 313 313 308 311 317 319 317 318 317 316 316 316 315 316 317 319 320 320 318 320 318 316 320 317 319 316 316 318 321 321 321 320 319 321 324 323 324 323 324 324 324 321 321 321
310 311 311 312 312 312 312 311 311 314 312 310 313 315 318 319 319 319 317 315 314 314 314 316 318 317 320 324 322 321 319 315 320 315 317 317 315 322 321 321 322 321 319 321 323 324 324 323 323 322 322 321 321 320
310 310 310 311 311 312 311 310 312 314 312 311 314 316 319 317 314 318 319 318 316 317 315 313 312 318 319 323 321 318 321 319 316 319 320 317 320 321 321 322 321 320 319 322 322 323 324 321 321 322 323 321 322 321
311 310 310 310 311 312 310 311 313 314 311 311 315 315 315 316 316 316 317 316 318 317 317 313 312 316 319 319 317 323 319 316 318 318 318 315 321 322 321 321 321 318 319 321 322 322 321 321 320 320 321 321 320 318
312 310 310 311 312 312 310 312 313 313 310 311 316 314 315 316 317 319 319 319 319 319 319 318 316 319 315 318 316 317 320 321 318 318 315 319 320 320 321 320 321 319 318 321 322 321 321 321 321 320 319 318 317 317
311 310 310 311 312 311 311 312 312 311 310 313 315 316 316 316 318 317 319 319 320 321 319 320 320 320 320 316 319 320 320 320 318 314 320 320 321 321 321 321 320 319 318 320 321 321 320 320 320 320 319 319 317 316
309 309 309 311 311 311 311 310 310 310 310 312 315 315 315 316 316 317 317 318 318 321 320 321 323 323 320 321 321 317 318 316 317 320 319 319 320 320 322 321 319 318 317 318 319 320 320 320 320 320 319 318 317 316
309 309 309 310 310 310 310 309 309 311 312 312 313 313 315 316 316 318 317 317 318 319 321 321 322 322 323 324 321 317 322 325 325 324 323 322 321 321 322 320 318 317 317 317 317 319 320 321 320 319 318 317 316 316
308 308 309 309 310 310 310 309 309 312 312 312 312 312 312 312 313 315 317 317 318 317 322 321 320 321 321 321 321 322 324 325 326 327 325 323 322 322 322 319 318 317 318 317 318 318 318 318 318 318 318 317 317 316
308 308 309 309 310 310 312 311 309 310 311 313 314 314 313 314 314 314 315 314 315 319 320 320 318 319 321 319 320 322 324 323 325 325 325 325 324 323 322 320 319 318 318 318 318 318 318 319 319 318 318 318 317 317
308 308 309 309 310 310 311 311 312 311 312 313 314 314 314 314 314 314 315 315 318 320 316 319 319 318 319 318 320 322 323 322 324 324 323 323 323 324 324 323 322 320 321 323 322 322 324 324 324 322 323 323 322 320
307 308 309 309 310 311 311 311 311 312 312 313 313 313 315 315 316 315 315 315 317 316 317 318 317 317 317 317 318 320 321 321 323 323 323 321 322 323 323 324 322 322 322 322 323 323 323 322 323 324 325 324 324 324
309 309 309 310 310 311 311 311 313 313 313 314 315 317 315 316 317 316 316 317 318 318 318 317 317 316 316 318 320 319 319 320 322 322 323 323 322 322 322 321 320 320 322 322 325 325 325 323 322 321 324 324 324 324
308 310 310 311 310 310 311 312 313 313 314 312 314 316 316 317 318 317 317 317 319 319 318 317 317 317 318 319 320 320 320 321 322 322 323 321 322 322 321 320 320 322 323 322 323 323 322 322 322 322 322 323 323 321
308 308 309 308 311 311 312 313 315 314 316 314 316 315 315 319 318 318 319 319 320 318 318 319 320 321 321 321 322 321 321 321 321 322 321 321 321 322 322 323 323 322 323 323 323 322 322 322 321 320 321 323 321 319
308 309 307 311 312 312 312 315 316 318 319 320 320 319 319 316 319 319 316 321 320 321 321 321 321 322 321 322 324 323 322 321 322 322 322 322 323 323 323 322 322 323 324 324 323 323 322 321 322 320 320 321 320 318
307 309 309 309 311 313 314 314 314 315 319 320 319 319 319 320 320 319 321 321 319 319 321 321 321 322 322 324 323 324 323 323 323 322 322 321 322 321 319 317 317 319 321 322 322 322 321 319 318 318 318 320 319 318
306 309 310 312 311 311 313 314 317 319 320 318 317 321 323 323 321 321 321 320 319 320 320 321 321 320 321 321 322 322 323 321 317 315 315 314 313 314 315 314 312 312 312 316 318 318 317 316 316 317 317 318 317 314
309 311 311 312 314 314 314 314 316 318 320 319 321 319 320 321 319 320 321 321 321 321 321 321 321 319 319 318 318 316 316 315 316 316 316 316 316 316 316 315 313 312 310 312 314 315 315 316 317 317 315 315 314 314
310 310 313 316 316 315 317 317 318 317 318 320 321 321 319 319 319 320 320 321 319 318 318 321 321 320 319 319 318 317 316 317 318 318 318 318 319 318 317 316 315 314 310 310 313 314 315 316 316 313 312 312 313 313
311 312 313 313 312 315 315 315 315 315 317 319 320 321 319 319 320 321 321 320 320 317 316 316 316 317 318 319 320 320 320 319 318 318 318 319 318 315 313 313 315 315 312 309 311 314 316 316 314 313 312 311 310 310
311 310 311 311 312 315 315 316 317 318 319 320 321 321 319 318 319 317 317 316 318 317 317 316 316 317 317 318 318 318 318 318 318 318 319 318 315 314 313 312 312 313 314 311 310 314 316 315 314 313 310 311 311 311
312 313 313 313 314 314 316 317 318 318 320 321 321 321 320 319 318 318 315 316 315 314 315 315 315 316 315 316 316 316 316 316 315 315 315 315 315 315 315 314 313 313 314 314 311 311 314 315 314 312 311 309 310 310

GFSWCAN_850_thetae_123.txt.gz
Theta_e
319 319 319 320 321 317 314 313 314 315 317 318 317 317 319 320 318 315 315 312 311 313 319 321 323 322 320 318 323 318 321 321 320 323 322 325 328 329 327 324 325 326 327 328 328 330 327 326 327 332 330 329 333 332
317 317 318 315 313 311 310 313 315 317 318 317 317 317 319 319 316 315 315 313 312 312 315 319 320 321 322 322 322 316 321 321 321 323 322 325 327 324 327 325 321 326 323 326 326 326 324 325 326 326 325 331 333 330
310 309 308 308 308 310 313 316 317 318 316 317 317 318 319 317 315 315 315 312 312 313 314 314 314 316 317 320 320 319 319 321 320 319 320 323 327 323 327 326 324 323 319 325 326 325 322 325 324 326 329 332 331 328
308 307 306 307 311 314 315 315 317 318 316 317 318 318 316 315 315 315 315 315 311 310 317 321 322 320 318 320 320 319 318 319 320 319 319 321 322 319 323 322 323 323 322 326 327 324 323 325 325 328 330 330 329 327
306 305 305 311 314 314 315 315 316 317 317 317 318 316 315 315 315 315 315 315 312 311 317 318 319 317 321 322 321 320 317 319 318 319 320 321 317 319 318 319 324 321 326 327 324 325 326 325 325 327 328 326 327 326
304 305 311 313 313 313 314 314 315 316 316 316 315 315 314 315 314 314 314 315 314 309 310 321 320 321 320 320 320 320 318 319 319 321 321 318 317 320 326 326 324 321 322 323 325 323 322 323 323 327 326 325 326 320
305 310 312 313 312 312 311 312 314 315 315 314 314 314 314 313 313 314 311 312 314 310 313 321 323 321 323 318 318 318 320 321 321 320 320 320 321 321 324 328 324 320 320 320 321 322 326 327 330 324 320 322 320 320
305 311 312 312 312 311 311 310 311 313 314 314 313 312 311 312 314 315 314 312 313 309 315 323 323 319 319 320 322 321 321 321 321 322 317 320 318 318 327 323 323 320 319 321 322 323 323 328 328 322 319 320 320 318
307 310 312 312 312 311 311 310 310 313 314 312 312 311 313 314 312 311 311 311 309 313 316 318 322 323 319 320 320 320 321 324 319 323 322 321 324 325 326 325 323 320 320 320 322 320 322 327 327 321 319 319 317 317
307 310 312 312 312 312 311 311 310 311 313 313 312 312 310 309 311 312 310 313 314 314 312 319 320 322 320 321 322 325 321 325 326 325 318 323 326 323 322 322 321 321 320 320 321 323 326 329 327 323 319 318 318 318
309 311 310 311 312 312 312 311 311 310 313 313 310 309 314 317 317 316 317 314 313 318 317 317 318 320 320 325 327 321 325 324 327 326 325 326 326 324 320 321 321 321 319 319 319 322 323 325 326 324 322 319 319 319
310 311 310 310 312 312 312 312 311 311 313 309 311 314 317 318 318 319 320 317 318 319 316 317 318 317 316 322 326 323 327 323 326 320 324 328 325 320 321 321 321 320 320 319 321 323 323 325 324 322 322 320 319 320
309 311 310 310 311 311 312 311 310 312 313 311 312 314 317 318 318 321 321 322 319 318 316 314 319 319 316 322 324 326 326 326 319 324 327 326 325 321 321 321 321 321 320 320 321 323 323 323 323 323 322 322 320 320
310 311 310 310 310 311 312 310 311 313 313 310 313 315 319 320 319 320 320 320 319 317 316 313 315 319 318 324 324 326 325 322 325 325 325 325 322 320 321 321 321 321 320 319 321 322 324 324 321 322 322 323 322 321
309 310 311 310 310 311 312 311 312 313 312 310 313 320 320 318 317 318 318 318 319 318 317 316 315 318 322 324 323 323 324 326 324 322 323 323 319 320 320 320 319 320 319 318 321 322 322 322 321 320 320 320 322 323
309 311 311 310 310 311 311 310 311 311 311 311 314 317 317 318 319 318 319 320 318 320 319 319 322 324 322 322 324 325 325 325 322 323 321 319 320 320 320 320 320 320 319 318 320 321 322 321 320 320 321 321 321 318
310 310 310 310 310 310 310 310 310 311 310 312 314 315 315 316 317 317 318 318 318 321 324 323 321 322 323 325 324 323 322 322 322 323 322 322 322 321 320 321 321 320 318 317 319 321 321 320 320 320 320 319 318 318
309 309 308 309 309 310 310 310 310 311 312 312 313 314 314 315 317 317 318 317 318 319 321 323 323 326 324 325 325 323 321 323 322 322 321 321 321 321 321 322 321 319 316 316 317 317 320 319 319 320 320 319 319 318
308 309 309 309 309 310 310 309 309 311 312 312 312 313 312 312 313 315 316 317 317 317 318 321 324 326 326 325 326 325 324 323 325 324 324 324 324 323 322 322 321 319 317 317 317 317 318 318 318 320 320 320 319 318
308 308 309 309 309 310 311 311 310 310 311 313 313 313 313 313 313 314 313 315 315 315 318 323 324 323 322 321 319 320 321 323 324 325 324 324 324 323 323 322 321 319 318 318 318 318 318 318 319 319 319 318 318 318
307 308 309 309 309 309 310 311 312 311 312 313 313 313 314 313 314 314 314 314 316 318 317 318 320 319 318 319 318 318 322 323 323 324 322 323 323 323 321 320 319 318 318 318 318 319 319 320 320 319 321 322 322 322
307 308 308 309 309 310 310 311 311 312 312 313 314 314 315 316 316 315 315 316 316 317 317 316 316 316 317 317 317 317 317 320 323 322 323 322 322 322 323 322 323 322 322 322 323 323 323 324 324 324 323 322 324 324
308 309 309 309 310 310 311 312 312 312 314 315 315 317 317 316 316 314 317 316 316 316 316 316 315 315 316 316 316 316 316 318 318 320 320 322 323 322 322 321 321 322 321 321 321 322 322 323 324 324 324 322 322 322
308 309 310 310 309 309 311 312 312 313 314 315 315 316 317 319 316 317 320 319 318 318 318 318 317 317 317 317 317 316 317 318 320 319 320 322 321 321 322 321 321 321 321 322 323 323 323 323 322 322 321 322 322 322
308 309 309 308 311 311 312 313 314 315 316 316 317 318 319 318 322 322 322 322 322 320 318 318 318 317 317 317 318 320 320 320 321 321 321 321 322 322 322 322 323 323 322 322 322 323 323 322 322 322 322 321 320 322
307 309 307 310 312 312 312 314 315 315 317 318 319 319 319 320 322 323 322 322 320 320 320 320 320 321 321 322 322 323 323 322 321 321 322 322 322 322 322 322 322 321 322 322 323 323 323 323 323 321 321 321 320 320
308 309 309 308 310 311 313 313 314 314 313 317 320 320 320 322 321 322 321 320 319 319 320 321 320 321 322 322 323 322 322 322 322 322 322 321 321 318 314 313 312 312 312 316 321 322 322 321 321 321 319 318 318 320
307 308 310 311 311 311 312 312 313 318 318 318 317 320 322 322 322 321 321 320 320 319 321 321 320 321 321 321 322 322 322 321 315 314 313 313 313 313 314 314 313 313 311 310 312 316 319 319 318 317 316 317 317 318
308 310 311 312 312 313 314 314 315 317 319 317 320 322 321 321 319 320 320 321 321 320 320 321 320 318 318 315 316 316 315 315 316 316 316 316 317 317 317 317 316 315 313 310 309 312 314 315 315 315 316 316 315 315
309 309 311 313 315 316 317 315 317 316 317 317 320 320 318 319 319 320 320 320 320 319 320 321 318 318 318 317 316 316 316 316 316 317 318 319 319 319 315 313 313 315 314 310 310 311 314 314 315 316 314 314 314 314
310 311 312 313 314 314 316 316 316 316 316 318 320 321 319 320 320 320 320 320 318 316 316 318 319 319 320 320 320 320 320 320 320 319 319 318 318 318 316 314 312 313 314 312 310 312 314 316 316 314 313 313 314 313
310 311 311 313 314 314 314 315 316 318 318 319 320 320 318 318 318 317 317 318 318 315 315 317 317 317 316 315 315 315 314 314 314 315 316 317 318 317 317 315 313 313 313 314 312 311 314 315 315 314 313 312 312 312
311 311 312 313 314 315 316 316 318 319 320 320 321 320 319 318 318 317 315 316 315 314 314 315 315 315 316 316 316 316 316 316 317 317 316 316 315 316 316 315 315 314 313 313 314 313 312 314 314 314 312 310 311 311